[[{"header":{"parameterUnit":"m.s-1","parameterCategory":1,"la1":30.6,"la2":28.766,"lo1":-90.7593,"lo2":-88.6598,"dy":0.0162,"dx":0.0183,"nx":116,"ny":114,"refTime":"2023-05-02T18:00:00:Z","depth":0,"parameterNumber":2,"parameterNumberName":"U-component_of_WINDS"},"data":[0.0,0.0,0.0,0.0,0.0,0.0,0.0,0.0,0.0,0.0,0.0,0.0,0.0,0.0,0.0,0.0,0.0,0.0,0.0,0.0,0.0,0.0,0.0,0.0,0.0,0.0,0.0,0.0,0.0,0.0,0.0,0.0,0.0,0.0,0.0,0.0,0.0,0.0,0.0,0.0,0.0,0.0,0.0,0.0,0.0,0.0,0.0,0.0,0.0,0.0,0.0,0.0,0.0,0.0,0.0,0.0,0.0,0.0,0.0,0.0,0.0,0.0,0.0,0.0,0.0,0.0,0.0,0.0,0.0,0.0,0.0,0.0,0.0,0.0,0.0,0.0,0.0,0.0,0.0,0.0,0.0,0.0,0.0,0.0,0.0,0.0,0.0,0.0,0.0,0.0,0.0,0.0,0.0,0.0,0.0,0.0,0.0,0.0,0.0,0.0,0.0,0.0,0.0,0.0,0.0,0.0,0.0,0.0,0.0,0.0,0.0,0.0,0.0,0.0,0.0,0.0,0.0,0.0,0.0,0.0,0.0,0.0,0.0,0.0,0.0,0.0,0.0,0.0,0.0,0.0,0.0,0.0,0.0,0.0,0.0,0.0,0.0,0.0,0.0,0.0,0.0,0.0,0.0,0.0,0.0,0.0,0.0,0.0,0.0,0.0,0.0,0.0,0.0,0.0,0.0,0.0,0.0,0.0,0.0,0.0,0.0,0.0,0.0,0.0,0.0,0.0,0.0,0.0,0.0,0.0,0.0,0.0,0.0,0.0,0.0,0.0,0.0,0.0,0.0,0.0,0.0,0.0,0.0,0.0,0.0,0.0,0.0,0.0,0.0,0.0,0.0,0.0,0.0,0.0,0.0,0.0,0.0,0.0,0.0,0.0,0.0,0.0,0.0,0.0,0.0,0.0,0.0,0.0,0.0,0.0,0.0,0.0,0.0,0.0,0.0,0.0,0.0,0.0,0.0,0.0,0.0,0.0,0.0,0.0,0.0,0.0,0.0,0.0,0.0,0.0,0.0,0.0,0.0,0.0,0.0,0.0,0.0,0.0,0.0,0.0,0.0,0.0,0.0,0.0,0.0,0.0,0.0,0.0,0.0,0.0,0.0,0.0,0.0,0.0,0.0,0.0,0.0,0.0,0.0,0.0,0.0,0.0,0.0,0.0,0.0,0.0,0.0,0.0,0.0,0.0,0.0,0.0,0.0,0.0,0.0,0.0,0.0,0.0,0.0,0.0,0.0,0.0,0.0,0.0,0.0,0.0,0.0,0.0,0.0,0.0,0.0,0.0,0.0,0.0,0.0,0.0,0.0,0.0,0.0,0.0,0.0,0.0,0.0,0.0,0.0,0.0,0.0,0.0,0.0,0.0,0.0,0.0,0.0,0.0,0.0,0.0,0.0,0.0,0.0,0.0,0.0,0.0,0.0,0.0,0.0,0.0,0.0,0.0,0.0,0.0,0.0,0.0,0.0,0.0,0.0,0.0,0.0,0.0,0.0,0.0,0.0,0.0,0.0,0.0,0.0,0.0,0.0,0.0,0.0,0.0,0.0,0.0,0.0,0.0,0.0,0.0,0.0,0.0,0.0,0.0,0.0,0.0,0.0,0.0,0.0,0.0,0.0,0.0,0.0,0.0,0.0,0.0,0.0,0.0,0.0,0.0,0.0,0.0,0.0,0.0,0.0,0.0,0.0,0.0,0.0,0.0,0.0,0.0,0.0,0.0,0.0,0.0,0.0,0.0,0.0,0.0,0.0,0.0,0.0,0.0,0.0,0.0,0.0,0.0,0.0,0.0,0.0,0.0,0.0,0.0,0.0,0.0,0.0,0.0,0.0,0.0,0.0,0.0,0.0,0.0,0.0,0.0,0.0,0.0,0.0,0.0,0.0,0.0,0.0,0.0,0.0,0.0,0.0,0.0,0.0,0.0,0.0,0.0,0.0,0.0,0.0,0.0,0.0,0.0,0.0,0.0,0.0,0.0,0.0,0.0,0.0,0.0,0.0,0.0,0.0,0.0,0.0,0.0,0.0,0.0,0.0,0.0,0.0,0.0,0.0,0.0,0.0,0.0,0.0,0.0,0.0,0.0,0.0,0.0,0.0,0.0,0.0,0.0,0.0,0.0,0.0,0.0,0.0,0.0,0.0,0.0,0.0,0.0,0.0,0.0,0.0,0.0,0.0,0.0,0.0,0.0,0.0,0.0,0.0,0.0,0.0,0.0,0.0,0.0,0.0,0.0,0.0,0.0,0.0,0.0,0.0,0.0,0.0,0.0,0.0,0.0,0.0,0.0,0.0,0.0,0.0,0.0,0.0,0.0,0.0,0.0,0.0,0.0,0.0,0.0,0.0,0.0,0.0,0.0,0.0,0.0,0.0,0.0,0.0,0.0,0.0,0.0,0.0,0.0,0.0,0.0,0.0,0.0,0.0,0.0,0.0,0.0,0.0,0.0,0.0,0.0,0.0,0.0,0.0,0.0,0.0,0.0,0.0,0.0,0.0,0.0,0.0,0.0,0.0,0.0,0.0,0.0,0.0,0.0,0.0,0.0,0.0,0.0,0.0,0.0,0.0,0.0,0.0,0.0,0.0,0.0,0.0,0.0,0.0,0.0,0.0,0.0,0.0,0.0,0.0,0.0,0.0,0.0,0.0,0.0,0.0,0.0,0.0,0.0,0.0,0.0,0.0,0.0,0.0,0.0,0.0,0.0,0.0,0.0,0.0,0.0,0.0,0.0,0.0,0.0,0.0,0.0,0.0,0.0,0.0,0.0,0.0,0.0,0.0,0.0,0.0,0.0,0.0,0.0,0.0,0.0,0.0,0.0,0.0,0.0,0.0,0.0,0.0,0.0,0.0,0.0,0.0,0.0,0.0,0.0,0.0,0.0,0.0,0.0,0.0,0.0,0.0,0.0,0.0,0.0,0.0,0.0,0.0,0.0,0.0,0.0,0.0,0.0,0.0,0.0,0.0,0.0,0.0,0.0,0.0,0.0,0.0,0.0,0.0,0.0,0.0,0.0,0.0,0.0,0.0,0.0,0.0,0.0,0.0,0.0,0.0,0.0,0.0,0.0,0.0,0.0,0.0,0.0,0.0,0.0,0.0,0.0,0.0,0.0,0.0,0.0,0.0,0.0,0.0,0.0,0.0,0.0,0.0,0.0,0.0,0.0,0.0,0.0,0.0,0.0,0.0,0.0,0.0,0.0,0.0,0.0,0.0,0.0,0.0,0.0,0.0,0.0,0.0,0.0,0.0,0.0,0.0,0.0,0.0,0.0,0.0,0.0,0.0,0.0,0.0,0.0,0.0,0.0,0.0,0.0,0.0,0.0,0.0,0.0,0.0,0.0,0.0,0.0,0.0,0.0,0.0,0.0,0.0,0.0,0.0,0.0,0.0,0.0,0.0,0.0,0.0,0.0,0.0,0.0,0.0,0.0,0.0,0.0,0.0,0.0,0.0,0.0,0.0,0.0,0.0,0.0,0.0,0.0,0.0,0.0,0.0,0.0,0.0,0.0,0.0,0.0,0.0,0.0,0.0,0.0,0.0,0.0,0.0,0.0,0.0,0.0,0.0,0.0,0.0,0.0,0.0,0.0,0.0,0.0,0.0,0.0,0.0,0.0,0.0,0.0,0.0,0.0,0.0,0.0,0.0,0.0,0.0,0.0,0.0,0.0,0.0,0.0,0.0,0.0,0.0,0.0,0.0,0.0,0.0,0.0,0.0,0.0,0.0,0.0,0.0,0.0,0.0,0.0,0.0,0.0,0.0,0.0,0.0,0.0,0.0,0.0,0.0,0.0,0.0,0.0,0.0,0.0,0.0,0.0,0.0,0.0,0.0,0.0,0.0,0.0,0.0,0.0,0.0,0.0,0.0,0.0,0.0,0.0,0.0,0.0,0.0,0.0,0.0,0.0,0.0,0.0,0.0,0.0,0.0,0.0,0.0,0.0,0.0,0.0,0.0,0.0,0.0,0.0,0.0,0.0,0.0,0.0,0.0,0.0,0.0,0.0,0.0,0.0,0.0,0.0,0.0,0.0,0.0,0.0,0.0,0.0,0.0,0.0,0.0,0.0,0.0,0.0,0.0,0.0,0.0,0.0,0.0,0.0,0.0,0.0,0.0,0.0,0.0,0.0,0.0,0.0,0.0,0.0,0.0,0.0,0.0,0.0,0.0,0.0,0.0,0.0,0.0,0.0,0.0,0.0,0.0,0.0,0.0,0.0,0.0,0.0,0.0,0.0,0.0,0.0,0.0,0.0,0.0,0.0,0.0,0.0,0.0,0.0,0.0,0.0,0.0,0.0,0.0,0.0,0.0,0.0,0.0,0.0,0.0,0.0,0.0,0.0,0.0,0.0,0.0,0.0,0.0,0.0,0.0,0.0,0.0,0.0,0.0,0.0,0.0,0.0,0.0,0.0,0.0,0.0,0.0,0.0,0.0,0.0,0.0,0.0,0.0,0.0,0.0,0.0,0.0,0.0,0.0,0.0,0.0,0.0,0.0,0.0,0.0,0.0,0.0,0.0,0.0,0.0,0.0,0.0,0.0,0.0,0.0,0.0,0.0,0.0,0.0,0.0,0.0,0.0,0.0,0.0,0.0,0.0,0.0,0.0,0.0,0.0,0.0,0.0,0.0,0.0,0.0,0.0,0.0,0.0,0.0,0.0,0.0,0.0,0.0,0.0,0.0,0.0,0.0,0.0,0.0,0.0,0.0,0.0,0.0,0.0,0.0,0.0,0.0,0.0,0.0,0.0,0.0,0.0,0.0,0.0,0.0,0.0,0.0,0.0,0.0,0.0,0.0,0.0,0.0,0.0,0.0,0.0,0.0,0.0,0.0,0.0,0.0,0.0,0.0,0.0,0.0,0.0,0.0,0.0,0.0,0.0,0.0,0.0,0.0,0.0,0.0,0.0,0.0,0.0,0.0,0.0,0.0,0.0,0.0,0.0,0.0,0.0,0.0,0.0,0.0,0.0,0.0,0.0,0.0,0.0,0.0,0.0,0.0,0.0,0.0,0.0,0.0,0.0,0.0,0.0,0.0,0.0,0.0,0.0,0.0,0.0,0.0,0.0,0.0,0.0,0.0,0.0,0.0,0.0,0.0,0.0,0.0,0.0,0.0,0.0,0.0,0.0,0.0,0.0,0.0,0.0,0.0,0.0,0.0,0.0,0.0,0.0,0.0,0.0,0.0,0.0,0.0,0.0,0.0,0.0,0.0,0.0,0.0,0.0,0.0,0.0,0.0,0.0,0.0,0.0,0.0,0.0,0.0,0.0,0.0,0.0,0.0,0.0,0.0,0.0,0.0,0.0,0.0,0.0,0.0,0.0,0.0,0.0,0.0,0.0,0.0,0.0,0.0,0.0,0.0,0.0,0.0,0.0,0.0,0.0,0.0,0.0,0.0,0.0,0.0,0.0,0.0,0.0,0.0,0.0,0.0,0.0,0.0,0.0,0.0,0.0,0.0,0.0,0.0,0.0,0.0,0.0,0.0,0.0,0.0,0.0,0.0,0.0,0.0,0.0,0.0,0.0,0.0,0.0,0.0,0.0,0.0,0.0,0.0,0.0,0.0,0.0,0.0,0.0,0.0,0.0,0.0,0.0,0.0,0.0,0.0,0.0,0.0,0.0,0.0,0.0,0.0,0.0,0.0,0.0,0.0,0.0,0.0,0.0,0.0,0.0,0.0,0.0,0.0,0.0,0.0,0.0,0.0,0.0,0.0,0.0,0.0,0.0,0.0,0.0,0.0,0.0,0.0,0.0,0.0,0.0,0.0,0.0,0.0,0.0,0.0,0.0,0.0,0.0,0.0,0.0,0.0,0.0,0.0,0.0,0.0,0.0,0.0,0.0,0.0,0.0,0.0,0.0,0.0,0.0,0.0,0.0,0.0,0.0,0.0,0.0,0.0,0.0,0.0,0.0,0.0,0.0,0.0,0.0,0.0,0.0,0.0,0.0,0.0,0.0,0.0,0.0,0.0,0.0,0.0,0.0,0.0,0.0,0.0,0.0,0.0,0.0,0.0,0.0,0.0,0.0,0.0,0.0,0.0,0.0,0.0,0.0,0.0,0.0,0.0,0.0,0.0,0.0,0.0,0.0,0.0,0.0,0.4955,0.4855,0.0,0.0,0.0,0.0,0.0,0.0,0.0,0.0,0.0,0.0,0.0,0.0,0.0,0.0,0.0,0.0,0.0,0.0,0.0,0.0,0.0,0.0,0.0,0.0,0.0,0.0,0.0,0.0,0.0,0.0,0.0,0.0,0.0,0.0,0.0,0.0,0.0,0.0,0.0,0.0,0.0,0.0,0.0,0.0,0.0,0.0,0.0,0.0,0.0,0.0,0.0,0.0,0.0,0.0,0.0,0.0,0.0,0.0,0.0,0.0,0.0,0.0,0.0,0.0,0.0,0.0,0.0,0.0,0.0,0.0,0.0,0.0,0.0,0.0,0.0,0.0,0.0,0.0,0.0,0.0,0.0,0.0,0.0,0.0,0.0,0.0,0.0,0.0,0.0,0.0,0.0,0.0,0.0,0.0,0.0,0.0,0.0,0.0,0.0,0.0,0.0,0.0,0.0,0.0,0.0,0.0,0.0,0.0,0.0,0.0,0.0,0.0,0.0,0.0,0.543,0.5199,0.0,0.0,0.0,0.0,0.0,0.0,0.0,0.0,0.0,0.0,0.0,0.0,0.0,0.0,0.0,0.0,0.0,0.0,0.0,0.0,0.0,0.0,0.0,0.0,0.0,0.0,0.0,0.0,0.0,0.0,0.0,0.0,0.0,0.0,0.0,0.0,0.0,0.0,0.0,0.0,0.0,0.0,0.0,0.0,0.0,0.0,0.0,0.0,0.0,0.0,0.0,0.0,0.0,0.0,0.0,0.0,0.0,0.0,0.0,0.0,0.0,0.0,0.0,0.0,0.0,0.0,0.0,0.0,0.0,0.0,0.0,0.0,0.0,0.0,0.0,0.0,0.0,0.0,0.0,0.0,0.0,0.0,0.0,0.0,0.0,0.0,0.0,0.0,0.0,0.0,0.0,0.0,0.0,0.0,0.0,0.0,0.0,0.0,0.0,0.0,0.0,0.0,0.0,0.0,0.0,0.0,0.0,0.0,0.6362,0.6453,0.6385,0.6641,0.6709,0.6583,0.6074,0.5746,0.5549,0.5494,0.0,0.0,0.0,0.0,0.0,0.0,0.0,0.0,0.0,0.0,0.0,0.0,0.0,0.0,0.0,0.0,0.0,0.0,0.0,0.0,0.0,0.0,0.0,0.0,0.0,0.0,0.0,0.0,0.0,0.0,0.0,0.0,0.0,0.0,0.0,0.0,0.0,0.0,0.5588,0.5381,0.5339,0.5433,0.0,0.0,0.0,0.0,0.0,0.0,0.0,0.0,0.0,0.0,0.0,0.0,0.0,0.0,0.0,0.0,0.0,0.0,0.0,0.0,0.0,0.0,0.0,0.0,0.0,0.0,0.0,0.0,0.0,0.0,0.0,0.0,0.0,0.0,0.0,0.0,0.0,0.0,0.0,0.0,0.0,0.0,0.0,0.0,0.5215,0.4906,0.0,0.0,0.0,0.0,0.0,0.0,0.0,0.0,0.0,0.0,0.0,0.0,0.0,0.6273,0.6491,0.6766,0.6738,0.644,0.6988,0.7042,0.6654,0.6928,0.7028,0.7026,0.6948,0.0,0.616,0.5872,0.0,0.0,0.0,0.0,0.0,0.0,0.0,0.0,0.0,0.0,0.0,0.0,0.0,0.0,0.0,0.0,0.0,0.0,0.0,0.0,0.0,0.0,0.0,0.0,0.0,0.0,0.0,0.0,0.0,0.0,0.0,0.0,0.0,0.0,0.0,0.0,0.5264,0.5374,0.5367,0.5319,0.5269,0.5221,0.5,0.4956,0.5021,0.4763,0.0,0.0,0.0,0.0,0.0,0.0,0.0,0.0,0.0,0.0,0.0,0.0,0.0,0.0,0.0,0.0,0.0,0.0,0.0,0.0,0.0,0.0,0.0,0.0,0.0,0.0,0.0,0.0,0.0,0.0,0.0,0.0,0.0,0.0,0.0,0.0,0.0,0.0,0.0,0.5406,0.5515,0.5219,0.5504,0.565,0.0,0.0,0.0,0.0,0.0,0.0,0.0,0.0,0.0,0.6387,0.6736,0.6967,0.7097,0.7292,0.7428,0.7508,0.7523,0.7493,0.7419,0.7318,0.7265,0.7279,0.7265,0.7008,0.6563,0.6381,0.621,0.6073,0.0,0.0,0.0,0.0,0.6093,0.6083,0.0,0.0,0.0,0.0,0.0,0.0,0.0,0.0,0.0,0.0,0.0,0.0,0.0,0.0,0.0,0.166,0.0,0.0,0.0,0.0,0.0,0.0,0.0,0.0,0.0,0.0,0.0,0.0,0.5506,0.5513,0.5374,0.5476,0.5414,0.522,0.5193,0.5106,0.4967,0.4775,0.4592,0.0,0.0,0.0,0.0,0.0,0.0,0.0,0.0,0.0,0.0,0.0,0.0,0.0,0.0,0.0,0.0,0.0,0.0,0.0,0.0,0.0,0.0,0.0,0.0,0.0,0.0,0.0,0.0,0.0,0.0,0.0,0.0,0.0,0.0,0.0,0.0,0.0,0.0,0.5637,0.5797,0.544,0.5857,0.6093,0.0,0.0,0.0,0.0,0.0,0.0,0.677,0.701,0.7095,0.6989,0.7346,0.7529,0.7498,0.7606,0.7824,0.8173,0.7773,0.7712,0.7878,0.7593,0.7425,0.7408,0.7406,0.7194,0.6856,0.6826,0.6643,0.6401,0.6447,0.6474,0.6515,0.6583,0.6525,0.6428,0.0,0.0,0.0,0.0,0.0,0.0,0.0,0.0,0.0,0.0,0.0,0.0,0.0,0.0,0.2837,0.2644,0.2731,0.2404,0.0,0.0,0.0,0.0,0.0,0.0,0.0,0.0,0.0,0.5859,0.5812,0.5916,0.6153,0.6093,0.5992,0.5852,0.5721,0.5478,0.5157,0.4845,0.4726,0.4742,0.0,0.0,0.0,0.0,0.0,0.0,0.0,0.0,0.0,0.0,0.0,0.0,0.0,0.0,0.0,0.0,0.0,0.0,0.0,0.0,0.0,0.0,0.0,0.0,0.0,0.0,0.0,0.0,0.0,0.0,0.0,0.0,0.0,0.0,0.0,0.0,0.0,0.0,0.0,0.5467,0.6151,0.0,0.0,0.0,0.0,0.684,0.697,0.7205,0.7526,0.7685,0.7746,0.774,0.7901,0.7917,0.7776,0.7785,0.78,0.7819,0.7664,0.7609,0.7621,0.7589,0.7513,0.7392,0.7402,0.725,0.7003,0.706,0.6914,0.6693,0.682,0.6955,0.7038,0.6931,0.6795,0.669,0.0,0.0,0.0,0.0,0.0,0.0,0.0,0.0,0.0,0.0,0.0,0.0,0.0,0.2852,0.3808,0.3738,0.4234,0.4183,0.3318,0.0,0.0,0.0,0.0,0.0,0.0,0.0,0.5542,0.5966,0.5975,0.6052,0.614,0.6111,0.6085,0.6018,0.5977,0.5844,0.5619,0.5201,0.4934,0.4779,0.4628,0.4514,0.0,0.0,0.0,0.0,0.0,0.0,0.0,0.0,0.0,0.0,0.0,0.0,0.0,0.0,0.0,0.0,0.0,0.0,0.0,0.0,0.0,0.0,0.0,0.0,0.0,0.0,0.0,0.0,0.0,0.0,0.0,0.0,0.0,0.0,0.0,0.0,0.0,0.6498,0.7044,0.0,0.7043,0.7217,0.7421,0.7604,0.7649,0.777,0.7972,0.8044,0.8051,0.8069,0.8177,0.8245,0.818,0.8005,0.7962,0.8047,0.7663,0.7525,0.7577,0.7334,0.719,0.7142,0.7241,0.7128,0.6904,0.718,0.7073,0.676,0.6806,0.6861,0.6895,0.6851,0.6795,0.6774,0.0,0.0,0.0,0.0,0.0,0.0,0.0,0.0,0.0,0.0,0.0,0.2038,0.228,0.3836,0.486,0.4853,0.5232,0.512,0.4277,0.0,0.0,0.0,0.0,0.0,0.0,0.5538,0.5782,0.6093,0.614,0.6168,0.6203,0.6203,0.6184,0.6172,0.6172,0.6102,0.5945,0.5646,0.5118,0.4455,0.4002,0.3996,0.4244,0.0,0.0,0.0,0.0,0.0,0.0,0.0,0.0,0.0,0.0,0.0,0.0,0.0,0.0,0.0,0.0,0.0,0.0,0.0,0.0,0.0,0.0,0.0,0.0,0.0,0.0,0.0,0.0,0.0,0.0,0.0,0.0,0.0,0.0,0.6873,0.7183,0.7318,0.7593,0.7759,0.7741,0.7758,0.7845,0.8063,0.8065,0.8144,0.8332,0.8303,0.8255,0.8211,0.8271,0.8257,0.8172,0.7999,0.7932,0.7973,0.7558,0.7398,0.7462,0.7188,0.7048,0.7007,0.7083,0.6998,0.6822,0.7081,0.705,0.681,0.6888,0.6927,0.6927,0.6927,0.6879,0.6804,0.0,0.0,0.0,0.0,0.0,0.0,0.0,0.0,0.0,0.0,0.2328,0.3313,0.4036,0.5239,0.5989,0.5921,0.5602,0.5054,0.4189,0.3704,0.0,0.0,0.0,0.0,0.5403,0.5624,0.5895,0.6298,0.6298,0.6331,0.6412,0.6414,0.6358,0.6298,0.6306,0.6238,0.6097,0.6076,0.5237,0.3827,0.2647,0.2822,0.3776,0.0,0.0,0.0,0.0,0.0,0.0,0.0,0.0,0.0,0.0,0.0,0.0,0.0,0.0,0.0,0.0,0.0,0.0,0.0,0.0,0.0,0.0,0.0,0.0,0.0,0.0,0.0,0.0,0.0,0.0,0.0,0.0,0.0,0.6947,0.7318,0.7664,0.7799,0.7755,0.7792,0.7998,0.7848,0.7874,0.8187,0.8214,0.8329,0.8581,0.8451,0.8325,0.8206,0.8119,0.7972,0.7706,0.7703,0.7644,0.7495,0.737,0.7279,0.7221,0.7218,0.7128,0.6997,0.7018,0.6923,0.6815,0.6809,0.6806,0.6837,0.7076,0.7172,0.7194,0.7194,0.702,0.6775,0.0,0.0,0.0,0.0,0.0,0.0,0.0,0.0,0.0,0.0,0.3059,0.3921,0.4204,0.5435,0.6168,0.6063,0.5686,0.5379,0.5133,0.0,0.0,0.0,0.0,0.0,0.5902,0.5956,0.6121,0.6366,0.6366,0.6379,0.6412,0.6501,0.6479,0.6374,0.6575,0.6537,0.627,0.5602,0.5016,0.4493,0.3827,0.3671,0.3854,0.0,0.0,0.0,0.0,0.0,0.0,0.0,0.0,0.0,0.0,0.0,0.0,0.0,0.0,0.0,0.0,0.0,0.0,0.0,0.0,0.0,0.0,0.0,0.0,0.0,0.0,0.0,0.0,0.0,0.0,0.0,0.729,0.7592,0.7553,0.7824,0.8062,0.8088,0.8167,0.8217,0.8294,0.8322,0.8402,0.8475,0.8447,0.8423,0.8466,0.8275,0.8127,0.7975,0.7975,0.7914,0.7853,0.7741,0.7684,0.7649,0.7498,0.7422,0.7415,0.7326,0.724,0.7208,0.7174,0.7117,0.7078,0.6997,0.6934,0.6947,0.692,0.6855,0.6774,0.6774,0.6664,0.6509,0.0,0.0,0.0,0.0,0.0,0.0,0.0,0.0,0.0,0.0,0.3576,0.4288,0.4749,0.5639,0.6148,0.5953,0.5724,0.5478,0.5227,0.0,0.0,0.0,0.0,0.5769,0.6102,0.6181,0.6301,0.6488,0.6488,0.6515,0.6566,0.6636,0.6631,0.6569,0.6738,0.6722,0.6541,0.5987,0.5452,0.4954,0.4671,0.4438,0.4252,0.4051,0.4417,0.4947,0.4294,0.4337,0.4631,0.3969,0.0,0.0,0.0,0.0,0.0,0.0,0.0,0.0,0.0,0.0,0.0,0.0,0.0,0.0,0.0,0.0,0.0,0.0,0.0,0.0,0.0,0.0,0.0,0.0,0.767,0.7945,0.8008,0.8093,0.8236,0.8417,0.8375,0.8366,0.8518,0.8441,0.8392,0.8392,0.8344,0.8302,0.8265,0.819,0.8098,0.8027,0.8003,0.7979,0.7979,0.7862,0.7747,0.7701,0.763,0.7568,0.7484,0.7362,0.7308,0.73,0.7234,0.721,0.7204,0.7111,0.7084,0.7065,0.0,0.0,0.0,0.0,0.655,0.6479,0.0,0.0,0.0,0.0,0.0,0.0,0.0,0.0,0.0,0.0,0.0,0.4512,0.536,0.5789,0.5939,0.5708,0.5664,0.5423,0.0,0.0,0.0,0.5433,0.576,0.6007,0.6143,0.6339,0.6504,0.6615,0.6615,0.6695,0.6801,0.6817,0.6815,0.6804,0.6844,0.6847,0.6825,0.685,0.6284,0.5408,0.5408,0.5167,0.4808,0.4607,0.4703,0.4911,0.4552,0.4025,0.3486,0.3332,0.0,0.0,0.0,0.0,0.0,0.0,0.0,0.0,0.0,0.0,0.0,0.0,0.0,0.0,0.0,0.0,0.0,0.0,0.0,0.0,0.0,0.0,0.0,0.0,0.8383,0.848,0.848,0.8472,0.8566,0.8701,0.8417,0.8329,0.8617,0.8325,0.8107,0.8107,0.8118,0.8115,0.8085,0.8182,0.0,0.0,0.0,0.8085,0.8085,0.7963,0.7851,0.7722,0.7722,0.7663,0.7554,0.7403,0.7349,0.734,0.7275,0.7223,0.7223,0.7209,0.7196,0.7188,0.691,0.6823,0.6806,0.6658,0.6615,0.6599,0.0,0.0,0.0,0.0,0.0,0.0,0.0,0.0,0.0,0.4294,0.4616,0.489,0.5076,0.5397,0.5591,0.5545,0.5386,0.5243,0.0,0.0,0.5322,0.5779,0.608,0.6323,0.651,0.6657,0.6744,0.6766,0.6766,0.6779,0.6804,0.6904,0.6896,0.6815,0.7075,0.7127,0.6961,0.7124,0.6984,0.6651,0.6651,0.5965,0.4951,0.4796,0.5263,0.5887,0.4977,0.5218,0.5844,0.482,0.4712,0.513,0.5679,0.0,0.0,0.0,0.0,0.0,0.0,0.0,0.0,0.0,0.0,0.0,0.0,0.0,0.0,0.0,0.0,0.0,0.0,0.0,0.0,0.993,1.0472,1.0472,0.9632,1.0316,1.0273,0.8522,0.8238,0.8233,0.8297,0.8214,0.8169,0.8169,0.8291,0.8261,0.8096,0.8263,0.8291,0.8126,0.8099,0.8085,0.8085,0.7963,0.7889,0.787,0.787,0.0,0.7829,0.7684,0.763,0.7625,0.7502,0.7448,0.744,0.7313,0.7241,0.7196,0.7032,0.695,0.6934,0.6812,0.6766,0.6763,0.0,0.0,0.0,0.0,0.0,0.0,0.0,0.0,0.0,0.0,0.4702,0.4857,0.4898,0.51,0.5215,0.511,0.501,0.0,0.0,0.548,0.573,0.6127,0.6404,0.6589,0.6709,0.6771,0.6831,0.6893,0.6893,0.6923,0.7007,0.707,0.7065,0.7016,0.72,0.724,0.7171,0.7322,0.7297,0.716,0.716,0.6686,0.5991,0.586,0.5788,0.5675,0.5146,0.499,0.4949,0.431,0.4472,0.4994,0.5232,0.5312,0.5408,0.0,0.0,0.0,0.0,0.0,0.0,0.0,0.0,0.0,0.0,0.0,0.0,0.0,0.0,0.8181,0.8958,0.0,1.0217,1.1018,1.134,1.1301,1.0763,1.0821,1.0244,0.8501,0.883,0.8994,0.8443,0.8329,0.8294,0.8294,0.835,0.8337,0.8155,0.8318,0.8334,0.8149,0.8118,0.8085,0.8085,0.7963,0.7903,0.7903,0.7903,0.7903,0.7897,0.769,0.7611,0.7603,0.7452,0.7397,0.7395,0.7332,0.7266,0.7204,0.7119,0.7098,0.7084,0.6937,0.6893,0.6885,0.0,0.0,0.0,0.0,0.0,0.0,0.0,0.0,0.0,0.0,0.0,0.4663,0.4703,0.482,0.4841,0.0,0.0,0.0,0.0,0.5762,0.6072,0.6428,0.6706,0.6836,0.6836,0.6883,0.6942,0.7046,0.7046,0.7092,0.721,0.721,0.7196,0.7223,0.7317,0.7357,0.7387,0.7535,0.7487,0.7376,0.0,0.0,0.704,0.6918,0.6305,0.5494,0.5475,0.483,0.3975,0.3971,0.43,0.4715,0.4741,0.5297,0.5889,0.5735,0.6102,0.0,0.0,0.0,0.0,0.0,0.0,0.0,0.0,0.0,0.7366,0.7709,0.8494,0.9365,1.0113,1.0795,1.1402,1.1807,1.1893,1.1749,1.1394,1.0856,1.0003,0.8593,0.9287,0.9546,0.8687,0.8505,0.8451,0.8451,0.8451,0.8356,0.821,0.834,0.8372,0.8174,0.8127,0.811,0.8085,0.7963,0.7903,0.7903,0.7903,0.7903,0.7894,0.7652,0.7568,0.7581,0.743,0.7378,0.7378,0.7235,0.7121,0.7025,0.6934,0.686,0.6838,0.6859,0.6852,0.6836,0.0,0.0,0.0,0.0,0.0,0.0,0.0,0.0,0.0,0.0,0.0,0.0,0.0,0.0,0.0,0.0,0.0,0.0,0.5664,0.5811,0.6111,0.6553,0.6834,0.6991,0.6991,0.714,0.723,0.7191,0.7191,0.7196,0.721,0.721,0.7239,0.7292,0.7416,0.7557,0.7668,0.7782,0.0,0.0,0.0,0.0,0.7257,0.7188,0.6929,0.66,0.6495,0.6279,0.6075,0.6062,0.5466,0.4892,0.5987,0.5694,0.5131,0.6025,0.0,0.6065,0.6004,0.617,0.6525,0.7156,0.7207,0.7249,0.0,0.0,0.82,0.9213,0.9539,1.0175,1.1962,1.2393,1.2522,1.2595,1.2745,1.2253,1.0594,1.109,1.0862,0.8834,0.8712,0.872,0.862,0.8576,0.8568,0.8568,0.8568,0.847,0.8215,0.8446,0.8448,0.8115,0.8166,0.8163,0.8085,0.7963,0.7903,0.7903,0.7903,0.7903,0.7897,0.7739,0.7736,0.7856,0.7709,0.766,0.76,0.7003,0.6645,0.6441,0.5958,0.5715,0.5676,0.6195,0.6384,0.6287,0.0,0.0,0.0,0.0,0.0,0.0,0.0,0.0,0.0,0.0,0.0,0.0,0.0,0.0,0.0,0.0,0.0,0.0,0.5502,0.5919,0.6298,0.6709,0.657,0.6525,0.6586,0.6677,0.67,0.668,0.7015,0.721,0.721,0.721,0.7209,0.7239,0.7432,0.7516,0.7608,0.7823,0.0,0.0,0.0,0.0,0.7217,0.7128,0.6907,0.6664,0.6612,0.6499,0.0,0.0,0.5909,0.561,0.6237,0.602,0.5607,0.59,0.613,0.0,0.6633,0.6639,0.6702,0.7209,0.7368,0.751,0.7918,0.8036,0.8388,0.9566,1.0307,1.1214,1.2683,1.3425,1.3635,1.3116,1.3634,1.3424,1.142,1.1446,1.1095,0.9488,0.8705,0.8391,0.8568,0.8527,0.8516,0.8581,0.8587,0.8484,0.8215,0.8296,0.8247,0.7987,0.7997,0.8,0.7979,0.7927,0.7903,0.79,0.7834,0.7771,0.7766,0.7576,0.7554,0.7638,0.7272,0.713,0.7065,0.6346,0.5975,0.5849,0.5575,0.5439,0.5421,0.5643,0.5731,0.5663,0.0,0.0,0.0,0.0,0.0,0.0,0.0,0.0,0.0,0.0,0.0,0.0,0.0,0.0,0.0,0.0,0.0,0.0,0.0,0.5797,0.6241,0.6966,0.6426,0.0,0.626,0.632,0.6266,0.6094,0.6548,0.6758,0.6728,0.6728,0.6812,0.6987,0.7164,0.7362,0.7581,0.7752,0.0,0.0,0.0,0.0,0.7185,0.6915,0.6681,0.6475,0.651,0.6369,0.0,0.0,0.5937,0.5958,0.6083,0.6059,0.5966,0.5838,0.6064,0.6421,0.678,0.681,0.684,0.7205,0.7511,0.7774,0.7924,0.8115,0.8589,0.9688,1.0555,1.1585,1.2959,1.3765,1.4041,1.339,1.3538,1.3124,1.1271,1.0507,0.9813,0.892,0.8043,0.7611,0.7915,0.8172,0.8299,0.825,0.839,0.8301,0.7909,0.793,0.7775,0.7355,0.738,0.738,0.735,0.735,0.7335,0.7304,0.7228,0.7175,0.7139,0.6942,0.6912,0.6966,0.6574,0.6414,0.64,0.5626,0.5294,0.5234,0.4979,0.4878,0.4852,0.4792,0.4889,0.5004,0.0,0.0,0.0,0.0,0.0,0.0,0.0,0.0,0.0,0.0,0.0,0.0,0.0,0.0,0.0,0.0,0.0,0.0,0.0,0.54,0.5691,0.7394,0.6658,0.619,0.6202,0.6407,0.6219,0.5635,0.5635,0.5619,0.5559,0.5559,0.5875,0.6422,0.6563,0.7024,0.7695,0.7703,0.7703,0.0,0.0,0.0,0.713,0.6607,0.6282,0.6142,0.626,0.0,0.0,0.0,0.5524,0.5545,0.5667,0.5724,0.0,0.601,0.5996,0.5928,0.6014,0.6316,0.6728,0.7186,0.7696,0.8101,0.8098,0.8413,0.8942,0.9825,1.013,1.0885,1.2902,1.3337,1.3337,1.3313,1.1915,1.0409,0.9237,0.7565,0.6438,0.6311,0.611,0.6044,0.6258,0.7376,0.7893,0.737,0.7892,0.7904,0.7185,0.7248,0.692,0.6004,0.6087,0.6091,0.597,0.5968,0.5926,0.5874,0.5872,0.5824,0.5766,0.576,0.5729,0.5645,0.5647,0.5698,0.5767,0.4949,0.4637,0.4561,0.3824,0.352,0.347,0.3469,0.3879,0.4319,0.0,0.0,0.0,0.0,0.0,0.0,0.0,0.0,0.0,0.0,0.0,0.0,0.0,0.0,0.0,0.0,0.0,0.0,0.0,0.5939,0.6459,0.7386,0.7148,0.6955,0.6872,0.7058,0.6704,0.58,0.6923,0.675,0.5382,0.6097,0.6193,0.573,0.5884,0.6265,0.6824,0.6517,0.6604,0.6938,0.0,0.0,0.6473,0.6356,0.6127,0.5803,0.0,0.0,0.0,0.0,0.5226,0.5323,0.5505,0.0,0.554,0.5759,0.5877,0.601,0.6513,0.6757,0.6983,0.745,0.7772,0.8003,0.808,0.8246,0.866,0.9659,0.9808,1.0142,1.151,1.1414,1.0879,1.0208,0.9958,0.9373,0.8055,0.7896,0.7718,0.7263,0.705,0.6634,0.5806,0.6335,0.6674,0.6652,0.7239,0.7258,0.6488,0.6892,0.6786,0.5941,0.5937,0.591,0.5825,0.5823,0.581,0.5719,0.5687,0.5611,0.5496,0.5588,0.5614,0.559,0.5258,0.514,0.5092,0.4319,0.3956,0.385,0.3544,0.3429,0.3407,0.334,0.3495,0.3703,0.0,0.0,0.0,0.0,0.0,0.0,0.0,0.0,0.0,0.0,0.0,0.0,0.0,0.0,0.0,0.0,0.0,0.0,0.0,0.0,0.653,0.7425,0.7119,0.6861,0.671,0.6882,0.6561,0.5723,0.687,0.6596,0.5039,0.5799,0.5741,0.499,0.5135,0.5522,0.603,0.5864,0.5976,0.625,0.6184,0.6046,0.5879,0.5891,0.5714,0.0,0.0,0.0,0.0,0.0,0.4928,0.508,0.5174,0.5352,0.5532,0.5664,0.5914,0.6271,0.6852,0.7063,0.7196,0.7611,0.7826,0.7987,0.8066,0.7988,0.8047,0.8715,0.8522,0.8567,0.9566,0.9505,0.9152,0.874,0.8611,0.8191,0.7112,0.6911,0.6755,0.6381,0.6436,0.6092,0.5022,0.5286,0.5601,0.5745,0.6412,0.6466,0.5718,0.606,0.5937,0.5204,0.5178,0.5168,0.5121,0.5121,0.5065,0.4986,0.4904,0.4837,0.4761,0.4838,0.4901,0.4904,0.4588,0.4444,0.4332,0.3836,0.3542,0.3428,0.3343,0.3321,0.3319,0.3301,0.3307,0.3321,0.0,0.0,0.0,0.0,0.0,0.0,0.0,0.0,0.0,0.0,0.0,0.0,0.0,0.0,0.0,0.0,0.0,0.0,0.0,0.0,0.0,0.7486,0.664,0.603,0.5813,0.5933,0.5786,0.534,0.5578,0.5259,0.4428,0.4665,0.4546,0.415,0.4344,0.4786,0.5372,0.5735,0.5763,0.5577,0.5766,0.0,0.5438,0.5258,0.0,0.0,0.0,0.0,0.0,0.0,0.4654,0.4825,0.4759,0.5186,0.5732,0.5751,0.6163,0.6692,0.6945,0.7179,0.7384,0.7652,0.7913,0.8083,0.8038,0.7649,0.7219,0.7058,0.6464,0.6237,0.0,0.0,0.8014,0.8651,0.7662,0.6704,0.6371,0.4788,0.3755,0.0,0.0,0.0,0.0,0.4427,0.4742,0.4756,0.543,0.5563,0.4889,0.4826,0.452,0.3909,0.3886,0.3884,0.3882,0.3878,0.3817,0.3702,0.3644,0.3587,0.3587,0.3591,0.3652,0.3707,0.3707,0.367,0.3578,0.3518,0.3396,0.3233,0.3201,0.318,0.3161,0.3244,0.3256,0.3209,0.0,0.0,0.0,0.0,0.0,0.0,0.0,0.0,0.0,0.0,0.0,0.0,0.0,0.0,0.0,0.0,0.0,0.0,0.0,0.0,0.0,0.0,0.0,0.0,0.0,0.0,0.0,0.0,0.0,0.4948,0.3258,0.4104,0.4057,0.0,0.3557,0.402,0.4583,0.4488,0.4661,0.4993,0.0,0.4973,0.4923,0.0,0.0,0.0,0.0,0.0,0.0,0.0,0.0,0.528,0.5412,0.5706,0.6048,0.629,0.663,0.6964,0.7293,0.7494,0.7644,0.7821,0.7971,0.7915,0.7284,0.7051,0.6802,0.6109,0.5637,0.5389,0.5608,0.5346,0.5179,0.5378,0.4963,0.4767,0.5162,0.4832,0.0,0.5179,0.0,0.5732,0.4621,0.5065,0.5068,0.4189,0.4717,0.4818,0.4184,0.456,0.4504,0.3846,0.3831,0.3801,0.3754,0.3709,0.367,0.3639,0.3595,0.3587,0.3589,0.3662,0.3692,0.3707,0.3707,0.3647,0.3515,0.3456,0.2994,0.2386,0.2983,0.2826,0.2372,0.2993,0.3247,0.3189,0.0,0.0,0.0,0.0,0.0,0.0,0.0,0.0,0.0,0.0,0.0,0.0,0.0,0.0,0.0,0.0,0.0,0.0,0.0,0.0,0.0,0.0,0.0,0.0,0.0,0.0,0.0,0.0,0.0,0.0,0.0,0.4128,0.394,0.3011,0.3409,0.366,0.383,0.0,0.0,0.0,0.0,0.0,0.0,0.0,0.0,0.0,0.0,0.0,0.0,0.0,0.0,0.5502,0.5773,0.6086,0.638,0.669,0.6989,0.7274,0.7529,0.7687,0.7793,0.7886,0.7699,0.7378,0.6828,0.63,0.571,0.5121,0.4778,0.4501,0.4218,0.4213,0.4123,0.3772,0.3781,0.3933,0.4201,0.4276,0.4468,0.0,0.5473,0.0,0.4449,0.4934,0.4911,0.398,0.4221,0.4251,0.392,0.4164,0.4158,0.3799,0.3773,0.3742,0.3707,0.3647,0.3587,0.3587,0.3587,0.3587,0.3589,0.3651,0.3652,0.3598,0.3598,0.353,0.339,0.2988,0.2512,0.2017,0.2118,0.1865,0.1538,0.1992,0.2183,0.2123,0.0,0.0,0.0,0.0,0.0,0.0,0.0,0.0,0.0,0.0,0.0,0.0,0.0,0.0,0.0,0.0,0.0,0.0,0.0,0.0,0.0,0.0,0.0,0.0,0.0,0.0,0.0,0.0,0.0,0.0,0.0,0.0,0.0,0.0,0.0,0.0,0.0,0.0,0.0,0.0,0.0,0.0,0.0,0.0,0.0,0.0,0.0,0.0,0.0,0.0,0.5586,0.5688,0.6092,0.6439,0.6737,0.7008,0.7298,0.757,0.769,0.7735,0.7775,0.7759,0.7188,0.6603,0.6377,0.545,0.4544,0.4141,0.3967,0.3699,0.3179,0.3697,0.3969,0.3217,0.0,0.3751,0.3538,0.3561,0.3681,0.387,0.4423,0.456,0.3952,0.4452,0.4537,0.3938,0.3871,0.3865,0.3865,0.3765,0.3728,0.3773,0.3722,0.3695,0.3695,0.3643,0.3583,0.3575,0.3491,0.3432,0.3425,0.3425,0.3314,0.3184,0.3259,0.3201,0.293,0.2224,0.1843,0.1613,0.1033,0.0731,0.0655,0.0756,0.0806,0.0781,0.0,0.0,0.0,0.0,0.0,0.0,0.0,0.0,0.0,0.0,0.0,0.0,0.0,0.0,0.0,0.0,0.0,0.0,0.0,0.0,0.0,0.0,0.0,0.0,0.0,0.0,0.0,0.0,0.0,0.0,0.0,0.0,0.0,0.0,0.0,0.0,0.0,0.0,0.0,0.0,0.0,0.0,0.0,0.0,0.0,0.0,0.0,0.0,0.0,0.0,0.6019,0.6306,0.6717,0.7005,0.7232,0.7505,0.7622,0.7695,0.784,0.7487,0.7052,0.7,0.6448,0.5718,0.501,0.4889,0.0,0.3509,0.3529,0.3577,0.3029,0.316,0.3267,0.3115,0.3319,0.3505,0.3581,0.3652,0.3726,0.0,0.4411,0.4555,0.3889,0.4411,0.4521,0.3873,0.3768,0.3739,0.3739,0.3718,0.3688,0.3648,0.3636,0.3604,0.3604,0.3593,0.3563,0.3512,0.2855,0.2508,0.2446,0.2446,0.2066,0.1469,0.2081,0.1955,0.1294,0.1096,0.0632,0.0076,0.0605,0.0403,-0.0101,0.0555,0.0806,0.0706,0.0,0.0,0.0,0.0,0.0,0.0,0.0,0.0,0.0,0.0,0.2657,0.2896,0.0,0.0,0.0,0.0,0.0,0.0,0.0,0.0,0.0,0.0,0.0,0.0,0.0,0.0,0.0,0.0,0.0,0.0,0.0,0.0,0.0,0.0,0.0,0.0,0.0,0.0,0.0,0.0,0.0,0.0,0.0,0.0,0.0,0.0,0.0,0.0,0.0,0.0,0.6016,0.649,0.6967,0.7195,0.7354,0.763,0.7462,0.7215,0.735,0.6853,0.6315,0.6303,0.5699,0.501,0.452,0.0,0.0,0.3085,0.3292,0.3438,0.2943,0.3152,0.3341,0.3088,0.3147,0.3286,0.3432,0.3526,0.3647,0.374,0.4071,0.415,0.3829,0.4092,0.4137,0.3783,0.3724,0.3707,0.3707,0.3677,0.3645,0.3589,0.3556,0.354,0.354,0.3511,0.3264,0.2831,0.2428,0.2014,0.1571,0.1571,0.1351,0.0971,0.1327,0.1237,0.0817,0.0354,-0.005,-0.0404,-0.0429,-0.0681,-0.0985,-0.058,-0.0454,-0.0505,0.0,0.0,0.0,0.0,0.0,0.0,0.0,0.2514,0.2333,0.186,0.1804,0.2167,0.3107,0.326,0.0,0.0,0.0,0.0,0.0,0.0,0.0,0.0,0.0,0.0,0.0,0.0,0.0,0.2592,0.2574,0.0,0.0,0.0,0.0,0.0,0.3681,0.0,0.0,0.0,0.0,0.0,0.0,0.0,0.0,0.0,0.0,0.0,0.0,0.0,0.0,0.0,0.5815,0.6301,0.6808,0.7097,0.7294,0.7322,0.709,0.6837,0.6827,0.6298,0.5743,0.5734,0.5029,0.4339,0.4231,0.3801,0.0,0.3127,0.3388,0.3538,0.3151,0.3306,0.3433,0.0,0.3109,0.3124,0.3258,0.3382,0.3489,0.3652,0.371,0.0,0.3758,0.3759,0.3733,0.3673,0.3656,0.3655,0.3667,0.3582,0.3549,0.3549,0.3503,0.3478,0.3478,0.3246,0.2819,0.2172,0.1827,0.1321,0.0711,0.0711,0.0575,0.0387,0.0541,0.0486,0.0227,-0.0404,-0.0657,-0.0732,-0.1364,-0.1592,-0.1592,-0.1592,-0.1592,-0.1592,0.0,0.0,0.0,0.0,0.0,0.0,0.0,0.1888,0.186,0.1804,0.1804,0.1846,0.1958,0.2183,0.0,0.0,0.0,0.0,0.0,0.0,0.0,0.0,0.0,0.0,0.0,0.0,0.0,0.224,0.1707,0.0,0.0,0.0,0.0,0.0,0.0,0.3152,0.3295,0.0,0.0,0.0,0.0,0.0,0.0,0.0,0.0,0.0,0.0,0.0,0.0,0.0,0.0,0.5653,0.6067,0.6664,0.7077,0.6374,0.0,0.0,0.6663,0.6094,0.5616,0.5536,0.4554,0.3658,0.3882,0.0,0.4307,0.4045,0.4055,0.4098,0.399,0.3376,0.3056,0.0,0.0,0.3061,0.3189,0.3223,0.3293,0.3492,0.0,0.0,0.3598,0.3604,0.3579,0.3518,0.3466,0.3459,0.3511,0.3459,0.3428,0.3428,0.3422,0.342,0.342,0.2666,0.2246,0.2079,0.0623,-0.0129,-0.0279,-0.0279,-0.0685,-0.1317,-0.0607,-0.0708,-0.1389,-0.1465,-0.1491,-0.1491,-0.1566,-0.1592,-0.1592,-0.1592,-0.1592,-0.1592,0.0,0.0,0.0,0.0,0.0,0.0,0.0,0.126,0.1134,0.077,0.0714,0.0714,0.0714,0.1134,0.1624,0.0,0.0,0.0,0.0,0.0,0.0,0.0,0.0,0.0,0.0,0.0,0.0,0.1955,0.1712,0.0,0.0,0.0,0.0,0.0,0.0,0.2442,0.2591,0.0,0.0,0.0,0.0,0.0,0.0,0.0,0.0,0.0,0.0,0.0,0.519,0.0,0.0,0.0,0.5442,0.5836,0.0,0.0,0.6127,0.5932,0.6341,0.5736,0.4987,0.4927,0.4628,0.4245,0.3865,0.0,0.3911,0.3964,0.3773,0.3601,0.3606,0.3592,0.3508,0.0,0.0,0.0,0.3094,0.3091,0.3134,0.3289,0.3401,0.3455,0.348,0.3512,0.3508,0.345,0.3391,0.3342,0.339,0.3405,0.3413,0.3413,0.2901,0.2621,0.2621,0.1789,0.1104,0.0587,-0.0051,-0.0636,-0.1111,-0.1111,-0.1288,-0.1592,-0.1263,-0.1314,-0.1592,-0.1592,-0.1592,-0.1592,-0.1592,-0.1592,-0.1592,-0.1592,-0.1592,-0.1592,0.0,0.0,0.0,0.0,0.0,0.0,0.0701,0.0631,0.0463,0.0,-0.0028,-0.0014,-0.0056,0.035,0.0798,0.1231,0.0,0.0,0.0,0.0,0.0,0.0,0.0,0.0,0.0,0.0,0.0,0.1532,0.1348,0.1285,0.0,0.0,0.1403,0.1542,0.0,0.0,0.0,0.0,0.0,0.0,0.0,0.0,0.0,0.0,0.0,0.0,0.0,0.0,0.0,0.0,0.0,0.0,0.0,0.0,0.0,0.0,0.5684,0.5446,0.5976,0.5577,0.4977,0.4892,0.4861,0.4655,0.0,0.0,0.3751,0.4059,0.3736,0.3507,0.3812,0.3976,0.3894,0.0,0.0,0.3396,0.3059,0.3004,0.3043,0.3159,0.3254,0.332,0.3357,0.3421,0.3428,0.3362,0.3304,0.3269,0.3269,0.3309,0.3227,0.299,0.2382,0.1955,0.1723,0.0863,0.0151,-0.0404,-0.0631,-0.1061,-0.1592,-0.1592,-0.1592,-0.1592,-0.1592,-0.1592,-0.1592,-0.1592,-0.1592,-0.1592,-0.1592,-0.1592,-0.1592,-0.1592,-0.1592,-0.1592,0.0,0.0,0.0,0.0,0.0,0.0,0.0,0.0014,-0.0042,-0.0182,-0.0084,-0.0056,-0.0182,-0.007,0.0014,0.0014,0.0,0.0,0.0,0.0,0.0,0.0,0.0,0.0,0.0,0.0,0.0,0.0,0.0,0.009,0.0216,0.0216,0.0293,0.0448,0.0,0.0,0.0,0.0,0.0,0.0,0.0,0.0,0.0,0.0,0.0,0.0,0.0,0.0,0.0,0.0,0.0,0.0,0.0,0.0,0.0,0.0,0.5423,0.6176,0.5642,0.5699,0.5881,0.5801,0.5192,0.459,0.0,0.4295,0.4197,0.4526,0.4221,0.416,0.5028,0.4543,0.4014,0.4084,0.0,0.0,0.3065,0.3004,0.3026,0.3102,0.3093,0.3165,0.3285,0.3297,0.3297,0.3296,0.324,0.3206,0.3206,0.3206,0.2827,0.2043,0.2018,0.1613,0.0832,0.0025,-0.0404,-0.0404,-0.1212,-0.1592,-0.1592,-0.1592,-0.1592,-0.1592,-0.1592,-0.1592,-0.1592,-0.1592,-0.1592,-0.1592,-0.1592,-0.1592,-0.1592,-0.1592,-0.1592,-0.1592,0.0,0.0,0.0,0.0,0.0,0.0,0.0,0.0,-0.0014,-0.0056,-0.0028,-0.0014,-0.0054,-0.0028,0.0,0.0,0.0,0.0,0.0,0.0,0.0,0.0,0.0,0.0,0.0,0.0,0.0,0.0,0.0,0.0,0.0,0.0,0.0359,0.0404,0.0643,0.0752,0.0,0.0,0.0,0.0,0.0,0.0,0.0,0.0,0.0,0.0,0.0,0.0,0.0,0.0,0.0,0.0,0.0,0.0,0.0,0.0,0.0,0.0,0.5516,0.5453,0.5216,0.4971,0.5127,0.5135,0.4291,0.4278,0.4522,0.4805,0.4535,0.4337,0.467,0.4771,0.4667,0.4179,0.4276,0.0,0.0,0.3461,0.3387,0.314,0.3151,0.3208,0.3288,0.3258,0.3003,0.2443,0.2404,0.2143,0.1588,0.1563,0.1689,0.1992,0.1462,0.0782,0.0,-0.0808,-0.1212,-0.1212,-0.1491,-0.1592,-0.1592,-0.1592,-0.1592,-0.1592,-0.1592,-0.1592,-0.1592,-0.1592,-0.1592,-0.1592,-0.1592,-0.1592,-0.1592,-0.1592,-0.1592,-0.1592,0.0,0.0,0.0,0.0,0.0,0.0,0.0,0.0,-0.0014,-0.0068,-0.0027,-0.0014,-0.0067,-0.0027,0.0,0.0,0.0,0.0,0.0,0.0,0.0,0.0,0.0,0.0,0.0,0.0,0.0,0.0,0.0,0.0,0.0,0.0,0.0,0.0,0.0593,0.0,0.0,0.0,0.0,0.0,0.0,0.0,0.2998,0.0,0.0,0.0,0.0,0.0,0.0,0.0,0.0,0.0,0.0,0.0,0.0,0.0,0.4421,0.4459,0.0,0.5296,0.5102,0.4883,0.5177,0.0,0.0,0.4358,0.4565,0.4733,0.4582,0.4465,0.4651,0.4976,0.5004,0.4429,0.4445,0.4406,0.3997,0.3645,0.3354,0.3137,0.3136,0.3186,0.3224,0.2935,0.2548,0.2043,0.1753,0.1351,0.0831,0.0821,0.0916,0.1098,0.0603,-0.005,-0.0833,-0.1339,-0.1592,-0.1592,-0.1592,-0.1592,-0.1592,-0.1592,-0.1592,-0.1591,-0.1605,-0.16,0.0,-0.16,-0.1593,-0.156,-0.1583,-0.161,-0.1601,-0.1588,-0.1592,-0.1592,0.0,0.0,0.0,0.0,0.0,0.0,0.0,0.0,0.0,0.0,-0.0078,-0.0053,-0.0173,-0.008,0.0,0.0,0.0,0.0,0.0,0.0,0.0,0.0,0.0,0.0,0.0,0.0,0.0,0.0,0.0364,0.0533,0.0715,0.0,0.0,0.0,0.0,0.0,0.0,0.0,0.0,0.0,0.0,0.0,0.0,0.0,0.0,0.0,0.0,0.0,0.0,0.0,0.0,0.0,0.0,0.0,0.0,0.0,0.0,0.0,0.0,0.5132,0.5327,0.5296,0.5233,0.5048,0.4651,0.4494,0.0,0.4428,0.4431,0.4552,0.4937,0.511,0.5105,0.4788,0.4446,0.4268,0.4516,0.3674,0.3078,0.3137,0.3131,0.3091,0.3031,0.2413,0.1961,0.1834,0.1187,0.0765,0.0628,0.0682,0.0361,-0.0466,-0.0474,-0.0831,-0.1588,-0.1588,-0.159,-0.1592,-0.1592,-0.159,-0.1588,-0.1588,-0.1587,-0.1584,-0.1605,-0.1593,-0.1593,-0.1593,-0.1551,-0.1508,-0.1563,-0.1594,-0.16,-0.1603,-0.159,-0.1592,0.0,0.0,0.0,0.0,0.0,0.0,0.0,0.0,0.0,0.0,0.0,-0.0014,-0.004,-0.0013,0.0,0.0,0.0,0.0,0.0,0.0,0.0,0.0,0.0,0.0,0.0,0.0,0.0,0.035,0.0645,0.0813,0.0856,0.0856,0.0,0.0,0.0,0.0,0.0,0.0,0.0,0.0,0.0,0.0,0.0,0.0,0.0,0.0,0.2873,0.287,0.0,0.0,0.0,0.0,0.0,0.0,0.0,0.0,0.43,0.4325,0.4439,0.0,0.465,0.4388,0.4577,0.4704,0.0,0.0,0.0,0.0,0.0,0.477,0.496,0.511,0.5207,0.5225,0.5193,0.5099,0.4918,0.4146,0.3644,0.371,0.3388,0.2908,0.224,0.2129,0.157,0.0339,0.0024,-0.0369,-0.1012,-0.1029,-0.11,-0.1301,-0.1264,-0.1363,-0.1607,-0.1607,-0.1594,-0.1592,-0.1592,-0.1605,-0.1607,-0.1607,-0.1569,-0.1523,-0.1516,-0.1513,-0.1513,-0.1513,-0.1508,-0.1504,-0.1518,-0.1557,-0.1596,-0.1604,-0.1597,-0.1592,0.0,0.0,0.0,0.0,0.0,0.0,0.0,0.0,0.0,0.0,0.0,0.0,0.0,0.0,0.0,0.0,0.0,0.0,0.0,0.0,0.0,0.0,0.0,0.0,0.0,0.0,0.0,0.0,0.0,0.0455,0.0,0.0,0.0,0.0,0.0,0.0,0.0,0.0,0.0,0.0,0.0985,0.0,0.0,0.0,0.0,0.0,0.1799,0.1782,0.0,0.1703,0.1646,0.1675,0.0,0.0,0.0,0.0,0.3536,0.3725,0.3389,0.3883,0.445,0.427,0.4467,0.4636,0.4383,0.0,0.0,0.0,0.0,0.4833,0.4974,0.5067,0.5167,0.5362,0.5257,0.5011,0.4679,0.4447,0.4171,0.3849,0.3564,0.3016,0.2071,0.1706,0.1012,-0.0215,-0.0668,-0.1103,-0.1526,-0.1524,-0.1515,-0.1553,-0.15,-0.1482,-0.155,-0.1551,-0.1559,-0.1551,-0.1551,-0.1542,-0.1551,-0.1551,-0.1542,-0.1502,-0.1511,-0.1505,-0.1505,-0.1505,-0.1473,-0.1464,-0.1492,-0.1512,-0.1551,-0.1551,-0.1579,-0.159,0.0,0.0,0.0,0.0,0.0,0.0,0.0,0.0,0.0,0.0,0.0,0.0,0.0,0.0,0.0,0.0,0.0,0.0,0.0,0.0,0.0,0.0,0.0,0.0,0.0,0.0,0.0,0.0,0.0,0.0,0.0,0.0,0.0,0.0,0.0,0.0,0.0,0.0,0.0,0.0,0.0976,0.0,0.0,0.0,0.0,0.0,0.0,0.0,0.0,0.0731,0.0789,0.0893,0.1632,0.0,0.0,0.0,0.0,0.0,0.2267,0.311,0.4186,0.4272,0.4377,0.4513,0.4639,0.0,0.0,0.0,0.0,0.0,0.4974,0.5012,0.5108,0.5329,0.5074,0.4784,0.4557,0.4788,0.4657,0.3782,0.3571,0.3034,0.1826,0.105,0.0332,-0.0402,-0.1119,-0.1492,-0.1494,-0.1447,-0.1431,-0.1503,-0.1429,-0.1437,-0.1488,-0.1493,-0.1498,-0.1502,-0.1502,-0.15,-0.1496,-0.1496,-0.1493,-0.1487,-0.1485,-0.1474,-0.1474,-0.1474,-0.1459,-0.1395,-0.1469,-0.1491,-0.1496,-0.1496,-0.1531,-0.1574,0.0,0.0,0.0,0.0,0.0,0.0,0.0,0.0,0.0,0.0,0.0,0.0,0.0,0.0,0.0,0.0,0.0,0.0,0.0,0.0,0.0,0.0,0.0,0.0,0.0,0.0,0.0,0.0,0.0,0.0,-0.0755,-0.0253,0.0268,0.0,0.0,0.0,0.0,0.0,0.0,0.0,0.0976,0.0,0.0,0.0,0.0,0.0,0.0,0.0,0.0,0.0372,0.0285,0.0262,0.1001,0.0,0.0,0.0,0.0,0.0,0.2133,0.236,0.2762,0.3273,0.3417,0.3619,0.4367,0.0,0.0,0.0,0.0,0.0,0.0,0.5097,0.5193,0.5228,0.5411,0.5638,0.5944,0.5656,0.4953,0.3676,0.3216,0.2203,0.0178,-0.0091,-0.0438,-0.1179,-0.14,-0.1506,-0.1511,-0.1479,-0.1499,-0.1504,-0.1429,-0.1395,-0.1404,-0.1474,-0.15,-0.1502,-0.1502,-0.1489,-0.1511,-0.1511,-0.1474,-0.1427,-0.1422,-0.142,-0.142,-0.142,-0.1417,-0.1391,-0.14,-0.1442,-0.1511,-0.1511,-0.151,-0.1515,0.0,0.0,0.0,0.0,0.0,0.0,0.0,0.0,0.0,0.0,0.0,0.0,0.0,0.0,0.0,0.0,0.0,0.0,0.0,0.0,0.0,0.0,0.0,0.0,0.0,0.0,0.0,0.0,0.0,-0.1224,-0.1593,-0.0909,-0.0055,0.09,0.0,0.0,0.0,0.0,0.0,0.0,0.0,0.0,0.0,0.0,0.0,0.0,0.0,0.0,0.0,0.0,0.0081,0.0063,0.0395,0.0,0.0,0.0,0.0,0.0,0.1067,0.1012,0.1218,0.1891,0.2696,0.342,0.0,0.0,0.0,0.0,0.0,0.0,0.0,0.5151,0.523,0.534,0.5469,0.5619,0.5847,0.5164,0.4342,0.3584,0.2858,0.1736,0.0045,0.0,-0.034,-0.1324,-0.1335,-0.1342,-0.1433,-0.1456,-0.1456,-0.1456,-0.142,-0.1405,-0.1411,-0.1425,-0.1439,-0.1453,-0.1453,-0.1445,-0.1454,-0.1454,-0.1433,-0.1391,-0.1391,-0.1391,-0.1391,-0.1391,-0.1391,-0.1391,-0.1391,-0.1431,-0.1506,-0.1499,-0.1504,-0.1502,0.0,0.0,0.0,0.0,0.0,0.0,0.0,0.0,0.0,0.0,0.0,0.0,0.0,0.0,0.0,0.0,0.0,0.0,0.0,0.0,0.0,0.0,0.0,0.0,0.0,0.0,-0.028,-0.0461,-0.1334,-0.1749,-0.1722,-0.1165,-0.0259,0.0,0.0,0.0,0.0,0.0,0.0,0.0,0.0,0.0,0.0,0.0,0.0,0.0,0.0,0.0,0.0,0.0,0.0,0.0,0.0,0.0,0.0,0.0171,0.0405,0.0722,0.0154,0.0,0.0143,0.0705,0.1865,0.0,0.0,0.0,0.0,0.0,0.0,0.0,0.0,0.5206,0.5183,0.5165,0.5152,0.5096,0.4971,0.4261,0.3517,0.2963,0.2201,0.1245,-0.0046,-0.0045,-0.0311,-0.1172,-0.1127,-0.1149,-0.1304,-0.1348,-0.137,-0.137,-0.137,-0.1382,-0.138,-0.138,-0.138,-0.138,-0.138,-0.138,-0.138,-0.138,-0.1375,-0.1402,-0.1402,-0.1406,-0.1391,-0.1391,-0.1391,-0.1391,-0.1391,-0.1427,-0.1473,-0.1473,-0.1467,-0.1471,0.0,0.0,0.0,0.0,0.0,0.0,0.0,0.0,0.0,0.0,0.0,0.0,0.0,0.0,0.0,0.0,0.0,0.0,0.0,0.0,0.0,0.0,0.0,0.0,0.0,0.0112,-0.0531,-0.1215,-0.1302,-0.0995,-0.035,-0.0353,0.0093,0.0891,0.0,0.0,0.0,0.0,0.0,0.0,0.0,0.0,0.0,0.0,0.0,0.0,0.0,0.0,0.0,0.0,0.0,0.0,0.0,0.0,0.0064,0.0016,0.003,0.0074,0.0015,0.0,0.0015,0.0072,0.0684,0.0,0.3238,0.3729,0.0,0.4968,0.0,0.0,0.0,0.5206,0.4976,0.4304,0.4294,0.4136,0.3454,0.3302,0.2718,0.1268,0.1012,0.0454,-0.0877,-0.1004,-0.093,-0.0763,-0.091,-0.1015,-0.1037,-0.1206,-0.1312,-0.1312,-0.1312,-0.1311,-0.1309,-0.1309,-0.1309,-0.1309,-0.1309,-0.1309,-0.1309,-0.1309,-0.1345,-0.1393,-0.1393,-0.1409,-0.1391,-0.1391,-0.1391,-0.1391,-0.1391,-0.1414,-0.1416,-0.1396,-0.1418,-0.142,0.0,0.0,0.0,0.0,0.0,0.0,0.0,0.0,0.0,0.0,0.0,0.0,0.0,0.0,0.0,0.0,0.0,0.0,0.0,0.0,0.0,0.0,0.0,0.0472,0.0394,-0.0083,-0.0518,-0.0924,-0.1385,-0.1133,-0.021,-0.0352,0.0,0.0,0.0,0.0,0.0,0.0,0.0897,0.0888,0.0843,0.0,0.0,0.0,0.0,0.0,0.0,0.0,0.0,0.0,0.0,0.0,0.0,0.0,0.0,0.0,0.0,0.0,0.0,0.0,0.0,0.0,0.0211,0.0,0.0,0.2949,0.3833,0.3935,0.4685,0.0,0.0,0.5311,0.5078,0.4138,0.4158,0.4006,0.3133,0.2359,0.1682,0.1092,0.0467,-0.0154,-0.0791,-0.0597,-0.0489,-0.0695,-0.0653,-0.0674,-0.08,-0.0884,-0.0927,-0.0927,-0.1053,-0.1046,-0.0928,-0.1175,-0.1208,-0.105,-0.1229,-0.1299,-0.1299,-0.1299,-0.1315,-0.1343,-0.1343,-0.1327,-0.1339,-0.1378,-0.1407,-0.1409,-0.1406,-0.1391,-0.1391,-0.1391,-0.1391,-0.1414,0.0,0.0,0.0,0.0,0.0,0.0,0.0,0.0,0.0,0.0,0.0,0.0,0.0,0.0,0.0,0.0,0.0,0.0,0.0,0.0,0.0,0.0,0.0,0.0291,0.0203,-0.0111,-0.0432,-0.0759,-0.1267,-0.1022,-0.007,0.0,0.0,0.0,0.0,0.0,0.0,0.0,0.0859,0.0806,0.0731,0.0659,0.0,0.0,0.0,0.0,0.0,0.0,0.0,0.0,0.0571,0.0,0.0,0.0,0.0,0.0569,0.0568,0.053,0.0338,0.028,0.0237,0.0045,0.0,0.0,0.098,0.2381,0.3594,0.3849,0.4703,0.5351,0.5228,0.0,0.4669,0.3618,0.3427,0.3052,0.2109,0.1273,0.0721,0.0646,0.0022,-0.0449,-0.0585,-0.0312,-0.0228,-0.0469,-0.041,-0.0452,-0.0652,-0.0677,-0.0701,-0.0763,-0.0845,-0.0798,-0.0664,-0.0946,-0.0978,-0.0805,-0.0999,-0.1147,-0.1308,-0.1308,-0.1305,-0.1292,-0.1292,-0.1298,-0.1308,-0.1378,-0.1395,-0.1406,-0.1394,-0.1404,-0.1391,-0.1391,-0.1391,-0.1414,0.0,0.0,0.0,0.0,0.0,0.0,0.0,0.0,0.0,0.0,0.0,0.0,0.0,0.0,0.0,0.0,0.0,0.0,0.0,0.0,0.0,0.0,0.0,0.0196,0.0196,0.007,-0.0289,-0.0893,-0.0896,-0.0519,0.021,0.0338,0.0,0.0,0.0,0.0,0.0,0.0,0.0782,0.0608,0.0668,0.0491,0.0211,0.0,0.0,0.0,0.0,0.0,0.0,0.0,0.1798,0.1806,0.0,0.0,0.0,0.1802,0.1792,0.1674,0.1072,0.0911,0.0764,0.0162,0.0,0.0,0.1125,0.2141,0.3362,0.504,0.5405,0.5346,0.5205,0.4476,0.3584,0.2633,0.1882,0.1071,0.0126,0.0,-0.0105,-0.0358,-0.04,-0.0396,-0.0408,-0.0407,-0.0279,-0.0019,-0.0194,-0.0388,-0.0587,-0.06,-0.0687,-0.0883,-0.0707,-0.0589,-0.0589,-0.0589,-0.0609,-0.0589,-0.0609,-0.0845,-0.1296,-0.1296,-0.1293,-0.1302,-0.1302,-0.1298,-0.1307,-0.1378,-0.1407,-0.1409,-0.1401,-0.1408,-0.1391,-0.1391,-0.1391,-0.1417,0.0,0.0,0.0,0.0,0.0,0.0,0.0,0.0,0.0,0.0,0.0,0.0,0.0,0.0,0.0,0.0,0.0,0.0,0.0,0.0,0.0,0.0,0.0,0.0,0.0,0.0,-0.0093,-0.0262,-0.0265,-0.0056,0.0,0.0,0.0,0.0811,0.0,0.0,0.0,0.0,0.0741,0.0588,0.0514,0.0373,0.019,0.0,0.0,0.0,0.0,0.0,0.0,0.0,0.0,0.0,0.0,0.0,0.0,0.1794,0.1794,0.1778,0.1696,0.1674,0.0,0.1452,0.0,0.0,0.0,0.2621,0.0,0.0,0.5005,0.477,0.4306,0.4046,0.3385,0.1766,0.1454,0.1073,0.0126,-0.0166,-0.0288,-0.0329,-0.037,-0.0387,-0.0338,-0.0198,-0.0079,0.0,-0.0058,-0.0172,-0.0379,-0.0262,-0.0261,-0.0466,-0.0429,-0.032,-0.0172,-0.0459,-0.0521,-0.0393,-0.053,-0.0668,-0.0805,-0.0962,-0.1025,-0.1032,-0.1211,-0.1296,-0.1306,-0.1316,-0.1358,-0.1402,-0.1393,-0.1408,-0.1391,-0.1391,-0.1391,-0.1414,0.0,0.0,0.0,0.0,0.0,0.0,0.0,0.0,0.0,0.0,0.0,0.0,0.0,0.0,0.0,0.0,0.0,0.0,0.0,0.0,0.0,0.0,0.0,0.0,0.0,0.0,0.0026,0.0,0.0,0.0,0.0,0.0,0.0,0.0815,0.0,0.0801,0.0,0.0,0.061,0.043,0.0354,0.0241,0.0107,0.0,0.0,0.0,0.0,0.0,0.0,0.0,0.0,0.0,0.0,0.0,0.0,0.2508,0.2548,0.2558,0.2408,0.2384,0.0,0.2106,0.1809,0.1894,0.3118,0.0,0.0,0.0,0.4511,0.4166,0.3486,0.3082,0.2503,0.1357,0.0984,0.0646,0.008,-0.0138,-0.0234,-0.0195,-0.0214,-0.0233,-0.0191,-0.0076,0.0,0.0,0.0,-0.0093,-0.0294,-0.011,-0.0091,-0.0291,-0.0219,-0.0129,0.0,-0.0246,-0.0307,-0.0177,-0.0294,-0.0353,-0.0373,-0.0648,-0.0825,-0.0923,-0.1178,-0.1304,-0.1296,-0.1182,-0.1175,-0.1244,-0.1244,-0.1261,-0.1287,-0.1364,-0.1391,-0.1391,0.0,0.0,0.0,0.0,0.0,0.0,0.0,0.0,0.0,0.0,0.0,0.0,0.0,0.0,0.0,0.0,0.0,0.0,0.0,0.0,0.0,0.0,0.0,0.0,0.0,0.0,0.0,0.0,0.0,0.0,0.0,0.0,0.0701,0.0729,0.0,0.0771,0.0598,0.0591,0.043,0.0202,0.0202,0.0116,0.0,0.0,0.0,0.0,0.0,0.0,0.0,0.0,0.0,0.0,0.2681,0.3074,0.3527,0.3583,0.3693,0.3681,0.3136,0.3048,0.2973,0.2402,0.2364,0.0,0.3266,0.4308,0.4964,0.4278,0.4054,0.3717,0.2831,0.1966,0.1345,0.1207,0.0509,0.0,0.0,0.0,0.0,0.0,0.0,0.0,0.0,0.0,0.0,0.0,0.0,-0.009,-0.0298,-0.0107,-0.009,-0.0289,-0.0109,0.0,0.0,0.0,0.0,0.0,0.0,0.0,-0.002,-0.0393,-0.0687,-0.0884,-0.1139,-0.1253,-0.1236,-0.1011,-0.0948,-0.1008,-0.1029,-0.1043,-0.1109,-0.1307,-0.1383,-0.1383,0.0,0.0,0.0,0.0,0.0,0.0,0.0,0.0,0.0,0.0,0.0,0.0,0.0,0.0,0.0,0.0,0.0,0.0,0.0,0.0,0.0,0.0,0.0,0.0,0.0,0.0,0.0,0.0,0.0,0.0,0.0,0.0,0.0,0.0856,0.0,0.0688,0.0599,0.0488,0.0349,0.0202,0.0195,0.0119,0.0,0.0,0.0,0.0,0.0,0.0,0.0,0.0,0.0,0.0,0.2555,0.2792,0.2991,0.3457,0.3693,0.3788,0.3703,0.3771,0.0,0.3574,0.3605,0.3665,0.3442,0.4123,0.4728,0.4476,0.4513,0.4149,0.2656,0.2227,0.1684,0.0474,0.0125,0.0,0.0,0.0,0.0,0.0,0.0,0.0,0.0,0.0,0.0,0.0,0.0,-0.0088,-0.0298,-0.0104,-0.0086,-0.0292,-0.0103,0.0,0.0,0.0,0.0,0.0,0.0,0.0,0.0,-0.0255,-0.0471,-0.0668,-0.0727,-0.0847,-0.099,-0.0925,-0.0939,-0.1025,-0.1169,-0.1143,-0.104,-0.1236,-0.1324,-0.1324,0.0,0.0,0.0,0.0,0.0,0.0,0.0,0.0,0.0,0.0,0.0,0.0,0.0,0.0,0.0,0.0,0.0,0.0,0.0,0.0,0.0,0.0,0.0,0.0,0.0,0.0,0.0,0.0,0.0,0.0,0.0,0.0,0.0,0.0659,0.0,0.05,0.0409,0.0335,0.0226,0.0106,0.0106,0.0067,0.0,0.0,0.0,0.0,0.0,0.0,0.0,0.0,0.0,0.0,0.0,0.0,0.3188,0.3513,0.3693,0.381,0.3886,0.3994,0.0,0.4178,0.0,0.4168,0.4046,0.438,0.4654,0.4531,0.4311,0.3642,0.2028,0.1962,0.1681,0.0228,0.024,0.0322,0.0034,0.0,0.0,0.0,0.0,0.0,0.0,0.0,0.0,0.0,0.0,-0.0052,-0.0155,-0.0051,-0.0051,-0.0152,-0.0051,0.0,0.0,0.0,0.0,0.0,0.0,0.0,0.0,-0.0216,-0.0353,-0.0471,-0.0563,-0.0656,-0.0753,-0.0656,-0.0642,-0.067,-0.0807,-0.08,-0.0747,-0.1049,-0.1158,-0.1179,0.0,0.0,0.0,0.0,0.0,0.0,0.0,0.0,0.0,0.0,0.0,0.0,0.0,0.0,0.0,0.0,0.0,0.0,0.0,0.0,0.0,0.0,0.0,0.0,0.0,0.0,0.0,0.0,0.0,0.0,0.0,0.0,0.0,0.0393,0.0,0.0,0.0196,0.0177,0.0096,0.0,0.0,0.0,0.0,0.0,0.0,0.0,0.0,0.0,0.0014,0.0126,0.0,0.0,0.0,0.0,0.3471,0.3569,0.3693,0.3805,0.3861,0.3978,0.4126,0.4399,0.4371,0.0,0.4577,0.4627,0.4599,0.4495,0.4003,0.3147,0.1701,0.1828,0.1731,0.0382,0.0569,0.0687,0.008,0.0,0.0,0.0,0.0,0.0,0.0,0.0,0.0,0.0,0.0,0.0,0.0,0.0,0.0,0.0,0.0,0.0,0.0,0.0,0.0,0.0,0.0,0.0,0.0,-0.0174,-0.0253,-0.0253,-0.042,-0.051,-0.0527,-0.0376,-0.0301,-0.0302,-0.0393,-0.042,-0.0441,-0.0841,-0.0973,-0.1015,0.0,0.0,0.0,0.0,0.0,0.0,0.0,0.0,0.0,0.0,0.0,0.0,0.0,0.0,0.0,0.0,0.0,0.0,0.0,0.0,0.0,0.0,0.0,0.0,0.0,0.0,0.0,0.0,0.0,0.0,0.0,0.0,0.0,0.0393,0.0,0.0,0.0196,0.007,0.0014,0.0,0.0,0.0,0.0,0.0,0.0,0.0,0.0,0.0,0.0,0.0014,0.0463,0.0,0.0,0.0,0.2919,0.3441,0.3693,0.38,0.3817,0.0,0.3986,0.0,0.4232,0.4162,0.0,0.4346,0.4344,0.4325,0.4343,0.4027,0.2941,0.2806,0.2407,0.1001,0.0854,0.0682,0.0078,0.0,0.0,0.0,0.0,0.0,0.0,0.0,0.0,0.0,0.0,0.0,0.0,0.0,0.0,0.0,0.0,0.0,0.0,0.0,0.0,0.0,0.0,0.0,0.0,-0.0037,-0.0037,-0.0038,-0.0076,-0.0187,-0.033,-0.0311,-0.0293,-0.0311,-0.0498,-0.0463,-0.0371,-0.0761,-0.0922,-0.0945,0.0,0.0,0.0,0.0,0.0,0.0,0.0,0.0,0.0,0.0,0.0,0.0,0.0,0.0,0.0,0.0,0.0,0.0,0.0,0.0,0.0,0.036,0.0441,0.0461,0.0,0.0,0.0,0.0,0.0,0.0,0.0,0.0185,0.0176,0.0,0.0,0.0,0.0,0.0028,0.0,0.0,0.0,0.0,0.0,0.0,0.0,0.0,0.0,0.0,0.0014,0.0084,0.0686,0.147,0.1804,0.0,0.0,0.0,0.3649,0.3701,0.3781,0.3821,0.3892,0.0,0.4056,0.3998,0.424,0.4246,0.4202,0.4287,0.4341,0.4101,0.3178,0.3269,0.3046,0.1635,0.1683,0.1718,0.1199,0.106,0.1033,0.1112,0.0757,0.051,0.0503,0.0127,-0.008,0.0,-0.0063,-0.0079,0.0,0.0,0.0,0.0,0.0,0.0,0.0,0.0,0.0,0.0,0.0,0.0,0.0,0.0,0.0,0.0,0.0,-0.0054,-0.0125,-0.0125,-0.0125,-0.0143,-0.0236,-0.0219,-0.0164,-0.0461,-0.063,-0.0761,0.0,0.0,0.0,0.0,0.0,0.0,0.0,0.0,0.0,0.0,0.0,0.0,0.0,0.0,0.0,0.0,0.0,0.0,0.0,0.0,0.0,0.0236,0.0462,0.0564,0.0553,0.0,0.0,0.0,0.0,0.0,0.0146,0.004,0.0,0.0,0.0,0.0,0.0,0.0,0.0,0.0,0.0,0.0,0.0,0.0,0.0,0.0,0.0,0.0,0.0042,0.0336,0.1036,0.1846,0.2139,0.2854,0.0,0.0,0.0,0.3624,0.3765,0.0,0.3835,0.4002,0.3933,0.3886,0.4145,0.4145,0.4126,0.4235,0.4278,0.4097,0.3413,0.3584,0.3411,0.2173,0.2264,0.236,0.1948,0.1802,0.1797,0.1981,0.1373,0.0944,0.0899,0.0261,-0.0108,0.0,-0.0092,-0.0107,0.0,0.0,0.0,0.0,0.0,0.0,0.0,0.0,0.0,0.0,0.0,0.0,0.0,0.0,0.0,0.0,0.0,0.0,0.0,0.0,0.0,0.0,0.0,0.0,-0.0018,-0.0234,-0.0397,-0.056,0.0,0.0,0.0,0.0,0.0,0.0,0.0,0.0,0.0,0.0,0.0,0.0,0.0,0.0,0.0,-0.3026,0.0,0.0,0.0,0.0,0.0,-0.0076,0.0478,0.0,0.0689,0.0,0.0,0.0,0.0,0.0,0.0013,0.0,0.0,0.0,0.0,0.0,0.0,0.0,0.0,0.0,0.0,0.0,0.0,0.0,0.0,0.0,0.0,0.0,0.0112,0.0811,0.1384,0.193,0.2627,0.3202,0.3599,0.0,0.0,0.0,0.0,0.3798,0.0,0.3896,0.3903,0.39,0.3919,0.4008,0.4102,0.411,0.4219,0.4246,0.4076,0.3804,0.3366,0.2593,0.2173,0.1872,0.1656,0.1555,0.1629,0.1968,0.1459,0.1036,0.0918,0.0348,0.0,0.0,0.0,0.0,0.0,0.0,0.0,0.0,0.0,0.0,0.0,0.0,0.0,0.0,0.0,0.0,0.0,0.0,0.0,0.0,0.0,0.0,0.0,0.0,0.0,0.0,0.0,0.0,-0.0017,-0.0226,-0.0298,-0.0352,0.0,0.0,0.0,0.0,0.0,0.0,0.0,0.0,0.0,0.0,0.0,0.0,0.0,0.0,-0.2871,-0.2936,-0.2918,0.0,0.0,0.0,0.0,0.0439,0.0642,0.068,0.0573,0.0,0.0,0.0,0.0,0.0051,0.0,0.0,0.0,0.0,0.0,0.0,0.0,0.0,0.0,0.0,0.0,0.0,0.0,0.0,0.0,0.0,0.0,0.0,0.0098,0.0756,0.1344,0.1916,0.2569,0.316,0.3599,0.3599,0.3599,0.3607,0.0,0.0,0.0,0.3804,0.3765,0.377,0.3983,0.3994,0.4013,0.4186,0.427,0.4287,0.4243,0.4056,0.3806,0.3459,0.3249,0.3042,0.2852,0.2903,0.2793,0.2312,0.192,0.148,0.0945,0.0274,-0.0087,0.0,-0.0086,-0.0086,0.0,0.0,0.0,0.0,0.0,0.0,0.0,0.0,0.0,0.0,0.0488,0.0706,0.0706,0.0706,0.0706,0.0673,0.0204,0.0,0.0,0.0,0.0,0.0,0.0,0.0,-0.0017,-0.0085,-0.0188,-0.0308,0.0,0.0,0.0,0.0,0.0,0.0,0.0,0.0,0.0,0.0,0.0,0.0,0.0,0.0,-0.287,-0.2956,-0.2839,-0.2435,-0.165,-0.1182,-0.0591,0.0167,0.05,0.0612,0.0,0.0,0.0,0.0,0.0,0.0,0.0,0.0,0.0,0.0,0.0,0.0,0.0,0.0,0.0,0.0,0.0,0.0,0.0,0.0,0.0,0.0,0.0,0.0,0.0126,0.098,0.1512,0.1942,0.2806,0.3313,0.3599,0.3599,0.3599,0.0,0.3599,0.0,0.0,0.3706,0.3668,0.3659,0.3884,0.3906,0.3918,0.4121,0.4194,0.4251,0.4295,0.4235,0.4102,0.3895,0.3602,0.3402,0.3398,0.3307,0.303,0.2503,0.1999,0.1489,0.0957,0.0268,-0.0098,0.0,-0.0084,-0.0098,0.0,0.0,0.0,0.0,0.0,0.0,0.0,0.0,0.0,0.0,0.0505,0.0858,0.1092,0.1092,0.1092,0.1076,0.0589,0.0237,0.0,0.0,0.0,0.0,0.0,0.0,0.0,0.0,-0.0084,-0.0202,0.0,0.0,0.0,0.0,0.0,0.0,0.0,0.0,0.0,0.0,0.0,0.0,0.0,0.0,0.0,-0.3088,-0.285,-0.2768,-0.2956,-0.1734,-0.0991,-0.0979,0.0,0.0,0.0,0.0,0.0,0.0,0.0,0.0,0.0,0.0,0.0,0.0,0.0,0.0,0.0,0.0,0.0,0.0,0.0,0.0,0.0,0.0,0.0,0.0,0.0,0.0,0.0196,0.1525,0.1888,0.2028,0.3378,0.3705,0.0,0.0,0.0,0.0,0.0,0.0,0.0,0.3599,0.3599,0.3599,0.3602,0.3704,0.3819,0.3878,0.4,0.4137,0.4273,0.4298,0.4197,0.3875,0.315,0.2785,0.3161,0.2605,0.2235,0.2473,0.1689,0.1063,0.0927,0.0357,0.0,0.0,0.0,0.0,0.0,0.0,0.0,0.0,0.0,0.0,0.0,0.0,0.0,0.0,0.0017,0.0421,0.1126,0.1126,0.1143,0.116,0.1126,0.0701,0.0035,0.0017,0.0,0.0,0.0,0.0,0.0,0.0,0.0,0.0,0.0,0.0,0.0,0.0,0.0,0.0,0.0,0.0,0.0,0.0,0.0,0.0,0.0,0.0,0.0,-0.2814,-0.2702,-0.2488,-0.2153,-0.138,-0.0755,-0.0372,0.0218,0.0,0.0,0.0,0.0,0.0,0.0,0.0,0.0,0.0,0.0,0.0,0.0,0.0,0.0,0.0,0.0,0.0,0.0,0.0,0.0,0.0,0.0,0.0,0.0,0.0,0.0126,0.0939,0.147,0.2014,0.3258,0.0,0.0,0.0,0.0,0.0,0.3599,0.0,0.0,0.0,0.0,0.0,0.3717,0.3776,0.3819,0.3878,0.4,0.411,0.4145,0.424,0.4267,0.4181,0.3887,0.3661,0.3577,0.3475,0.3193,0.263,0.2093,0.1572,0.1087,0.0414,0.0,0.0,0.0,0.0,0.0,0.0,0.0,0.0,0.0,0.0,0.0,0.0,0.0,0.0,0.0533,0.116,0.1829,0.1829,0.2114,0.2564,0.1545,0.0979,0.0748,0.022,0.0,0.0,0.0,0.0,0.0,0.0,0.0,0.0,0.0,0.0,0.0,0.0,0.0,0.0,0.0,0.0,0.0,0.0,0.0,0.0,0.0,0.0,0.0,-0.287,-0.281,-0.2554,-0.2047,-0.1385,-0.0776,-0.0214,0.0173,0.0362,0.0,0.0,0.0,0.0,0.0,0.0,0.0,0.0,0.0,0.0,0.0,0.0,0.0,0.0,0.0,0.0,0.0,0.0,0.0,0.0,0.0,0.0,0.0,0.0168,0.0435,0.0785,0.147,0.2348,0.3302,0.3599,0.0,0.3666,0.0,0.0,0.0,0.0,0.0,0.3599,0.0,0.0,0.3695,0.3712,0.3745,0.3833,0.3914,0.3982,0.4015,0.4126,0.4224,0.4224,0.4191,0.4078,0.378,0.3549,0.3207,0.2697,0.2037,0.1581,0.1485,0.0583,0.01,0.0351,0.014,0.0,0.0,0.0,0.0,0.0,0.0,0.0,0.0,0.0,0.0,0.0016,0.0692,0.1256,0.1699,0.2226,0.2569,0.2714,0.2196,0.1646,0.1059,0.0639,0.032,0.0118,0.0118,0.0118,0.0118,0.0118,0.0067,0.0,0.0,0.0,0.0,0.0,0.0,0.0,0.0,0.0,0.0,0.0,0.0,0.0,0.0,0.0,0.0,0.0,-0.2848,-0.2639,-0.222,-0.1515,-0.0877,-0.0332,0.0013,0.0203,0.0204,0.0,0.0,0.0,0.0,0.0,0.0,0.0,0.0,0.0,0.0,0.0,0.0,0.0,0.0,0.0,0.0,0.0,0.0,0.0,0.0,0.0,0.0,0.0393,0.0926,0.1051,0.1762,0.2722,0.3385,0.3599,0.3624,0.3758,0.3705,0.0,0.0,0.0,0.0,0.3599,0.361,0.0,0.3599,0.3599,0.3641,0.3756,0.3789,0.3816,0.388,0.3999,0.4083,0.4083,0.4183,0.4184,0.3892,0.3272,0.2847,0.2856,0.1933,0.1515,0.2044,0.0897,0.0334,0.0858,0.0336,0.0,0.0,0.0,0.0,0.0,0.0,0.003,0.0107,0.0107,0.0138,0.02,0.0738,0.1108,0.1345,0.2474,0.2756,0.2354,0.2878,0.2398,0.1227,0.1092,0.074,0.0303,0.0303,0.0303,0.032,0.032,0.0202,0.0051,0.0,0.0,0.0,0.0,0.0,0.0,0.0,0.0,0.0,0.0,0.0,0.0,0.0,0.0,0.0,0.0,0.0,-0.1598,-0.1499,-0.0954,-0.0561,-0.0384,-0.0013,0.02,0.0206,0.0069,0.0,0.0,0.0,0.0,0.0,0.0,0.0,0.0,0.0,0.0,0.0,0.0,0.0,0.0,0.0,0.0,0.0,0.0,0.0,0.0,0.0,0.0393,0.1051,0.2028,0.2179,0.2167,0.326,0.3599,0.3624,0.3758,0.3705,0.3624,0.3771,0.3782,0.373,0.3624,0.3677,0.0,0.3624,0.3599,0.3605,0.3641,0.3717,0.3803,0.3813,0.389,0.3938,0.3938,0.4056,0.4156,0.4201,0.3886,0.371,0.3816,0.3076,0.2595,0.2713,0.1606,0.0885,0.09,0.0336,0.0,0.0,0.0,0.0,0.0,0.0,0.0227,0.0715,0.0718,0.0964,0.1455,0.1567,0.1945,0.2563,0.2866,0.326,0.3669,0.2889,0.24,0.2065,0.1043,0.0489,0.0303,0.0303,0.0371,0.0455,0.0455,0.0438,0.0404,0.0,0.0,0.0,0.0,0.0,0.0,0.0,0.0,0.0,0.0,0.0,0.0,0.0,0.0,0.0,0.0,0.0,0.0,0.0,0.0,-0.0454,-0.0112,0.0028,0.0096,0.0098,0.0028,0.0,0.0,0.0,0.0,0.0,0.0,0.0,0.0,0.0,0.0,0.0,0.0,0.0,0.0,0.0,0.0,0.0,0.0,0.0,0.0,0.0,0.0196,0.063,0.1845,0.2054,0.1958,0.2866,0.3357,0.3624,0.3758,0.3705,0.3638,0.3841,0.3852,0.3796,0.3802,0.3799,0.0,0.0,0.3652,0.3599,0.3599,0.3657,0.3698,0.3698,0.3779,0.3844,0.3844,0.3932,0.4032,0.4094,0.4051,0.3994,0.3994,0.3354,0.3034,0.3363,0.2222,0.1291,0.0928,0.0336,0.0126,0.0435,0.0449,0.0588,0.0882,0.0896,0.105,0.1344,0.1351,0.1505,0.1808,0.2098,0.2279,0.2379,0.3118,0.3488,0.3544,0.34,0.2935,0.2214,0.1663,0.1027,0.0404,0.0506,0.059,0.0657,0.0657,0.059,0.0489,0.0,0.0,0.0,0.0,0.0,0.0,0.0,0.0,0.0,0.0,0.0,0.0,0.0,0.0,0.0,0.0,0.0,0.0,0.0,0.0,-0.035,0.014,0.0056,0.0,0.0,0.0,0.0,0.0,0.0,0.0,0.0,0.0,0.0,0.0,0.0,0.0,0.0,0.0,0.028,0.0168,0.0168,0.0098,0.0014,0.0126,0.0098,0.0014,0.0126,0.0098,0.0182,0.1399,0.1782,0.1871,0.2508,0.3102,0.3594,0.3749,0.3716,0.3694,0.3938,0.3938,0.3896,0.3979,0.3938,0.3866,0.0,0.0,0.0,0.3599,0.3599,0.3599,0.3599,0.3687,0.3765,0.3765,0.3837,0.3877,0.3841,0.3956,0.3997,0.3896,0.3398,0.327,0.3793,0.2732,0.1696,0.0956,0.0578,0.0536,0.0884,0.1009,0.1302,0.179,0.1804,0.186,0.1972,0.1972,0.2028,0.2153,0.2641,0.2623,0.2187,0.3372,0.3629,0.3214,0.3854,0.3489,0.2415,0.2333,0.1714,0.0808,0.0809,0.0826,0.0859,0.0859,0.0725,0.0539,-0.2505,-0.2828,0.0,0.0,0.0,0.0,0.0,0.0,0.0,0.0,0.0,0.0,0.0,0.0,0.0,0.0,0.0,0.0,-0.0084,-0.0084,0.0,0.0014,0.0014,0.0,0.0,0.0,0.0,0.0,0.0,0.0,0.0,0.0,0.0,0.0,0.087,0.0,0.0,0.0,0.1288,0.0799,0.0799,0.0477,0.0056,0.0589,0.0463,0.007,0.0603,0.0449,0.0182,0.1399,0.1727,0.1745,0.2477,0.3039,0.3468,0.3723,0.3782,0.3813,0.3952,0.4079,0.4138,0.4024,0.4079,0.4093,0.3852,0.0,0.3744,0.3624,0.0,0.3599,0.3599,0.0,0.0,0.3618,0.3728,0.3769,0.3651,0.375,0.3833,0.382,0.3744,0.3677,0.3634,0.3112,0.2261,0.0998,0.144,0.1516,0.0927,0.1414,0.1734,0.1804,0.1804,0.2054,0.2597,0.2597,0.2864,0.3402,0.3471,0.3465,0.3414,0.3743,0.3865,0.3797,0.3654,0.3606,0.3522,0.242,0.1949,0.1846,0.1094,0.0909,0.1059,0.1059,0.0942,0.0759,-0.2167,-0.2293,0.0,0.0,0.0,0.0,0.0,0.0,0.0,0.0,0.0,0.0,0.0,0.0,0.0,0.0,0.0,0.0,0.0,0.0,0.0,0.0,0.0,0.0,0.0,0.0,0.0,0.0,0.0,0.0,0.0,0.0,0.0,0.0,0.1637,0.1888,0.1804,0.1804,0.1651,0.1428,0.1428,0.1273,0.1036,0.0939,0.0743,0.0561,0.0813,0.0519,0.0084,0.0588,0.0957,0.1305,0.1975,0.256,0.3098,0.3641,0.3796,0.3852,0.4052,0.4152,0.4221,0.427,0.4245,0.4166,0.4052,0.3965,0.3882,0.3747,0.0,0.0,0.0,0.0,0.0,0.0,0.3758,0.3747,0.3619,0.3654,0.3682,0.3682,0.3682,0.3665,0.3602,0.3209,0.2676,0.1993,0.1976,0.1984,0.1947,0.2179,0.2488,0.284,0.284,0.2965,0.3216,0.3216,0.3344,0.3599,0.3599,0.3599,0.3605,0.3768,0.3868,0.3898,0.386,0.3767,0.3556,0.272,0.2216,0.1911,0.1244,0.1026,0.1092,0.1092,0.1043,0.0942,-0.1967,0.0,0.0,0.0,0.0,0.0,0.0,0.0,0.0,0.0,0.0,0.0,0.0,0.0,0.0,0.0,0.0,0.0,0.0,0.0,0.0,0.0,0.0,0.0,0.0,0.0,0.0,0.0,0.0,0.0,0.0,0.0,0.0,0.0,0.0,0.2543,0.2293,0.2293,0.2195,0.204,0.204,0.204,0.1986,0.1372,0.1149,0.1121,0.0953,0.0519,0.0,0.0,0.0487,0.1176,0.1646,0.2305,0.3007,0.358,0.3796,0.3896,0.4093,0.4207,0.4315,0.4463,0.4398,0.4263,0.4207,0.4124,0.401,0.3838,0.3824,0.0,0.0,0.0,0.0,0.0,0.0,0.3813,0.368,0.3649,0.3649,0.3654,0.366,0.3646,0.3602,0.3382,0.3103,0.2723,0.2586,0.257,0.2701,0.2864,0.3146,0.3583,0.3599,0.3599,0.3599,0.3599,0.3599,0.3599,0.3599,0.3599,0.3602,0.3745,0.3832,0.388,0.4034,0.3986,0.3746,0.3011,0.2534,0.2179,0.1344,0.1026,0.1026,0.1076,0.1193,0.1276,-0.2129,-0.2521,0.0,0.0,0.0,0.0,0.0,0.0,0.0,0.0,0.0,0.0,0.0,0.0,0.0,0.0,0.0,0.0,0.0,0.0,0.0,0.0,0.0,0.0,0.0,0.0,0.0,0.0,0.0,0.0,0.0,0.0,0.0,0.0,0.0,0.3019,0.3541,0.3541,0.3202,0.2667,0.2667,0.2667,0.2611,0.2,0.1776,0.1692,0.1107,0.0519,0.0,0.0,0.0699,0.1606,0.1757,0.2528,0.3404,0.3564,0.3788,0.3993,0.401,0.4242,0.4491,0.4505,0.4491,0.4436,0.4249,0.4193,0.4121,0.3852,0.391,0.3952,0.3824,0.0,0.0,0.0,0.0,0.0,0.0,0.3796,0.38,0.3793,0.3792,0.3748,0.361,0.3768,0.355,0.2765,0.3409,0.351,0.2747,0.3258,0.3583,0.3599,0.3599,0.3599,0.3599,0.3599,0.3599,0.3599,0.3599,0.3599,0.3602,0.3745,0.38,0.3817,0.4015,0.4278,0.4465,0.3218,0.2885,0.2998,0.143,0.0809,0.0826,0.1026,0.1427,0.1878,0.0,0.0,0.0,0.0,-0.0346,-0.0291,-0.0042,0.0,0.0,0.0,0.0,0.0,0.0,0.0,0.0,0.0,0.0,0.0,0.0,0.0,0.0,0.0,0.0,0.0,0.0,0.0,0.0,0.0,0.0,0.0,0.0,0.0,0.0,0.0,0.0,0.3413,0.3599,0.3599,0.3485,0.3299,0.3299,0.3299,0.323,0.2627,0.2151,0.1776,0.1568,0.0854,0.0,0.0,0.0236,0.0621,0.106,0.1459,0.1848,0.2385,0.2601,0.2808,0.3375,0.3624,0.3832,0.4363,0.4505,0.4477,0.4408,0.4394,0.4342,0.4107,0.4093,0.4121,0.4079,0.0,0.0,0.0,0.0,0.0,0.0,0.3798,0.3792,0.3795,0.3724,0.3654,0.3602,0.3738,0.369,0.3326,0.3623,0.3673,0.3309,0.3485,0.3599,0.3599,0.3599,0.3599,0.3599,0.3599,0.3599,0.3599,0.3599,0.3599,0.3599,0.3652,0.3712,0.38,0.3871,0.4117,0.4358,0.2947,0.2642,0.291,0.1387,0.0876,0.0993,0.0926,0.1328,0.1945,-0.1189,0.0,-0.0562,-0.0076,0.0,0.0,0.0,0.0,0.0,0.0,0.0,0.0,0.0,0.0,0.0,0.0,0.0,0.0,0.0,0.0,0.0,0.0,0.0,0.0,0.0,0.0,0.0,0.0,0.0,0.0421,0.0,0.0,0.0,0.0,0.0,0.3599,0.3599,0.3599,0.3599,0.3599,0.3599,0.3599,0.3555,0.3174,0.2641,0.2097,0.1874,0.1161,0.028,0.007,0.014,0.0393,0.0771,0.1051,0.1317,0.179,0.1959,0.2139,0.275,0.3067,0.3375,0.3962,0.4215,0.4325,0.4325,0.4353,0.4328,0.4107,0.4138,0.4166,0.4079,0.0,0.0,0.0,0.0,0.0,0.0,0.3897,0.3874,0.3877,0.38,0.3741,0.3738,0.3815,0.3837,0.3744,0.3817,0.382,0.3685,0.3677,0.3652,0.3599,0.3599,0.3599,0.3599,0.3599,0.3599,0.3599,0.3599,0.3599,0.3599,0.3599,0.3652,0.374,0.3781,0.3974,0.4168,0.305,0.2718,0.2808,0.1564,0.1043,0.101,0.1195,0.1897,0.2848,0.0,-0.048,0.0,0.0,0.0,0.0,0.0,0.0,0.0,0.0,0.0,0.0,0.0,0.0,0.0,0.0,0.0,0.0,0.0,0.0,0.0,0.0,0.0,0.0,0.0,0.0,0.0,0.0,0.0,0.0,0.0,0.0,0.0,0.0,0.3599,0.0,0.3599,0.3599,0.3599,0.3599,0.3599,0.3583,0.3583,0.3599,0.323,0.2639,0.2054,0.1442,0.0814,0.0266,0.0435,0.0856,0.0898,0.1288,0.1748,0.172,0.1818,0.1973,0.2113,0.2587,0.3102,0.3344,0.3705,0.3996,0.3996,0.4093,0.4121,0.3866,0.401,0.4107,0.3866,0.4024,0.0,0.0,0.0,0.0,0.0,0.4079,0.401,0.401,0.4009,0.4007,0.4008,0.3994,0.4004,0.4005,0.4003,0.3949,0.3805,0.3802,0.3738,0.3599,0.3599,0.3599,0.3599,0.3599,0.3599,0.3599,0.3599,0.3599,0.3599,0.3599,0.3599,0.3605,0.3743,0.3862,0.3955,0.3473,0.3079,0.2704,0.1907,0.1311,0.101,0.183,0.3049,0.4403,-0.0289,-0.0131,0.0,0.0,0.0,0.0,0.0,0.0,0.0,0.0,0.0,0.0,0.0,0.0,0.0,0.0,0.0,0.0,0.0,0.0,0.0,0.0,0.0,0.0,0.0,0.0,0.0,0.0,0.0449,0.0,0.1804,0.0,0.0,0.0,0.0,0.3599,0.3599,0.3599,0.3599,0.3599,0.3599,0.3457,0.3258,0.3499,0.3344,0.2947,0.2597,0.179,0.0939,0.1245,0.084,0.0308,0.0757,0.1009,0.1036,0.0588,0.0798,0.1232,0.1468,0.1902,0.2462,0.3216,0.3705,0.3996,0.3996,0.4024,0.4038,0.3965,0.401,0.4065,0.4093,0.4152,0.4249,0.0,0.0,0.0,0.0,0.4079,0.4038,0.4138,0.4155,0.4106,0.4013,0.3999,0.4005,0.3999,0.4003,0.3949,0.3805,0.3801,0.3741,0.3602,0.3599,0.3599,0.3599,0.3599,0.3599,0.3599,0.3599,0.3599,0.3599,0.3599,0.3599,0.3599,0.3629,0.3725,0.3801,0.3134,0.2774,0.2575,0.1771,0.1912,0.2599,0.2664,0.3382,0.4386,0.0,0.0,0.0,0.0,0.0,0.0,0.0,0.0,0.0,0.0,0.0,0.0,0.0,0.0,0.0,0.0,0.0,0.0,0.0,0.0,0.0,0.0,0.0,0.0,0.0,0.0,0.0,0.0,0.0336,0.0,0.1804,0.0,0.0,0.0,0.0,0.3599,0.3599,0.3599,0.3599,0.3599,0.3599,0.3485,0.0,0.3527,0.3485,0.3299,0.3146,0.2488,0.1692,0.1776,0.1343,0.084,0.119,0.1107,0.0883,0.0812,0.0658,0.0617,0.1077,0.1358,0.1722,0.2573,0.3116,0.3505,0.376,0.3871,0.3896,0.383,0.3871,0.3938,0.401,0.4079,0.4204,0.0,0.0,0.0,0.4328,0.4273,0.4245,0.4315,0.4328,0.4301,0.4228,0.4135,0.4121,0.4215,0.4217,0.415,0.3985,0.406,0.3972,0.3694,0.3691,0.3691,0.3691,0.3624,0.3624,0.3691,0.3624,0.3599,0.3599,0.3599,0.3599,0.3599,0.3599,0.3638,0.3685,0.3386,0.3114,0.2815,0.2294,0.2709,0.3586,0.3533,0.4051,0.4821,0.0,0.0,0.0,0.0,0.0,0.0,0.0,0.0,0.0,0.0,0.0,0.0,0.0,0.0,0.0,0.0,0.0,0.0,0.0,0.0,0.0,0.0,0.0,0.0,0.0,0.0,0.0,0.0,0.0084,0.0,0.0,0.0,0.0,0.0,0.0,0.0,0.3599,0.3599,0.3599,0.3599,0.3599,0.3569,0.3541,0.3583,0.3569,0.3541,0.3583,0.3226,0.2657,0.2208,0.1962,0.1854,0.1916,0.1577,0.124,0.1667,0.1119,0.0476,0.1065,0.1177,0.1288,0.1959,0.2474,0.2961,0.3485,0.3691,0.3744,0.3624,0.3647,0.3685,0.3699,0.3769,0.3979,0.0,0.4436,0.4405,0.4491,0.4505,0.4505,0.4505,0.4505,0.0,0.4505,0.4342,0.4315,0.4491,0.4505,0.4427,0.4217,0.4383,0.4292,0.3844,0.3824,0.3824,0.3824,0.3705,0.3705,0.3824,0.3691,0.3638,0.3652,0.3613,0.3613,0.3624,0.3613,0.3599,0.3619,0.3866,0.3682,0.322,0.3158,0.3533,0.4134,0.4358,0.4858,0.5395,0.0,0.0,0.0,0.0,0.0,0.0,0.0,0.0,0.0,0.0,0.0,0.0,0.0,0.0,0.0,0.0,0.0,0.0,0.0,0.0,0.0,0.0,0.0,0.0,0.0,0.0,0.0,0.0,0.0505,0.0,0.0,0.0,0.0,0.0,0.0,0.0,0.3599,0.3599,0.3599,0.3599,0.3599,0.3427,0.3216,0.3499,0.3427,0.323,0.3499,0.3289,0.2925,0.3314,0.2825,0.2122,0.2567,0.2635,0.2447,0.1946,0.1998,0.2165,0.1916,0.2111,0.2444,0.2683,0.3091,0.3471,0.3569,0.3624,0.3624,0.3599,0.3313,0.3086,0.32,0.3058,0.3278,0.4322,0.4087,0.3932,0.4436,0.4505,0.4505,0.4505,0.4505,0.4505,0.4505,0.4463,0.4463,0.4505,0.4554,0.4475,0.422,0.4341,0.4271,0.3974,0.3965,0.3965,0.3965,0.3941,0.3941,0.3965,0.3827,0.3827,0.3927,0.3708,0.3663,0.3758,0.3652,0.3599,0.3613,0.3766,0.3647,0.3406,0.3763,0.3993,0.4182,0.494,0.5292,0.5395,0.0,0.0,0.0,0.0,0.0,0.0,0.0,0.0,0.0,0.0,0.0,0.0,0.0,0.0,0.0,0.0,0.0,0.0,0.0,0.0,0.0,0.0,0.0,0.0,0.0,0.0,0.0,0.0,0.0294,0.0,0.0,0.0,0.0,0.0,0.0,0.3599,0.3599,0.3599,0.3599,0.3599,0.3599,0.3548,0.3477,0.3562,0.3548,0.3477,0.3562,0.35,0.3394,0.3629,0.3399,0.3062,0.3213,0.31,0.2874,0.2767,0.2502,0.2249,0.2334,0.2305,0.2319,0.2694,0.2961,0.3216,0.3527,0.3599,0.3599,0.3599,0.3413,0.323,0.3116,0.2877,0.2986,0.389,0.3527,0.3347,0.3946,0.4029,0.4029,0.4029,0.4308,0.4505,0.4505,0.4505,0.4505,0.4505,0.4653,0.4634,0.4373,0.4542,0.4494,0.4116,0.4107,0.4107,0.4107,0.4038,0.4038,0.4107,0.3965,0.3938,0.3993,0.3871,0.3844,0.3896,0.3758,0.3705,0.3719,0.3855,0.3862,0.3855,0.4336,0.4519,0.459,0.5179,0.5395,0.5395,0.0,0.0,0.0,0.0,0.0,0.0,0.0,0.0,0.0,0.0,0.0,0.0,0.0,0.0,0.0,0.0,0.0,0.0,0.0,0.0,0.0,0.0,0.0,0.0,0.0,0.0,0.0,0.0,0.0,0.0394,0.0,0.0,0.0,0.0,0.3422,0.3621,0.3599,0.3599,0.3599,0.3599,0.3624,0.3701,0.3789,0.3697,0.3725,0.3787,0.3679,0.3706,0.3781,0.3652,0.374,0.3868,0.37,0.3395,0.3164,0.3506,0.2924,0.2279,0.2766,0.2543,0.2293,0.278,0.2891,0.3019,0.3499,0.3599,0.3599,0.3599,0.3541,0.3441,0.3241,0.2949,0.2969,0.3672,0.3312,0.3137,0.3713,0.3793,0.3793,0.3793,0.4211,0.4505,0.4505,0.4505,0.4518,0.4535,0.4735,0.4752,0.4518,0.4721,0.4671,0.4269,0.4263,0.4263,0.4263,0.4162,0.4162,0.4263,0.4107,0.4065,0.4104,0.4035,0.4024,0.4038,0.3896,0.3838,0.3852,0.3979,0.4107,0.425,0.4713,0.4903,0.494,0.5266,0.5395,0.5395,0.0,0.0,0.0,0.0,0.0,0.0,0.0,0.0,0.0,0.0,0.0,0.0,0.0,0.0,0.0,0.0,0.0,0.0,0.0,0.0,0.0,0.0,0.0,0.0,0.0,0.0,0.0,0.0,0.0,0.0654,0.1901,0.0,0.0,0.3518,0.3706,0.3709,0.3599,0.3599,0.3599,0.3607,0.374,0.3787,0.3809,0.3848,0.3841,0.3795,0.3784,0.3789,0.3781,0.3652,0.374,0.3881,0.3808,0.3743,0.37,0.3618,0.3527,0.3444,0.3499,0.3471,0.3444,0.3499,0.3513,0.3527,0.3583,0.3599,0.3599,0.3599,0.3357,0.3227,0.3502,0.319,0.3225,0.4248,0.4005,0.3872,0.4342,0.4419,0.4419,0.4419,0.446,0.4505,0.4505,0.4505,0.4549,0.4674,0.4712,0.4654,0.4512,0.4634,0.4636,0.4484,0.4477,0.4477,0.4477,0.4463,0.4463,0.4477,0.4273,0.4273,0.4449,0.4145,0.4065,0.4179,0.4038,0.3979,0.3993,0.4124,0.4193,0.425,0.4713,0.4903,0.494,0.5266,0.5395,0.5395,0.0,0.0,0.0,0.0,0.0,0.0,0.0,0.0,0.0,0.0,0.0,0.0,0.0,0.0,0.0,0.0,0.0,0.0,0.0,0.0,0.0,0.0,0.0,0.0,0.0,0.0,0.0,0.0,0.0,0.0494,0.1468,0.1696,0.2492,0.372,0.3823,0.3835,0.3774,0.373,0.3715,0.3712,0.369,0.3723,0.3795,0.3747,0.3749,0.3789,0.3704,0.3679,0.3673,0.3613,0.374,0.387,0.3727,0.3743,0.3776,0.3646,0.3599,0.3599,0.3599,0.3599,0.3599,0.3599,0.3599,0.3599,0.3599,0.3599,0.3599,0.3599,0.333,0.3205,0.3539,0.3213,0.319,0.4051,0.3665,0.3459,0.4003,0.4011,0.3959,0.3959,0.428,0.4505,0.4505,0.4505,0.4529,0.4576,0.4651,0.4678,0.4617,0.4671,0.4634,0.4508,0.4505,0.4505,0.4505,0.4505,0.4505,0.4505,0.4422,0.4425,0.4491,0.4367,0.4259,0.4193,0.4138,0.4079,0.401,0.4152,0.4269,0.4419,0.4758,0.4957,0.5055,0.53,0.5395,0.5395,0.0,0.0,0.0,0.0,0.0,0.0,0.0,0.0,0.0,0.0,0.0,0.0,0.0,0.0,0.0,0.0,0.0,0.0,0.0,0.0,0.0,0.0,0.0,0.0,0.0,0.0,0.0,0.0,0.0,0.0373,0.1117,0.1866,0.2785,0.3826,0.3883,0.3884,0.3858,0.3783,0.3765,0.3789,0.3695,0.3734,0.3812,0.3719,0.373,0.3787,0.3693,0.3627,0.3605,0.3652,0.3721,0.3788,0.3651,0.369,0.3776,0.3646,0.3648,0.3672,0.3616,0.3621,0.3654,0.3607,0.3599,0.3599,0.3599,0.3638,0.368,0.3763,0.3594,0.3528,0.386,0.3678,0.3657,0.4181,0.386,0.3679,0.4065,0.4004,0.3921,0.3921,0.4265,0.4505,0.4505,0.4505,0.4508,0.4552,0.4614,0.4637,0.4637,0.4637,0.4624,0.4559,0.4525,0.4525,0.4556,0.4525,0.4505,0.4505,0.4505,0.4505,0.4505,0.4505,0.4425,0.4287,0.4287,0.4204,0.4069,0.4266,0.4411,0.4529,0.4844,0.5012,0.5117,0.5321,0.5395,0.5395,0.0,0.0,0.0,0.0,0.0,0.0,0.0,0.0,0.0,0.0,0.0,0.0,0.0,0.0,0.0,0.0,0.0,0.0,0.0,0.0,0.0,0.0,0.0,0.0,0.0,0.0,0.0,0.0,0.0,0.037,0.1124,0.2527,0.3443,0.39,0.3903,0.3868,0.3792,0.3662,0.3679,0.3798,0.3795,0.3839,0.39,0.39,0.3857,0.3798,0.3795,0.3706,0.3616,0.3756,0.3706,0.3602,0.3599,0.369,0.3776,0.3646,0.3748,0.3849,0.3648,0.3695,0.3767,0.3627,0.3599,0.3599,0.3599,0.3705,0.3868,0.4138,0.4193,0.4294,0.462,0.4786,0.4887,0.4887,0.4986,0.5027,0.4904,0.4771,0.4687,0.4687,0.4583,0.4505,0.4505,0.4505,0.4552,0.4691,0.458,0.4508,0.4508,0.4508,0.4563,0.4698,0.4569,0.4563,0.4702,0.4566,0.4505,0.4505,0.4505,0.4505,0.4505,0.4505,0.4505,0.4491,0.4491,0.4384,0.4217,0.4558,0.4615,0.4539,0.4932,0.5096,0.5117,0.5321,0.5395,0.5395,0.0,0.0,0.0,0.0,0.0,0.0,0.0,0.0,0.0,0.0,0.0,0.0,0.0,0.0,0.0,0.0,0.0,0.0,0.0,0.0,0.0,0.0,0.0,0.0,0.0,0.0,0.0,0.0,0.0,0.0592,0.1745,0.3247,0.3982,0.4048,0.4132,0.4115,0.3993,0.3858,0.3829,0.3863,0.3717,0.3736,0.3818,0.3724,0.3687,0.3665,0.3665,0.3629,0.3605,0.3654,0.3641,0.3599,0.3599,0.3624,0.366,0.361,0.3651,0.368,0.3618,0.3624,0.3657,0.3607,0.3599,0.3599,0.3599,0.3705,0.3882,0.4152,0.4309,0.449,0.479,0.495,0.5082,0.5219,0.5169,0.5049,0.4923,0.4789,0.4668,0.4576,0.461,0.4604,0.4515,0.4586,0.4624,0.4566,0.4518,0.4535,0.4627,0.4634,0.4654,0.4705,0.4657,0.4657,0.4705,0.4566,0.4505,0.4505,0.4505,0.4505,0.4505,0.4505,0.4505,0.4505,0.4505,0.4463,0.4411,0.4514,0.4642,0.4778,0.4918,0.5111,0.5311,0.5378,0.5395,0.5395,0.0,0.0,0.0,0.0,0.0,0.0,0.0,0.0,0.0,0.0,0.0,0.0,0.0,0.0,0.0,0.0,0.0,0.0,0.0,0.0,0.0,0.0,0.0,0.0,0.0,0.0,0.0117,0.0338,0.0623,0.1313,0.2396,0.341,0.399,0.417,0.4154,0.4129,0.4091,0.3923,0.3877,0.3887,0.3738,0.3717,0.3784,0.3657,0.3599,0.3599,0.3599,0.3599,0.3605,0.3662,0.3649,0.3605,0.3662,0.3646,0.3599,0.3599,0.3695,0.3779,0.3761,0.3773,0.3791,0.3815,0.3747,0.3691,0.3747,0.3816,0.3965,0.4245,0.4458,0.4647,0.486,0.5005,0.5166,0.5368,0.5297,0.5149,0.5004,0.4855,0.4741,0.4661,0.4681,0.4688,0.4651,0.4721,0.4714,0.4586,0.4684,0.4776,0.4814,0.4749,0.4718,0.4775,0.4775,0.4775,0.4775,0.4637,0.4545,0.4505,0.4505,0.4505,0.4505,0.4505,0.4505,0.4505,0.4505,0.4505,0.4508,0.4552,0.4674,0.4828,0.494,0.5095,0.5297,0.5375,0.5395,0.5395,0.0,0.0,0.0,0.0,0.0,0.0,0.0,0.0,0.0,0.0,0.0,0.0,0.0,0.0,0.0,0.0,0.0,0.0016,0.0077,0.0077,0.0093,0.0139,0.0139,0.0139,0.0139,0.0139,0.041,0.0972,0.1704,0.2401,0.3019,0.3195,0.3639,0.4289,0.4045,0.3981,0.4072,0.3893,0.3839,0.3881,0.3821,0.3789,0.3784,0.3657,0.3599,0.3599,0.3599,0.3599,0.3613,0.3748,0.3701,0.3616,0.3751,0.3704,0.361,0.361,0.383,0.406,0.3997,0.4034,0.4097,0.416,0.399,0.384,0.3966,0.4008,0.4106,0.4435,0.4623,0.4765,0.4892,0.5034,0.518,0.5371,0.5385,0.5307,0.5122,0.4987,0.4899,0.4889,0.4796,0.4772,0.4904,0.4928,0.4885,0.4747,0.5027,0.515,0.5024,0.4857,0.4815,0.4931,0.4919,0.4913,0.4903,0.4769,0.4627,0.4505,0.4505,0.4505,0.4505,0.4505,0.4505,0.4505,0.4505,0.4505,0.4515,0.463,0.4702,0.4735,0.4994,0.5096,0.5149,0.5324,0.5395,0.5395,0.0,0.0,0.0,0.0,0.0,0.0,0.0,0.0,0.0,0.0,0.0,0.0,0.0,0.0,0.0,0.0,0.0,0.0245,0.0798,0.0845,0.1073,0.1585,0.1599,0.1599,0.1599,0.155,0.1604,0.1737,0.2433,0.2892,0.317,0.3763,0.4131,0.4298,0.424,0.411,0.3943,0.3902,0.3854,0.3816,0.3698,0.3704,0.3784,0.3657,0.3599,0.3599,0.3599,0.3599,0.3602,0.3643,0.3621,0.3602,0.3643,0.3693,0.3756,0.3756,0.3802,0.3872,0.3858,0.3895,0.3941,0.391,0.3841,0.3836,0.3967,0.4076,0.422,0.4446,0.4768,0.5021,0.5042,0.5206,0.5351,0.5388,0.5277,0.5119,0.4974,0.4926,0.4859,0.4758,0.4896,0.5042,0.5119,0.5221,0.5225,0.5096,0.5257,0.5291,0.516,0.5349,0.5405,0.5292,0.5131,0.4999,0.4906,0.4769,0.4627,0.4505,0.4505,0.4505,0.4505,0.4505,0.4505,0.4505,0.4505,0.4505,0.4508,0.4528,0.4668,0.4855,0.4926,0.5108,0.5328,0.5382,0.5395,0.5395,0.0,0.0,0.0,0.0,0.0,0.0,0.0,0.0,0.0,0.0,0.0,0.0,0.0,0.0,0.0135,0.0471,0.0202,0.0318,0.1052,0.11,0.1401,0.2065,0.2096,0.2096,0.2096,0.2068,0.2179,0.2463,0.3157,0.3533,0.3619,0.4088,0.427,0.42,0.4143,0.4029,0.39,0.3858,0.3828,0.3792,0.3715,0.3695,0.3698,0.3621,0.3599,0.3599,0.3599,0.3599,0.3599,0.3599,0.3599,0.3599,0.3599,0.3654,0.3715,0.3781,0.3862,0.395,0.4044,0.4072,0.4056,0.3965,0.3954,0.4017,0.4151,0.424,0.4359,0.4629,0.491,0.51,0.51,0.5257,0.5395,0.5395,0.5233,0.5073,0.4995,0.4943,0.493,0.5003,0.5068,0.5207,0.5497,0.551,0.5479,0.5426,0.5642,0.57,0.5531,0.5776,0.5813,0.5551,0.5405,0.5258,0.5132,0.4906,0.4687,0.4505,0.456,0.456,0.4505,0.4505,0.4505,0.4505,0.4505,0.4505,0.4505,0.4505,0.459,0.4724,0.4848,0.502,0.5224,0.5681,0.5864,0.5897,0.0,0.0,0.0,0.0,0.0,0.0,0.0,0.0,0.0,0.0,0.0,0.0051,0.0152,0.0168,0.0454,0.1193,0.0673,0.0622,0.1377,0.1411,0.1728,0.2398,0.2432,0.2432,0.2432,0.2413,0.2651,0.316,0.3798,0.411,0.4132,0.4251,0.4235,0.4097,0.3978,0.3911,0.3886,0.3827,0.3787,0.3773,0.3789,0.3715,0.3599,0.3616,0.3613,0.3599,0.3599,0.3599,0.3599,0.3599,0.3599,0.3599,0.3599,0.361,0.3657,0.3767,0.3929,0.4107,0.4284,0.4313,0.4287,0.4199,0.4213,0.4289,0.4406,0.4452,0.4562,0.4844,0.5036,0.5149,0.5149,0.529,0.5395,0.5395,0.5233,0.5093,0.5069,0.5016,0.507,0.5346,0.5285,0.541,0.589,0.5782,0.571,0.5767,0.6063,0.6151,0.5962,0.6119,0.6099,0.5807,0.5696,0.5562,0.5396,0.5098,0.4816,0.4567,0.4671,0.466,0.4532,0.4532,0.4519,0.4505,0.4505,0.4505,0.4505,0.4505,0.4518,0.4552,0.4809,0.4963,0.5147,0.6017,0.6408,0.6587,0.0,0.0,0.0,0.0,0.0,0.0,0.0,0.0,0.0,0.0,0.0,0.0236,0.0858,0.0925,0.121,0.1879,0.1846,0.2079,0.2831,0.2882,0.3203,0.393,0.3964,0.3964,0.3964,0.3851,0.3834,0.3929,0.4043,0.4154,0.4273,0.4292,0.4235,0.4099,0.4083,0.3974,0.381,0.3806,0.3743,0.3649,0.3759,0.3715,0.3607,0.3732,0.3695,0.3599,0.3599,0.3599,0.3599,0.3599,0.3599,0.3599,0.3599,0.3679,0.3776,0.3792,0.3867,0.3932,0.3963,0.4181,0.4412,0.4493,0.4531,0.4545,0.4561,0.4706,0.4836,0.4886,0.5142,0.5358,0.5358,0.5378,0.5395,0.5395,0.5233,0.5056,0.4953,0.5165,0.5302,0.5234,0.5552,0.5875,0.6128,0.6132,0.612,0.6126,0.6285,0.6305,0.6159,0.6285,0.6338,0.6294,0.6009,0.5712,0.5396,0.5228,0.5042,0.4833,0.486,0.4794,0.4674,0.4674,0.4605,0.4505,0.4505,0.4505,0.4505,0.4505,0.4566,0.4688,0.4835,0.5214,0.5695,0.5958,0.645,0.7007,0.0,0.0,0.0,0.0,0.0,0.0,0.0,0.0,0.0,0.0,0.0354,0.0723,0.1059,0.1427,0.1929,0.2631,0.2698,0.3,0.3739,0.3418,0.3537,0.4267,0.43,0.43,0.43,0.4246,0.4216,0.4216,0.4216,0.4246,0.43,0.43,0.4235,0.4102,0.4102,0.3982,0.38,0.3837,0.3796,0.3709,0.3776,0.3765,0.3704,0.3695,0.3657,0.3599,0.3599,0.3599,0.3599,0.3599,0.3599,0.3599,0.3599,0.3649,0.369,0.369,0.3792,0.3919,0.3984,0.4122,0.4293,0.4546,0.4597,0.4651,0.4827,0.4944,0.5045,0.5146,0.5298,0.5395,0.5395,0.5395,0.5395,0.5395,0.5314,0.5265,0.5276,0.5443,0.5598,0.5721,0.5828,0.6004,0.6284,0.6247,0.6231,0.6301,0.6367,0.6367,0.6317,0.6367,0.6404,0.6404,0.6074,0.5794,0.5563,0.5459,0.5296,0.5067,0.5133,0.5008,0.4705,0.4705,0.4632,0.4505,0.4505,0.4539,0.4607,0.4525,0.4855,0.5399,0.5314,0.5716,0.6388,0.6769,0.7214,0.7675,0.0,0.0,0.0,0.0,0.0,0.0,0.0,0.0,0.0,0.0,0.0639,0.1126,0.121,0.183,0.2532,0.3268,0.3334,0.3606,0.425,0.3775,0.3706,0.4267,0.43,0.43,0.43,0.43,0.43,0.43,0.43,0.43,0.43,0.43,0.4205,0.4062,0.4089,0.3969,0.3767,0.3856,0.3865,0.38,0.3813,0.3808,0.3787,0.3684,0.3621,0.3599,0.3599,0.3599,0.3599,0.3599,0.3599,0.3599,0.3599,0.3599,0.3599,0.3599,0.371,0.3864,0.3998,0.4069,0.42,0.4516,0.463,0.4755,0.51,0.5173,0.5206,0.5362,0.5395,0.5395,0.5395,0.5395,0.5395,0.5395,0.5397,0.5442,0.5536,0.5673,0.5844,0.6095,0.6063,0.6123,0.6367,0.6301,0.628,0.6383,0.6404,0.6404,0.6404,0.6564,0.6663,0.6663,0.6235,0.5959,0.5826,0.5768,0.5586,0.5298,0.539,0.52,0.4743,0.4743,0.466,0.4505,0.4505,0.4626,0.4844,0.4798,0.5279,0.6036,0.5922,0.6285,0.6925,0.7419,0.787,0.8265,0.0,0.0,0.0,0.0,0.0,0.0,0.0,0.0,0.0,0.0,0.0639,0.121,0.153,0.2217,0.2954,0.3692,0.3756,0.3909,0.4284,0.425,0.425,0.43,0.43,0.43,0.43,0.43,0.43,0.43,0.43,0.43,0.43,0.43,0.4156,0.3922,0.4051,0.3925,0.3624,0.3823,0.3865,0.3806,0.3861,0.3854,0.3795,0.3787,0.3704,0.3599,0.3599,0.3599,0.3599,0.3599,0.3599,0.3599,0.3599,0.3599,0.3599,0.3599,0.361,0.3648,0.3792,0.4,0.426,0.4525,0.474,0.4967,0.5295,0.5379,0.5379,0.5395,0.5395,0.5395,0.5395,0.5395,0.5395,0.5395,0.5402,0.5399,0.5412,0.5686,0.5886,0.5918,0.6189,0.6371,0.6404,0.6383,0.6383,0.6404,0.6404,0.6404,0.6404,0.7052,0.7423,0.7423,0.6728,0.6297,0.6162,0.6161,0.5953,0.557,0.5587,0.533,0.4887,0.4887,0.4749,0.4505,0.4505,0.4784,0.5268,0.5515,0.5832,0.622,0.6575,0.6855,0.7092,0.7267,0.789,0.8625,0.0404,0.0488,0.0605,0.0942,0.116,0.1227,0.1026,0.1176,0.131,0.131,0.1946,0.2365,0.2284,0.3123,0.3682,0.3679,0.3938,0.4132,0.4175,0.4259,0.43,0.43,0.43,0.43,0.43,0.43,0.43,0.43,0.43,0.43,0.43,0.43,0.4194,0.4019,0.408,0.3958,0.3728,0.385,0.3878,0.3863,0.385,0.3856,0.3849,0.3719,0.3652,0.3599,0.3599,0.3599,0.3599,0.3599,0.3599,0.3599,0.3599,0.3599,0.3599,0.3599,0.3599,0.3607,0.3665,0.3807,0.4034,0.4387,0.4593,0.4801,0.5142,0.5307,0.5395,0.5395,0.5395,0.5395,0.5395,0.5395,0.5395,0.5395,0.5475,0.5516,0.5522,0.5844,0.6092,0.6091,0.6277,0.6404,0.6404,0.6404,0.6404,0.6404,0.6404,0.6597,0.7052,0.7744,0.8118,0.8118,0.744,0.6839,0.6334,0.6245,0.6022,0.5669,0.5751,0.5426,0.4794,0.5254,0.5103,0.4546,0.5254,0.5525,0.5516,0.5873,0.6459,0.7124,0.7025,0.7346,0.7826,0.7716,0.7999,0.8413,0.0504,0.0638,0.0807,0.1344,0.1629,0.1746,0.1614,0.1713,0.1829,0.1929,0.25,0.2751,0.2385,0.3224,0.3716,0.3494,0.3722,0.3976,0.4145,0.4202,0.4243,0.4243,0.4278,0.4281,0.4243,0.4281,0.43,0.43,0.43,0.43,0.43,0.43,0.4235,0.4102,0.4143,0.4033,0.3809,0.3907,0.3938,0.3892,0.3832,0.3798,0.3744,0.353,0.3441,0.3441,0.3441,0.3513,0.3599,0.3599,0.3599,0.3599,0.3599,0.3694,0.3788,0.3788,0.3788,0.3811,0.3924,0.3909,0.396,0.4342,0.4538,0.4725,0.5102,0.5247,0.5321,0.5385,0.5395,0.5395,0.5395,0.5395,0.5395,0.5395,0.5475,0.555,0.56,0.5897,0.6132,0.6194,0.6317,0.6404,0.6404,0.6613,0.6745,0.6745,0.6937,0.7375,0.8085,0.8361,0.8603,0.8812,0.8166,0.757,0.7068,0.6485,0.6113,0.5951,0.6002,0.5771,0.5317,0.5778,0.5664,0.514,0.5878,0.6156,0.6098,0.6461,0.7072,0.7748,0.7558,0.776,0.8147,0.7967,0.8069,0.8263,0.0202,0.0302,0.047,0.1025,0.1109,0.1227,0.1563,0.1327,0.1243,0.1564,0.1951,0.2051,0.1648,0.2267,0.2837,0.3159,0.3077,0.3373,0.4242,0.417,0.4102,0.4099,0.4232,0.424,0.4105,0.4238,0.43,0.43,0.43,0.43,0.43,0.43,0.4235,0.4108,0.4243,0.411,0.3811,0.4012,0.4029,0.3892,0.3832,0.3681,0.3473,0.3199,0.3105,0.3102,0.3102,0.3316,0.3599,0.3599,0.3599,0.3599,0.3599,0.3882,0.4205,0.4208,0.4208,0.4282,0.4621,0.4371,0.4098,0.4418,0.4607,0.4822,0.5291,0.5243,0.516,0.5361,0.5412,0.5395,0.5412,0.5412,0.5395,0.5395,0.5395,0.5442,0.5583,0.5769,0.5971,0.6181,0.6317,0.6404,0.6404,0.7068,0.7505,0.7505,0.8134,0.8796,0.947,0.8877,0.8823,0.948,0.8855,0.8501,0.8501,0.6978,0.6318,0.6503,0.6373,0.6412,0.6588,0.6463,0.6399,0.6398,0.6272,0.6548,0.7114,0.7388,0.7655,0.7925,0.8197,0.8129,0.7901,0.7901,0.8063,0.8263,0.0653,0.0857,0.1136,0.1999,0.2349,0.2462,0.2318,0.2373,0.2503,0.2691,0.2742,0.2667,0.2409,0.2739,0.2904,0.2727,0.2969,0.338,0.3909,0.3821,0.3806,0.3962,0.3994,0.4051,0.4099,0.4137,0.42,0.43,0.43,0.43,0.43,0.4211,0.4137,0.4097,0.3992,0.3899,0.38,0.386,0.389,0.39,0.388,0.3724,0.3511,0.3572,0.3393,0.313,0.3371,0.3513,0.3599,0.3599,0.3599,0.3599,0.3599,0.3882,0.4238,0.4429,0.4676,0.5009,0.548,0.5688,0.5578,0.4833,0.4745,0.4905,0.5131,0.5247,0.5468,0.5997,0.5736,0.5541,0.6013,0.5719,0.5395,0.5395,0.5395,0.5408,0.5458,0.5706,0.5921,0.5987,0.6691,0.7167,0.7167,0.7798,0.8199,0.8199,0.8828,0.9294,0.9486,0.9795,0.9967,0.9924,0.9277,0.8817,0.8571,0.8064,0.7569,0.7057,0.7263,0.7044,0.647,0.6958,0.6885,0.6438,0.7101,0.7287,0.7131,0.7587,0.7832,0.7907,0.7985,0.7967,0.7901,0.7901,0.7949,0.8003,0.0907,0.1164,0.1425,0.2229,0.2566,0.2711,0.2618,0.2645,0.2752,0.2934,0.2803,0.2624,0.2472,0.263,0.2703,0.2589,0.2963,0.3278,0.3478,0.3402,0.3412,0.3541,0.3521,0.3599,0.3825,0.3741,0.375,0.3833,0.3833,0.3811,0.3782,0.3842,0.3859,0.3869,0.3896,0.3873,0.3803,0.3887,0.3899,0.3868,0.3884,0.3737,0.3521,0.3632,0.3502,0.328,0.3427,0.3568,0.3673,0.3613,0.3599,0.3624,0.3788,0.4128,0.4567,0.4984,0.5291,0.5592,0.6094,0.6369,0.6348,0.5731,0.5691,0.5844,0.5973,0.6064,0.6237,0.6694,0.647,0.6309,0.6728,0.647,0.6194,0.6194,0.6194,0.6194,0.6194,0.6507,0.6732,0.6732,0.7419,0.7891,0.7891,0.8506,0.9021,0.931,0.97,0.9939,0.9939,1.0237,1.0316,1.0112,0.9697,0.9402,0.9188,0.9275,0.8743,0.7585,0.7837,0.7689,0.7197,0.7595,0.7542,0.7136,0.7662,0.7714,0.7434,0.7762,0.7901,0.7901,0.7901,0.7901,0.7901,0.7901,0.7901,0.7901,0.1016,0.1262,0.1452,0.192,0.21,0.2275,0.2518,0.2327,0.226,0.2515,0.2329,0.2163,0.21,0.2163,0.2315,0.2636,0.2941,0.307,0.2977,0.2965,0.2971,0.3004,0.2908,0.3004,0.3309,0.3177,0.3091,0.3107,0.3107,0.3064,0.3013,0.3346,0.3507,0.3544,0.3909,0.3969,0.3828,0.4007,0.3974,0.381,0.3899,0.3763,0.3527,0.3543,0.3535,0.3483,0.3389,0.3538,0.3781,0.3652,0.3605,0.368,0.4073,0.4532,0.505,0.5733,0.5946,0.6104,0.663,0.6717,0.6757,0.7059,0.7273,0.74,0.7385,0.7286,0.7258,0.7399,0.7411,0.7414,0.746,0.7421,0.7402,0.7402,0.7402,0.7402,0.7402,0.7739,0.7978,0.7994,0.8339,0.8571,0.8587,0.9198,0.9875,1.0555,1.0609,1.0609,1.0609,1.0307,1.0118,1.0065,1.0085,1.0072,1.0025,1.0361,0.9723,0.8134,0.8253,0.8351,0.8395,0.8255,0.8195,0.8195,0.7981,0.7901,0.7901,0.7901,0.7901,0.7901,0.7901,0.7901,0.7901,0.7901,0.7901,0.7901,0.1073,0.1262,0.1452,0.192,0.2066,0.2127,0.2126,0.2038,0.1998,0.2112,0.2038,0.2002,0.2087,0.2107,0.2168,0.2299,0.2372,0.2487,0.2674,0.2634,0.2719,0.2989,0.268,0.2572,0.2697,0.2905,0.3041,0.3107,0.3107,0.3095,0.309,0.3363,0.3584,0.3731,0.3824,0.3869,0.3883,0.3922,0.3914,0.3899,0.4118,0.3984,0.3679,0.3887,0.3773,0.3513,0.365,0.3739,0.3781,0.3652,0.3671,0.3814,0.4101,0.4594,0.52,0.5929,0.636,0.6825,0.7811,0.8077,0.82,0.8786,0.8966,0.868,0.7449,0.7273,0.7417,0.7593,0.7509,0.7517,0.7886,0.7647,0.7402,0.7402,0.7402,0.7402,0.7402,0.7609,0.7816,0.7978,0.8667,0.9172,0.9278,0.9939,1.0428,1.0593,1.0609,1.0609,1.0609,1.0526,1.0285,0.9808,1.0,0.9878,0.9404,0.9834,0.9751,0.9183,0.9197,0.8934,0.8395,0.8255,0.8195,0.8195,0.7981,0.7901,0.7901,0.7901,0.7901,0.7901,0.7901,0.7901,0.7901,0.7901,0.7901,0.7901,0.1161,0.13,0.1461,0.1801,0.1863,0.1899,0.1981,0.1924,0.1892,0.1987,0.2001,0.2012,0.2048,0.2103,0.2168,0.2202,0.2204,0.2231,0.231,0.2334,0.2405,0.2514,0.2377,0.2318,0.2353,0.2533,0.2613,0.2625,0.2625,0.2606,0.2586,0.304,0.3319,0.3425,0.3784,0.3931,0.3911,0.4045,0.4011,0.3924,0.4186,0.4145,0.3913,0.4116,0.407,0.389,0.3925,0.3882,0.3789,0.3712,0.3821,0.405,0.4425,0.4905,0.5496,0.6268,0.6641,0.6976,0.7802,0.8252,0.8549,0.8779,0.9076,0.9088,0.825,0.8137,0.8232,0.834,0.829,0.8318,0.8697,0.8558,0.8398,0.8398,0.8398,0.8398,0.8398,0.8576,0.877,0.8941,0.9444,0.9833,1.0009,1.0364,1.0609,1.0609,1.0609,1.0609,1.0609,1.0443,1.0222,0.99,1.004,0.9952,0.963,0.994,0.9958,0.9692,0.9468,0.9056,0.8484,0.8291,0.8141,0.8048,0.7941,0.7901,0.7901,0.7901,0.7901,0.7901,0.7901,0.7901,0.7901,0.7901,0.7901,0.7901,0.1243,0.1366,0.1474,0.163,0.163,0.1687,0.1935,0.1863,0.1839,0.1978,0.2038,0.2052,0.2022,0.211,0.2193,0.2203,0.2195,0.2128,0.2026,0.2124,0.2138,0.2023,0.2127,0.2204,0.2204,0.2204,0.2174,0.2095,0.2095,0.2069,0.2034,0.2638,0.2938,0.2972,0.362,0.3856,0.3761,0.4051,0.4054,0.3877,0.4178,0.424,0.414,0.4238,0.4281,0.4281,0.4121,0.4016,0.3942,0.392,0.413,0.4479,0.4888,0.5295,0.5761,0.6534,0.6755,0.6859,0.7391,0.7948,0.835,0.8274,0.8666,0.9093,0.9092,0.9095,0.9083,0.9041,0.9101,0.9227,0.9392,0.947,0.9518,0.956,0.953,0.953,0.962,0.9699,0.9833,1.0037,1.0238,1.0419,1.0577,1.0609,1.0609,1.0609,1.0609,1.0609,1.0609,1.0343,1.0152,1.0098,1.0115,1.0106,1.0075,1.0158,1.0096,0.9872,0.936,0.894,0.8586,0.8292,0.8062,0.7901,0.7901,0.7901,0.7901,0.7901,0.7901,0.7901,0.7901,0.7901,0.7901,0.7901,0.7901,0.7915,0.1369,0.1442,0.1501,0.1522,0.1571,0.1656,0.1802,0.176,0.1779,0.1973,0.1963,0.1973,0.2071,0.2098,0.2129,0.2199,0.2156,0.21,0.2084,0.2165,0.2172,0.2087,0.2167,0.2204,0.2204,0.2204,0.2174,0.2095,0.2095,0.2091,0.2098,0.2484,0.2679,0.2753,0.302,0.3147,0.3152,0.3528,0.3668,0.3683,0.4128,0.4289,0.4265,0.4162,0.4191,0.427,0.4011,0.4214,0.4544,0.4376,0.4722,0.527,0.5455,0.5593,0.5802,0.6372,0.6548,0.6711,0.7464,0.774,0.7986,0.8697,0.8949,0.9035,0.9087,0.9095,0.9029,0.8806,0.9116,0.938,0.9191,0.9354,0.9572,0.9817,0.9644,0.9656,1.0124,0.9815,0.974,1.0279,1.0467,1.0577,1.0609,1.0609,1.0609,1.0609,1.0609,1.0609,1.0609,1.0553,1.0396,1.0112,1.0205,1.0156,0.9929,0.9888,0.9849,0.9806,0.9101,0.8716,0.8586,0.8143,0.7928,0.7901,0.7901,0.7901,0.7901,0.7901,0.7901,0.7901,0.7901,0.7901,0.7901,0.7901,0.7901,0.7955,0.1113,0.1148,0.1206,0.1358,0.132,0.1391,0.1743,0.165,0.1625,0.191,0.1885,0.1869,0.1924,0.2004,0.2082,0.2196,0.2179,0.2132,0.2098,0.217,0.2177,0.2098,0.2171,0.2204,0.2204,0.2204,0.219,0.2164,0.2164,0.2164,0.2164,0.2492,0.2672,0.2718,0.2985,0.3232,0.346,0.3638,0.382,0.4008,0.4212,0.43,0.4295,0.424,0.4254,0.4287,0.4162,0.4424,0.4802,0.4706,0.513,0.5709,0.5878,0.6036,0.6209,0.656,0.6775,0.6944,0.7137,0.7534,0.79,0.8021,0.8423,0.8783,0.8807,0.9081,0.9251,0.8981,0.9113,0.9336,0.9516,0.9648,0.9817,1.0081,1.0027,1.0033,1.0262,0.9967,0.9835,1.014,1.0427,1.0609,1.0609,1.0609,1.0609,1.0609,1.0609,1.0609,1.0609,1.0498,1.0422,1.0383,1.022,1.0132,1.0118,0.9901,0.9804,0.9798,0.9205,0.8833,0.8632,0.8128,0.7901,0.7901,0.7901,0.7901,0.7901,0.7901,0.7901,0.7901,0.7901,0.7901,0.7901,0.7901,0.7901,0.7968]},{"header":{"parameterUnit":"m.s-1","parameterCategory":1,"la1":30.6,"la2":28.766,"lo1":-90.7593,"lo2":-88.6598,"dy":0.0162,"dx":0.0183,"nx":116,"ny":114,"refTime":"2023-05-02T18:00:00:Z","depth":0,"parameterNumber":3,"parameterNumberName":"V-component_of_WINDS"},"data":[0.0,0.0,0.0,0.0,0.0,0.0,0.0,0.0,0.0,0.0,0.0,0.0,0.0,0.0,0.0,0.0,0.0,0.0,0.0,0.0,0.0,0.0,0.0,0.0,0.0,0.0,0.0,0.0,0.0,0.0,0.0,0.0,0.0,0.0,0.0,0.0,0.0,0.0,0.0,0.0,0.0,0.0,0.0,0.0,0.0,0.0,0.0,0.0,0.0,0.0,0.0,0.0,0.0,0.0,0.0,0.0,0.0,0.0,0.0,0.0,0.0,0.0,0.0,0.0,0.0,0.0,0.0,0.0,0.0,0.0,0.0,0.0,0.0,0.0,0.0,0.0,0.0,0.0,0.0,0.0,0.0,0.0,0.0,0.0,0.0,0.0,0.0,0.0,0.0,0.0,0.0,0.0,0.0,0.0,0.0,0.0,0.0,0.0,0.0,0.0,0.0,0.0,0.0,0.0,0.0,0.0,0.0,0.0,0.0,0.0,0.0,0.0,0.0,0.0,0.0,0.0,0.0,0.0,0.0,0.0,0.0,0.0,0.0,0.0,0.0,0.0,0.0,0.0,0.0,0.0,0.0,0.0,0.0,0.0,0.0,0.0,0.0,0.0,0.0,0.0,0.0,0.0,0.0,0.0,0.0,0.0,0.0,0.0,0.0,0.0,0.0,0.0,0.0,0.0,0.0,0.0,0.0,0.0,0.0,0.0,0.0,0.0,0.0,0.0,0.0,0.0,0.0,0.0,0.0,0.0,0.0,0.0,0.0,0.0,0.0,0.0,0.0,0.0,0.0,0.0,0.0,0.0,0.0,0.0,0.0,0.0,0.0,0.0,0.0,0.0,0.0,0.0,0.0,0.0,0.0,0.0,0.0,0.0,0.0,0.0,0.0,0.0,0.0,0.0,0.0,0.0,0.0,0.0,0.0,0.0,0.0,0.0,0.0,0.0,0.0,0.0,0.0,0.0,0.0,0.0,0.0,0.0,0.0,0.0,0.0,0.0,0.0,0.0,0.0,0.0,0.0,0.0,0.0,0.0,0.0,0.0,0.0,0.0,0.0,0.0,0.0,0.0,0.0,0.0,0.0,0.0,0.0,0.0,0.0,0.0,0.0,0.0,0.0,0.0,0.0,0.0,0.0,0.0,0.0,0.0,0.0,0.0,0.0,0.0,0.0,0.0,0.0,0.0,0.0,0.0,0.0,0.0,0.0,0.0,0.0,0.0,0.0,0.0,0.0,0.0,0.0,0.0,0.0,0.0,0.0,0.0,0.0,0.0,0.0,0.0,0.0,0.0,0.0,0.0,0.0,0.0,0.0,0.0,0.0,0.0,0.0,0.0,0.0,0.0,0.0,0.0,0.0,0.0,0.0,0.0,0.0,0.0,0.0,0.0,0.0,0.0,0.0,0.0,0.0,0.0,0.0,0.0,0.0,0.0,0.0,0.0,0.0,0.0,0.0,0.0,0.0,0.0,0.0,0.0,0.0,0.0,0.0,0.0,0.0,0.0,0.0,0.0,0.0,0.0,0.0,0.0,0.0,0.0,0.0,0.0,0.0,0.0,0.0,0.0,0.0,0.0,0.0,0.0,0.0,0.0,0.0,0.0,0.0,0.0,0.0,0.0,0.0,0.0,0.0,0.0,0.0,0.0,0.0,0.0,0.0,0.0,0.0,0.0,0.0,0.0,0.0,0.0,0.0,0.0,0.0,0.0,0.0,0.0,0.0,0.0,0.0,0.0,0.0,0.0,0.0,0.0,0.0,0.0,0.0,0.0,0.0,0.0,0.0,0.0,0.0,0.0,0.0,0.0,0.0,0.0,0.0,0.0,0.0,0.0,0.0,0.0,0.0,0.0,0.0,0.0,0.0,0.0,0.0,0.0,0.0,0.0,0.0,0.0,0.0,0.0,0.0,0.0,0.0,0.0,0.0,0.0,0.0,0.0,0.0,0.0,0.0,0.0,0.0,0.0,0.0,0.0,0.0,0.0,0.0,0.0,0.0,0.0,0.0,0.0,0.0,0.0,0.0,0.0,0.0,0.0,0.0,0.0,0.0,0.0,0.0,0.0,0.0,0.0,0.0,0.0,0.0,0.0,0.0,0.0,0.0,0.0,0.0,0.0,0.0,0.0,0.0,0.0,0.0,0.0,0.0,0.0,0.0,0.0,0.0,0.0,0.0,0.0,0.0,0.0,0.0,0.0,0.0,0.0,0.0,0.0,0.0,0.0,0.0,0.0,0.0,0.0,0.0,0.0,0.0,0.0,0.0,0.0,0.0,0.0,0.0,0.0,0.0,0.0,0.0,0.0,0.0,0.0,0.0,0.0,0.0,0.0,0.0,0.0,0.0,0.0,0.0,0.0,0.0,0.0,0.0,0.0,0.0,0.0,0.0,0.0,0.0,0.0,0.0,0.0,0.0,0.0,0.0,0.0,0.0,0.0,0.0,0.0,0.0,0.0,0.0,0.0,0.0,0.0,0.0,0.0,0.0,0.0,0.0,0.0,0.0,0.0,0.0,0.0,0.0,0.0,0.0,0.0,0.0,0.0,0.0,0.0,0.0,0.0,0.0,0.0,0.0,0.0,0.0,0.0,0.0,0.0,0.0,0.0,0.0,0.0,0.0,0.0,0.0,0.0,0.0,0.0,0.0,0.0,0.0,0.0,0.0,0.0,0.0,0.0,0.0,0.0,0.0,0.0,0.0,0.0,0.0,0.0,0.0,0.0,0.0,0.0,0.0,0.0,0.0,0.0,0.0,0.0,0.0,0.0,0.0,0.0,0.0,0.0,0.0,0.0,0.0,0.0,0.0,0.0,0.0,0.0,0.0,0.0,0.0,0.0,0.0,0.0,0.0,0.0,0.0,0.0,0.0,0.0,0.0,0.0,0.0,0.0,0.0,0.0,0.0,0.0,0.0,0.0,0.0,0.0,0.0,0.0,0.0,0.0,0.0,0.0,0.0,0.0,0.0,0.0,0.0,0.0,0.0,0.0,0.0,0.0,0.0,0.0,0.0,0.0,0.0,0.0,0.0,0.0,0.0,0.0,0.0,0.0,0.0,0.0,0.0,0.0,0.0,0.0,0.0,0.0,0.0,0.0,0.0,0.0,0.0,0.0,0.0,0.0,0.0,0.0,0.0,0.0,0.0,0.0,0.0,0.0,0.0,0.0,0.0,0.0,0.0,0.0,0.0,0.0,0.0,0.0,0.0,0.0,0.0,0.0,0.0,0.0,0.0,0.0,0.0,0.0,0.0,0.0,0.0,0.0,0.0,0.0,0.0,0.0,0.0,0.0,0.0,0.0,0.0,0.0,0.0,0.0,0.0,0.0,0.0,0.0,0.0,0.0,0.0,0.0,0.0,0.0,0.0,0.0,0.0,0.0,0.0,0.0,0.0,0.0,0.0,0.0,0.0,0.0,0.0,0.0,0.0,0.0,0.0,0.0,0.0,0.0,0.0,0.0,0.0,0.0,0.0,0.0,0.0,0.0,0.0,0.0,0.0,0.0,0.0,0.0,0.0,0.0,0.0,0.0,0.0,0.0,0.0,0.0,0.0,0.0,0.0,0.0,0.0,0.0,0.0,0.0,0.0,0.0,0.0,0.0,0.0,0.0,0.0,0.0,0.0,0.0,0.0,0.0,0.0,0.0,0.0,0.0,0.0,0.0,0.0,0.0,0.0,0.0,0.0,0.0,0.0,0.0,0.0,0.0,0.0,0.0,0.0,0.0,0.0,0.0,0.0,0.0,0.0,0.0,0.0,0.0,0.0,0.0,0.0,0.0,0.0,0.0,0.0,0.0,0.0,0.0,0.0,0.0,0.0,0.0,0.0,0.0,0.0,0.0,0.0,0.0,0.0,0.0,0.0,0.0,0.0,0.0,0.0,0.0,0.0,0.0,0.0,0.0,0.0,0.0,0.0,0.0,0.0,0.0,0.0,0.0,0.0,0.0,0.0,0.0,0.0,0.0,0.0,0.0,0.0,0.0,0.0,0.0,0.0,0.0,0.0,0.0,0.0,0.0,0.0,0.0,0.0,0.0,0.0,0.0,0.0,0.0,0.0,0.0,0.0,0.0,0.0,0.0,0.0,0.0,0.0,0.0,0.0,0.0,0.0,0.0,0.0,0.0,0.0,0.0,0.0,0.0,0.0,0.0,0.0,0.0,0.0,0.0,0.0,0.0,0.0,0.0,0.0,0.0,0.0,0.0,0.0,0.0,0.0,0.0,0.0,0.0,0.0,0.0,0.0,0.0,0.0,0.0,0.0,0.0,0.0,0.0,0.0,0.0,0.0,0.0,0.0,0.0,0.0,0.0,0.0,0.0,0.0,0.0,0.0,0.0,0.0,0.0,0.0,0.0,0.0,0.0,0.0,0.0,0.0,0.0,0.0,0.0,0.0,0.0,0.0,0.0,0.0,0.0,0.0,0.0,0.0,0.0,0.0,0.0,0.0,0.0,0.0,0.0,0.0,0.0,0.0,0.0,0.0,0.0,0.0,0.0,0.0,0.0,0.0,0.0,0.0,0.0,0.0,0.0,0.0,0.0,0.0,0.0,0.0,0.0,0.0,0.0,0.0,0.0,0.0,0.0,0.0,0.0,0.0,0.0,0.0,0.0,0.0,0.0,0.0,0.0,0.0,0.0,0.0,0.0,0.0,0.0,0.0,0.0,0.0,0.0,0.0,0.0,0.0,0.0,0.0,0.0,0.0,0.0,0.0,0.0,0.0,0.0,0.0,0.0,0.0,0.0,0.0,0.0,0.0,0.0,0.0,0.0,0.0,0.0,0.0,0.0,0.0,0.0,0.0,0.0,0.0,0.0,0.0,0.0,0.0,0.0,0.0,0.0,0.0,0.0,0.0,0.0,0.0,0.0,0.0,0.0,0.0,0.0,0.0,0.0,0.0,0.0,0.0,0.0,0.0,0.0,0.0,0.0,0.0,0.0,0.0,0.0,0.0,0.0,0.0,0.0,0.0,0.0,0.0,0.0,0.0,0.0,0.0,0.0,0.0,0.0,0.0,0.0,0.0,0.0,0.0,0.0,0.0,0.0,0.0,0.0,0.0,0.0,0.0,0.0,0.0,0.0,0.0,0.0,0.0,0.0,0.0,0.0,0.0,0.0,0.0,0.0,0.0,0.0,0.0,0.0,0.0,0.0,0.0,0.0,0.0,0.0,0.0,0.0,0.0,0.0,0.0,0.0,0.0,0.0,0.0,0.0,0.0,0.0,0.0,0.0,0.0,0.0,0.0,0.0,0.0,0.0,0.0,0.0,0.0,0.0,0.0,0.0,0.0,0.0,0.0,0.0,0.0,0.0,0.0,0.0,0.0,0.0,0.0,0.0,0.0,0.0,0.0,0.0,0.0,0.0,0.0,0.0,0.0,0.0,0.0,0.0,0.0,0.0,0.0,0.0,0.0,0.0,0.0,0.0,0.0,0.0,0.0,0.0,0.0,0.0,0.0,0.0,0.0,0.0,0.0,0.0,0.0,0.0,0.0,0.0,0.0,0.0,0.0,0.0,0.0,0.0,0.0,0.0,0.0,0.0,0.0,0.0,0.0,0.0,0.0,0.0,0.0,0.0,0.0,0.0,0.0,0.0,0.0,0.0,0.0,0.0,0.0,0.0,0.0,0.0,0.0,0.0,0.0,0.0,0.0,0.0,0.0,0.0,0.0,0.0,0.0,0.0,0.0,0.0,0.0,0.0,0.0,0.0,0.0,0.0,0.0,0.0,0.0,0.0,0.0,0.0,0.0,0.0,0.0,0.0,0.0,0.0,0.0,0.0,0.0,0.0,0.0,0.0,0.0,0.0,0.0,0.0,0.0,0.0,0.0,0.0,0.0,0.0,0.0,0.0,0.0,0.0,0.0,0.0,0.0,0.0,0.0,0.0,0.0,0.0,0.0,0.0,0.0,0.0,0.0,0.0,0.0,0.0,0.0,0.0,0.0,0.0,0.0,0.0,0.0,0.0,0.0,0.0,0.0,0.0,0.0,0.0,0.0,0.0,0.0,0.0,0.0,0.0,0.0,0.0,0.0,0.0,0.0,0.0,0.0,0.0,0.0,0.0,0.0,0.0,0.0,0.0,0.0,0.0,0.0,0.0,0.0,0.0,0.0,0.0,2.8102,2.7623,0.0,0.0,0.0,0.0,0.0,0.0,0.0,0.0,0.0,0.0,0.0,0.0,0.0,0.0,0.0,0.0,0.0,0.0,0.0,0.0,0.0,0.0,0.0,0.0,0.0,0.0,0.0,0.0,0.0,0.0,0.0,0.0,0.0,0.0,0.0,0.0,0.0,0.0,0.0,0.0,0.0,0.0,0.0,0.0,0.0,0.0,0.0,0.0,0.0,0.0,0.0,0.0,0.0,0.0,0.0,0.0,0.0,0.0,0.0,0.0,0.0,0.0,0.0,0.0,0.0,0.0,0.0,0.0,0.0,0.0,0.0,0.0,0.0,0.0,0.0,0.0,0.0,0.0,0.0,0.0,0.0,0.0,0.0,0.0,0.0,0.0,0.0,0.0,0.0,0.0,0.0,0.0,0.0,0.0,0.0,0.0,0.0,0.0,0.0,0.0,0.0,0.0,0.0,0.0,0.0,0.0,0.0,0.0,0.0,0.0,0.0,0.0,0.0,0.0,3.0794,2.9486,0.0,0.0,0.0,0.0,0.0,0.0,0.0,0.0,0.0,0.0,0.0,0.0,0.0,0.0,0.0,0.0,0.0,0.0,0.0,0.0,0.0,0.0,0.0,0.0,0.0,0.0,0.0,0.0,0.0,0.0,0.0,0.0,0.0,0.0,0.0,0.0,0.0,0.0,0.0,0.0,0.0,0.0,0.0,0.0,0.0,0.0,0.0,0.0,0.0,0.0,0.0,0.0,0.0,0.0,0.0,0.0,0.0,0.0,0.0,0.0,0.0,0.0,0.0,0.0,0.0,0.0,0.0,0.0,0.0,0.0,0.0,0.0,0.0,0.0,0.0,0.0,0.0,0.0,0.0,0.0,0.0,0.0,0.0,0.0,0.0,0.0,0.0,0.0,0.0,0.0,0.0,0.0,0.0,0.0,0.0,0.0,0.0,0.0,0.0,0.0,0.0,0.0,0.0,0.0,0.0,0.0,0.0,0.0,3.5965,3.6365,3.5981,3.7661,3.8046,3.7215,3.4449,3.2484,3.1269,3.0962,0.0,0.0,0.0,0.0,0.0,0.0,0.0,0.0,0.0,0.0,0.0,0.0,0.0,0.0,0.0,0.0,0.0,0.0,0.0,0.0,0.0,0.0,0.0,0.0,0.0,0.0,0.0,0.0,0.0,0.0,0.0,0.0,0.0,0.0,0.0,0.0,0.0,0.0,3.3621,3.3734,3.4195,3.4793,0.0,0.0,0.0,0.0,0.0,0.0,0.0,0.0,0.0,0.0,0.0,0.0,0.0,0.0,0.0,0.0,0.0,0.0,0.0,0.0,0.0,0.0,0.0,0.0,0.0,0.0,0.0,0.0,0.0,0.0,0.0,0.0,0.0,0.0,0.0,0.0,0.0,0.0,0.0,0.0,0.0,0.0,0.0,0.0,2.9484,2.7912,0.0,0.0,0.0,0.0,0.0,0.0,0.0,0.0,0.0,0.0,0.0,0.0,0.0,3.5465,3.6815,3.8492,3.8338,3.6407,3.9504,3.9812,3.7738,3.9415,4.0112,3.9973,3.9531,0.0,3.4712,3.3196,0.0,0.0,0.0,0.0,0.0,0.0,0.0,0.0,0.0,0.0,0.0,0.0,0.0,0.0,0.0,0.0,0.0,0.0,0.0,0.0,0.0,0.0,0.0,0.0,0.0,0.0,0.0,0.0,0.0,0.0,0.0,0.0,0.0,0.0,0.0,0.0,3.3001,3.4051,3.4369,3.4811,3.5253,3.5596,3.4088,3.3285,3.2979,3.1754,0.0,0.0,0.0,0.0,0.0,0.0,0.0,0.0,0.0,0.0,0.0,0.0,0.0,0.0,0.0,0.0,0.0,0.0,0.0,0.0,0.0,0.0,0.0,0.0,0.0,0.0,0.0,0.0,0.0,0.0,0.0,0.0,0.0,0.0,0.0,0.0,0.0,0.0,0.0,3.066,3.1176,2.9503,3.1218,3.2045,0.0,0.0,0.0,0.0,0.0,0.0,0.0,0.0,0.0,3.6337,3.8081,3.9388,4.0119,4.1354,4.2124,4.2446,4.3495,4.3896,4.375,4.4025,4.4152,4.4091,4.3123,4.1601,3.9616,3.6894,3.5218,3.433,0.0,0.0,0.0,0.0,3.4446,3.4388,0.0,0.0,0.0,0.0,0.0,0.0,0.0,0.0,0.0,0.0,0.0,0.0,0.0,0.0,0.0,3.2692,0.0,0.0,0.0,0.0,0.0,0.0,0.0,0.0,0.0,0.0,0.0,0.0,3.5513,3.648,3.6363,3.7197,3.7482,3.7293,3.7099,3.5908,3.3994,3.268,3.1917,0.0,0.0,0.0,0.0,0.0,0.0,0.0,0.0,0.0,0.0,0.0,0.0,0.0,0.0,0.0,0.0,0.0,0.0,0.0,0.0,0.0,0.0,0.0,0.0,0.0,0.0,0.0,0.0,0.0,0.0,0.0,0.0,0.0,0.0,0.0,0.0,0.0,0.0,3.1968,3.2772,3.0654,3.3218,3.4664,0.0,0.0,0.0,0.0,0.0,0.0,3.8273,3.9758,4.0496,4.0277,4.2336,4.3533,4.3777,4.4412,4.5682,4.7565,4.6761,4.7028,4.8208,4.7601,4.7213,4.6938,4.5633,4.448,4.3288,3.9988,3.7918,3.6771,3.6565,3.66,3.683,3.7215,3.7126,3.6925,0.0,0.0,0.0,0.0,0.0,0.0,0.0,0.0,0.0,0.0,0.0,0.0,0.0,0.0,3.3474,3.4312,3.3757,3.3331,0.0,0.0,0.0,0.0,0.0,0.0,0.0,0.0,0.0,3.7791,3.8746,4.0034,4.1638,4.2515,4.247,4.1641,4.0871,3.913,3.6552,3.4071,3.3496,3.4007,0.0,0.0,0.0,0.0,0.0,0.0,0.0,0.0,0.0,0.0,0.0,0.0,0.0,0.0,0.0,0.0,0.0,0.0,0.0,0.0,0.0,0.0,0.0,0.0,0.0,0.0,0.0,0.0,0.0,0.0,0.0,0.0,0.0,0.0,0.0,0.0,0.0,0.0,0.0,3.0808,3.4773,0.0,0.0,0.0,0.0,3.8915,3.9785,4.0993,4.2681,4.3585,4.4784,4.641,4.7373,4.8281,4.9095,4.9153,4.9249,4.9365,4.8559,4.8212,4.8289,4.8254,4.7772,4.7,4.69,4.5935,4.4214,4.1493,4.0369,4.0268,3.9434,3.9569,4.0169,3.9434,3.9676,4.011,0.0,0.0,0.0,0.0,0.0,0.0,0.0,0.0,0.0,0.0,0.0,0.0,0.0,3.5021,3.6619,3.6921,3.7162,3.7069,3.6549,0.0,0.0,0.0,0.0,0.0,0.0,0.0,3.7503,3.977,4.121,4.2225,4.2843,4.3143,4.3127,4.2821,4.2531,4.1583,3.9978,3.6861,3.5104,3.4278,3.28,3.1869,0.0,0.0,0.0,0.0,0.0,0.0,0.0,0.0,0.0,0.0,0.0,0.0,0.0,0.0,0.0,0.0,0.0,0.0,0.0,0.0,0.0,0.0,0.0,0.0,0.0,0.0,0.0,0.0,0.0,0.0,0.0,0.0,0.0,0.0,0.0,0.0,0.0,3.6972,3.995,0.0,4.0069,4.0931,4.2085,4.3263,4.4662,4.5969,4.7163,4.8557,4.9605,5.0235,5.1088,5.169,5.2017,5.0898,5.0628,5.1168,4.9785,4.943,4.9956,4.9439,4.9026,4.8698,4.8091,4.7515,4.6897,4.5333,4.3728,4.2236,4.1932,4.1982,4.2194,4.1924,4.2013,4.2174,0.0,0.0,0.0,0.0,0.0,0.0,0.0,0.0,0.0,0.0,0.0,3.3923,3.4495,3.7284,3.9231,3.9527,3.9243,3.8725,3.7904,0.0,0.0,0.0,0.0,0.0,0.0,3.8194,4.0034,4.2021,4.3179,4.3885,4.4136,4.4136,4.4001,4.3746,4.3746,4.3243,4.2299,4.0014,3.776,3.5641,3.479,3.4083,3.3364,0.0,0.0,0.0,0.0,0.0,0.0,0.0,0.0,0.0,0.0,0.0,0.0,0.0,0.0,0.0,0.0,0.0,0.0,0.0,0.0,0.0,0.0,0.0,0.0,0.0,0.0,0.0,0.0,0.0,0.0,0.0,0.0,0.0,0.0,3.9484,4.1532,4.1766,4.4335,4.5753,4.4904,4.5595,4.657,4.7702,4.885,5.0005,5.1162,5.2057,5.2677,5.2961,5.3544,5.3843,5.3876,5.2737,5.2292,5.2563,5.1144,5.0634,5.0881,5.0349,4.9954,4.9664,4.9042,4.864,4.8349,4.7739,4.648,4.4897,4.4272,4.4048,4.4048,4.4048,4.4056,4.4048,0.0,0.0,0.0,0.0,0.0,0.0,0.0,0.0,0.0,0.0,3.3552,3.5215,3.685,3.9301,4.1148,4.1967,3.9704,3.7907,3.7128,3.3821,0.0,0.0,0.0,0.0,3.8292,4.0017,4.2109,4.4636,4.4636,4.5045,4.5803,4.5823,4.5416,4.4636,4.4694,4.421,4.3382,4.3405,4.1526,3.8423,3.7563,3.7158,3.6897,0.0,0.0,0.0,0.0,0.0,0.0,0.0,0.0,0.0,0.0,0.0,0.0,0.0,0.0,0.0,0.0,0.0,0.0,0.0,0.0,0.0,0.0,0.0,0.0,0.0,0.0,0.0,0.0,0.0,0.0,0.0,0.0,0.0,3.965,4.3153,4.5492,4.4656,4.7615,4.9369,4.8446,4.9202,5.0424,5.2055,5.2229,5.2962,5.4564,5.3932,5.3892,5.47,5.4733,5.4774,5.4832,5.4813,5.4387,5.354,5.2651,5.1796,5.0975,5.0956,5.0515,4.9784,4.9742,4.9262,4.8488,4.845,4.843,4.8268,4.6476,4.5769,4.5746,4.5746,4.5773,4.5672,0.0,0.0,0.0,0.0,0.0,0.0,0.0,0.0,0.0,0.0,3.4533,3.6725,3.7814,4.1284,4.3372,4.2973,4.0619,3.9045,3.8822,0.0,0.0,0.0,0.0,0.0,4.1832,4.2376,4.3556,4.5474,4.5474,4.5571,4.5803,4.6442,4.6287,4.5533,4.6786,4.6515,4.5153,4.5831,4.4896,4.2753,4.068,3.9478,3.8695,0.0,0.0,0.0,0.0,0.0,0.0,0.0,0.0,0.0,0.0,0.0,0.0,0.0,0.0,0.0,0.0,0.0,0.0,0.0,0.0,0.0,0.0,0.0,0.0,0.0,0.0,0.0,0.0,0.0,0.0,0.0,4.3416,4.5068,4.4837,4.6911,4.8831,4.9836,5.1386,5.2248,5.1999,5.2726,5.3425,5.3888,5.5079,5.5734,5.5609,5.5993,5.6054,5.5642,5.5642,5.5651,5.5659,5.5084,5.4677,5.4426,5.356,5.3018,5.2763,5.2124,5.1722,5.149,5.0844,5.0438,5.0167,4.9587,4.9339,4.9239,4.8098,4.7279,4.6718,4.6718,4.632,4.577,0.0,0.0,0.0,0.0,0.0,0.0,0.0,0.0,0.0,0.0,3.5131,3.7451,3.8674,4.1947,4.3572,4.2357,4.089,3.9288,3.7489,0.0,0.0,0.0,0.0,4.0884,4.3243,4.3982,4.501,4.6345,4.6345,4.6538,4.6906,4.7409,4.737,4.6925,4.7947,4.7831,4.6909,4.7475,4.7166,4.6161,4.4678,4.3132,4.1541,3.9794,3.9343,3.9398,3.7686,3.77,3.8236,3.6425,0.0,0.0,0.0,0.0,0.0,0.0,0.0,0.0,0.0,0.0,0.0,0.0,0.0,0.0,0.0,0.0,0.0,0.0,0.0,0.0,0.0,0.0,0.0,0.0,4.7094,4.9464,5.0561,5.1279,5.2186,5.3522,5.4813,5.5565,5.5542,5.5652,5.5739,5.5739,5.6674,5.7036,5.6567,5.7367,5.7617,5.7114,5.6723,5.6549,5.6549,5.5718,5.5122,5.4793,5.4291,5.3846,5.3463,5.2593,5.2206,5.2148,5.1269,5.0898,5.0859,5.0399,5.0206,5.007,0.0,0.0,0.0,0.0,4.679,4.6287,0.0,0.0,0.0,0.0,0.0,0.0,0.0,0.0,0.0,0.0,0.0,3.7424,3.891,4.1354,4.226,4.0774,4.0465,3.8743,0.0,0.0,0.0,3.8505,4.0984,4.2744,4.3711,4.5281,4.6461,4.7254,4.7254,4.7637,4.8392,4.8508,4.8488,4.8411,4.8701,4.872,4.8566,4.874,4.8757,4.8646,4.8646,4.7179,4.4801,4.3153,4.2946,4.3316,4.1568,4.1092,4.1142,4.0096,0.0,0.0,0.0,0.0,0.0,0.0,0.0,0.0,0.0,0.0,0.0,0.0,0.0,0.0,0.0,0.0,0.0,0.0,0.0,0.0,0.0,0.0,0.0,0.0,5.0777,5.3354,5.5903,5.5648,5.5455,5.6126,5.7611,5.8571,5.8529,5.7861,5.7458,5.7458,5.7535,5.7516,5.7303,5.8217,0.0,0.0,0.0,5.7303,5.7303,5.6433,5.564,5.4948,5.4948,5.4523,5.3749,5.2883,5.2496,5.2438,5.1559,5.1192,5.1192,5.1095,5.0999,5.0743,4.9165,4.8546,4.843,4.7563,4.7254,4.7138,0.0,0.0,0.0,0.0,0.0,0.0,0.0,0.0,0.0,3.1939,3.4339,3.6076,3.6406,3.8708,4.01,3.9771,3.8472,3.7309,0.0,0.0,3.787,4.1119,4.3089,4.481,4.6322,4.7366,4.7985,4.814,4.814,4.8237,4.8411,4.9126,4.9068,4.8488,5.0542,5.0712,4.9533,5.089,5.0693,4.9477,4.9477,4.8364,4.6613,4.5627,4.4888,4.416,4.2444,4.269,4.3476,4.1302,4.1353,4.1973,4.0088,0.0,0.0,0.0,0.0,0.0,0.0,0.0,0.0,0.0,0.0,0.0,0.0,0.0,0.0,0.0,0.0,0.0,0.0,0.0,0.0,5.0498,5.3098,5.5485,5.7559,5.8135,5.8261,5.8109,5.8386,5.8584,5.8575,5.8449,5.8357,5.8357,5.899,5.8778,5.7381,5.8797,5.899,5.7593,5.74,5.7303,5.7303,5.6433,5.5911,5.5776,5.5776,0.0,5.5485,5.4677,5.4291,5.4252,5.3382,5.2995,5.2937,5.2244,5.1525,5.0801,4.9838,4.9455,4.9339,4.8469,4.814,4.8121,0.0,0.0,0.0,0.0,0.0,0.0,0.0,0.0,0.0,0.0,3.3322,3.4563,3.4991,3.658,3.7254,3.6361,3.5508,0.0,0.0,3.8992,4.0771,4.3772,4.5568,4.6883,4.7734,4.8179,4.8604,4.9049,4.9049,4.9262,4.9664,5.0109,5.007,4.9722,5.1432,5.1722,5.1022,5.2302,5.2128,5.0945,5.0945,4.9945,4.8361,4.7511,4.6929,4.6432,4.5609,4.5567,4.565,4.4008,4.3697,4.3621,4.1488,4.0178,3.91,0.0,0.0,0.0,0.0,0.0,0.0,0.0,0.0,0.0,0.0,0.0,0.0,0.0,0.0,4.4409,4.6906,0.0,5.1217,5.3706,5.5892,5.7633,5.861,5.9473,5.9813,5.9316,5.9524,5.9737,5.9837,5.9498,5.9246,5.9246,5.9653,5.9319,5.8023,5.9184,5.93,5.7985,5.7535,5.7303,5.7303,5.6433,5.6008,5.6008,5.6008,5.6008,5.5969,5.4716,5.4155,5.4097,5.3231,5.2844,5.2825,5.238,5.1699,5.0859,5.0457,5.0302,5.0206,4.9359,4.9049,4.8991,0.0,0.0,0.0,0.0,0.0,0.0,0.0,0.0,0.0,0.0,0.0,3.3051,3.3598,3.443,3.4447,0.0,0.0,0.0,0.0,4.1161,4.3208,4.5919,4.7715,4.8643,4.8643,4.8972,4.9397,4.9935,4.9935,5.0264,5.0898,5.0898,5.0999,5.1192,5.2066,5.2554,5.2767,5.3614,5.3482,5.2689,0.0,0.0,5.0094,4.9223,4.8715,4.8459,4.8284,4.7705,4.6902,4.6256,4.5441,4.4399,4.2647,4.2188,4.1735,3.8955,3.9077,0.0,0.0,0.0,0.0,0.0,0.0,0.0,0.0,0.0,4.2729,4.5306,4.6536,4.818,5.1576,5.2914,5.4224,5.6454,5.8132,5.9237,5.9485,6.0221,6.0586,6.019,6.0561,6.0917,6.1084,6.0518,6.0132,6.0132,6.0132,5.9691,5.8647,5.9575,5.9571,5.8395,5.783,5.7477,5.7303,5.6433,5.6008,5.6008,5.6008,5.6008,5.595,5.4445,5.3846,5.3942,5.3076,5.2709,5.2709,5.2729,5.2113,5.12,5.137,5.1242,5.087,5.0197,4.9942,4.9826,0.0,0.0,0.0,0.0,0.0,0.0,0.0,0.0,0.0,0.0,0.0,0.0,0.0,0.0,0.0,0.0,0.0,0.0,4.0465,4.1509,4.3479,4.6809,4.8624,4.9548,4.9548,5.1006,5.1447,5.0763,5.0763,5.0801,5.0898,5.0898,5.1308,5.209,5.2979,5.3768,5.4561,5.5374,0.0,0.0,0.0,0.0,5.1838,5.0941,4.9695,4.8301,4.7527,4.6709,4.5948,4.5851,4.5336,4.489,4.6058,4.4953,4.3153,4.2702,0.0,3.8292,3.7906,3.8018,3.8731,4.0843,4.0873,4.1778,0.0,0.0,4.8035,5.0475,5.2262,5.3434,5.3543,5.4908,5.634,5.7404,5.8391,5.9394,6.0466,6.0575,6.0636,6.0925,6.1022,6.108,6.1094,6.1021,6.0963,6.0963,6.0963,6.0267,5.8685,6.0093,5.9876,5.7516,5.8101,5.8081,5.7303,5.6433,5.6008,5.6008,5.6008,5.6008,5.5969,5.5064,5.5045,5.5679,5.4851,5.4503,5.4512,5.4572,5.3633,5.2221,5.3065,5.2443,5.1053,5.0913,5.0851,5.0745,0.0,0.0,0.0,0.0,0.0,0.0,0.0,0.0,0.0,0.0,0.0,0.0,0.0,0.0,0.0,0.0,0.0,0.0,3.9146,4.1948,4.4813,4.7734,4.9074,4.9986,5.0451,5.1148,5.1322,5.0951,5.0925,5.0898,5.0898,5.0898,5.1095,5.1505,5.2879,5.3695,5.4136,5.5447,0.0,0.0,0.0,0.0,5.1351,5.0515,4.9146,4.7602,4.7235,4.6245,0.0,0.0,4.4137,4.4098,4.5275,4.4595,4.3133,4.2148,4.1483,0.0,4.101,4.1048,4.1434,4.2934,4.4175,4.5953,4.9468,5.0379,5.1153,5.3567,5.494,5.5898,5.6624,5.7296,5.8049,5.9009,5.9352,5.9781,6.0514,6.0111,5.968,5.9482,5.9128,5.9469,6.0963,6.0673,6.0596,6.106,6.1099,6.0364,5.8685,5.9266,5.8681,5.6607,5.6902,5.6921,5.6549,5.6182,5.6008,5.5988,5.5524,5.5296,5.5258,5.3904,5.3749,5.4565,5.4773,5.4851,5.482,5.4377,5.3476,5.235,5.2223,5.1746,5.1041,5.0506,5.0299,5.0189,0.0,0.0,0.0,0.0,0.0,0.0,0.0,0.0,0.0,0.0,0.0,0.0,0.0,0.0,0.0,0.0,0.0,0.0,0.0,4.1413,4.4762,4.75,4.9014,0.0,5.0984,5.1469,5.1731,5.1732,5.1696,5.1551,5.1319,5.1319,5.1307,5.1343,5.2856,5.3657,5.3942,5.5161,0.0,0.0,0.0,0.0,5.0724,4.9204,4.754,4.6071,4.6322,4.5316,0.0,0.0,4.2241,4.2396,4.3285,4.3111,4.2454,4.1703,4.2144,4.2802,4.2509,4.2999,4.3805,4.4855,4.7258,4.9787,5.1483,5.2916,5.4424,5.6381,5.7298,5.8074,5.9064,5.9182,5.9338,6.0089,6.0135,6.0127,6.0263,5.9588,5.8836,5.8167,5.723,5.7565,5.987,5.9559,5.9522,6.0376,6.0416,5.9778,5.8353,5.8508,5.7839,5.6102,5.6296,5.6296,5.6063,5.6063,5.5947,5.5715,5.5134,5.4727,5.4456,5.3181,5.2949,5.3592,5.4271,5.4703,5.4843,5.3808,5.286,5.1983,5.1125,5.0664,5.0392,4.977,4.9642,4.969,0.0,0.0,0.0,0.0,0.0,0.0,0.0,0.0,0.0,0.0,0.0,0.0,0.0,0.0,0.0,0.0,0.0,0.0,0.0,3.9358,4.2334,4.5556,4.8332,5.0186,5.0972,5.2658,5.3546,5.3611,5.3611,5.318,5.2342,5.2342,5.2327,5.2302,5.321,5.4037,5.4755,5.4813,5.4813,0.0,0.0,0.0,5.0534,4.7196,4.4875,4.3534,4.4365,0.0,0.0,0.0,3.9617,3.9771,4.0642,4.089,0.0,4.2763,4.2667,4.1848,4.1007,4.2581,4.485,4.6518,4.9463,5.2444,5.4183,5.6506,5.852,5.9309,6.0129,6.0573,6.0215,6.016,6.016,6.0206,6.0418,6.0379,5.9798,5.9206,5.8494,5.7624,5.6074,5.5747,5.7433,5.7478,5.7764,5.8699,5.871,5.8314,5.7482,5.8242,5.7928,5.6243,5.702,5.7058,5.6207,5.6188,5.5799,5.5019,5.5,5.4553,5.3734,5.3676,5.366,5.3708,5.3727,5.4213,5.4873,5.3227,5.202,5.1164,5.0343,4.9563,4.8861,4.8842,4.9281,4.9676,0.0,0.0,0.0,0.0,0.0,0.0,0.0,0.0,0.0,0.0,0.0,0.0,0.0,0.0,0.0,0.0,0.0,0.0,0.0,3.8035,4.0781,4.2983,4.5615,4.7422,4.8322,4.944,5.008,5.0174,5.0051,5.0212,5.0672,5.0571,5.0894,5.1538,5.2405,5.2931,5.3177,5.3806,5.4031,5.3832,0.0,0.0,4.9796,4.6324,4.3595,4.1451,0.0,0.0,0.0,0.0,3.7331,3.8028,3.9481,0.0,3.9417,4.1142,4.1816,4.2428,4.4408,4.6425,4.8346,5.0034,5.2593,5.4987,5.616,5.7537,5.8602,5.8703,5.8024,5.7332,5.7053,5.6575,5.6461,5.7162,5.7761,5.8353,5.8944,5.8256,5.7177,5.5877,5.4704,5.4028,5.4103,5.5597,5.719,5.8667,5.8696,5.832,5.7506,5.7695,5.7334,5.623,5.6486,5.6233,5.5417,5.5398,5.4987,5.4132,5.3546,5.2828,5.2015,5.3164,5.3692,5.3753,5.4925,5.4955,5.4116,5.3027,5.1704,5.0322,4.9522,4.904,4.8729,4.8146,4.8468,4.9099,0.0,0.0,0.0,0.0,0.0,0.0,0.0,0.0,0.0,0.0,0.0,0.0,0.0,0.0,0.0,0.0,0.0,0.0,0.0,0.0,3.7879,3.9821,4.2117,4.3782,4.4734,4.5538,4.6315,4.7036,4.7198,4.769,4.845,4.8994,4.9433,4.9829,5.0992,5.1462,5.1425,5.1719,5.1451,5.0671,4.8612,4.7114,4.5816,4.2937,4.0655,0.0,0.0,0.0,0.0,0.0,3.5065,3.6149,3.6964,3.8083,3.9359,4.0465,4.2244,4.4442,4.726,4.9281,5.0999,5.2695,5.4815,5.6607,5.7168,5.7987,5.8413,5.7665,5.6391,5.5258,5.4776,5.3736,5.3262,5.4222,5.4559,5.5216,5.6645,5.5784,5.5016,5.4943,5.3875,5.3207,5.3377,5.4588,5.5931,5.7369,5.7672,5.7587,5.7097,5.6767,5.6486,5.6303,5.6011,5.558,5.5075,5.5075,5.4472,5.3302,5.2427,5.1708,5.1205,5.2335,5.3016,5.3369,5.4495,5.4193,5.283,5.2007,5.0657,4.9021,4.8185,4.7873,4.7834,4.7581,4.7659,4.7873,0.0,0.0,0.0,0.0,0.0,0.0,0.0,0.0,0.0,0.0,0.0,0.0,0.0,0.0,0.0,0.0,0.0,0.0,0.0,0.0,0.0,3.6087,3.8018,3.9464,4.0404,4.1235,4.2518,4.4289,4.5027,4.5498,4.5724,4.7368,4.7753,4.7142,4.8732,4.9417,4.9298,4.8451,4.7149,4.5421,4.2895,0.0,3.9313,3.7563,0.0,0.0,0.0,0.0,0.0,0.0,3.3112,3.4469,3.3728,3.6903,4.0948,4.1084,4.4024,4.7618,4.9417,5.108,5.2747,5.4445,5.6085,5.7284,5.7192,5.7856,5.8009,5.6219,5.513,5.4213,0.0,0.0,5.0778,5.1525,5.1266,5.1578,5.3332,5.2418,5.2463,0.0,0.0,0.0,0.0,5.4351,5.4207,5.5049,5.5752,5.617,5.6233,5.5513,5.55,5.6349,5.5567,5.5117,5.5078,5.502,5.4162,5.2526,5.1708,5.13,5.13,5.1359,5.1824,5.2604,5.2604,5.2078,5.1164,5.0307,4.8945,4.7351,4.6511,4.6199,4.6298,4.7134,4.6938,4.6256,0.0,0.0,0.0,0.0,0.0,0.0,0.0,0.0,0.0,0.0,0.0,0.0,0.0,0.0,0.0,0.0,0.0,0.0,0.0,0.0,0.0,0.0,0.0,0.0,0.0,0.0,0.0,0.0,0.0,4.048,4.1395,4.1673,4.2129,0.0,4.3096,4.3231,4.3156,4.293,4.2558,4.1989,0.0,3.9965,3.9381,0.0,0.0,0.0,0.0,0.0,0.0,0.0,0.0,3.7422,3.8508,4.0597,4.3034,4.4933,4.7173,4.9552,5.1892,5.3323,5.4387,5.5427,5.6491,5.6992,5.5796,5.5668,5.5148,5.2851,5.0703,4.8962,4.8053,4.8083,4.8513,4.9356,5.1539,5.3479,5.4541,5.4885,0.0,5.505,0.0,5.4249,5.4178,5.4472,5.4825,5.5153,5.5307,5.5416,5.5487,5.5242,5.4933,5.4572,5.4357,5.3929,5.3266,5.2623,5.2078,5.163,5.1417,5.13,5.132,5.1961,5.2389,5.2604,5.2604,5.1747,5.0268,4.943,4.809,4.6501,4.6291,4.6203,4.6228,4.6447,4.6801,4.708,0.0,0.0,0.0,0.0,0.0,0.0,0.0,0.0,0.0,0.0,0.0,0.0,0.0,0.0,0.0,0.0,0.0,0.0,0.0,0.0,0.0,0.0,0.0,0.0,0.0,0.0,0.0,0.0,0.0,0.0,0.0,3.7881,3.8706,3.9358,3.9717,3.9832,3.9777,0.0,0.0,0.0,0.0,0.0,0.0,0.0,0.0,0.0,0.0,0.0,0.0,0.0,0.0,3.9146,4.1238,4.3305,4.5394,4.7599,4.9726,5.1757,5.3575,5.4697,5.5451,5.5892,5.6115,5.5803,5.4141,5.3478,5.2405,4.9501,4.7455,4.5952,4.5096,4.5038,4.5419,4.6311,4.8721,5.104,5.2645,5.358,5.4485,0.0,5.5257,0.0,5.4996,5.5013,5.5094,5.5189,5.5171,5.5168,5.5193,5.4431,5.3961,5.3909,5.3539,5.3091,5.2604,5.1747,5.13,5.13,5.13,5.13,5.132,5.1805,5.1824,5.1456,5.1456,5.0482,4.8867,4.8423,4.7433,4.6206,4.6201,4.6193,4.6205,4.6207,4.6511,4.6866,0.0,0.0,0.0,0.0,0.0,0.0,0.0,0.0,0.0,0.0,0.0,0.0,0.0,0.0,0.0,0.0,0.0,0.0,0.0,0.0,0.0,0.0,0.0,0.0,0.0,0.0,0.0,0.0,0.0,0.0,0.0,0.0,0.0,0.0,0.0,0.0,0.0,0.0,0.0,0.0,0.0,0.0,0.0,0.0,0.0,0.0,0.0,0.0,0.0,0.0,4.0062,4.0797,4.3343,4.5819,4.8124,4.9861,5.1931,5.3865,5.4716,5.5479,5.5986,5.587,5.5296,5.4268,5.2406,5.1313,4.9754,4.6456,4.506,4.422,4.3419,4.279,4.2687,4.3612,0.0,4.7332,4.9816,5.093,5.2645,5.5784,5.5429,5.5242,5.6072,5.5407,5.4969,5.5015,5.4922,5.4844,5.4844,5.3422,5.2896,5.3539,5.2818,5.2428,5.2428,5.1688,5.1242,5.1125,5.1131,5.1076,5.0979,5.0979,5.0555,4.982,4.9717,4.884,4.7488,4.7389,4.6897,4.6202,4.6199,4.6205,4.6206,4.6205,4.6204,4.6204,0.0,0.0,0.0,0.0,0.0,0.0,0.0,0.0,0.0,0.0,0.0,0.0,0.0,0.0,0.0,0.0,0.0,0.0,0.0,0.0,0.0,0.0,0.0,0.0,0.0,0.0,0.0,0.0,0.0,0.0,0.0,0.0,0.0,0.0,0.0,0.0,0.0,0.0,0.0,0.0,0.0,0.0,0.0,0.0,0.0,0.0,0.0,0.0,0.0,0.0,4.2999,4.5226,4.7792,4.9842,5.1664,5.3401,5.4233,5.4755,5.5563,5.5927,5.5924,5.5261,5.4483,5.3288,5.0867,4.9093,0.0,4.4589,4.3333,4.2486,4.1687,4.2519,4.3647,4.454,4.6738,4.8976,5.0811,5.1824,5.2877,0.0,5.4156,5.4105,5.4334,5.4156,5.4049,5.4119,5.3461,5.3052,5.3052,5.276,5.2331,5.1766,5.1591,5.1534,5.1534,5.1378,5.095,5.0229,5.027,4.9937,4.9236,4.9236,4.9156,4.8962,4.8256,4.7772,4.7443,4.6725,4.6363,4.6289,4.6226,4.6229,4.6289,4.6227,4.6204,4.6205,0.0,0.0,0.0,0.0,0.0,0.0,0.0,0.0,0.0,0.0,2.5546,2.5539,0.0,0.0,0.0,0.0,0.0,0.0,0.0,0.0,0.0,0.0,0.0,0.0,0.0,0.0,0.0,0.0,0.0,0.0,0.0,0.0,0.0,0.0,0.0,0.0,0.0,0.0,0.0,0.0,0.0,0.0,0.0,0.0,0.0,0.0,0.0,0.0,0.0,0.0,4.2979,4.6364,4.9374,5.1196,5.2535,5.4291,5.4826,5.5037,5.5827,5.5811,5.5423,5.505,5.3663,5.1731,4.9187,0.0,0.0,4.2133,4.1255,4.0832,4.0499,4.1795,4.3054,4.3484,4.536,4.7366,4.9079,5.0424,5.1747,5.3071,5.3595,5.3864,5.3907,5.3868,5.3688,5.3264,5.2838,5.2604,5.2604,5.2175,5.1727,5.132,5.0852,5.0618,5.0618,5.0209,4.9795,4.9372,4.9413,4.9197,4.8803,4.8803,4.8555,4.8096,4.7677,4.7249,4.679,4.6405,4.6269,4.6307,4.6267,4.6264,4.6298,4.6266,4.6248,4.6267,0.0,0.0,0.0,0.0,0.0,0.0,0.0,2.5521,2.5538,2.5597,2.5601,2.5572,2.5534,2.5515,0.0,0.0,0.0,0.0,0.0,0.0,0.0,0.0,0.0,0.0,0.0,0.0,0.0,2.5886,2.7203,0.0,0.0,0.0,0.0,0.0,2.9321,0.0,0.0,0.0,0.0,0.0,0.0,0.0,0.0,0.0,0.0,0.0,0.0,0.0,0.0,0.0,4.1706,4.501,4.8252,5.05,5.2109,5.315,5.3852,5.4455,5.5106,5.5012,5.464,5.4268,5.2533,5.0223,4.7468,4.5153,0.0,4.0289,3.9719,3.9686,3.9758,4.0863,4.1871,0.0,4.3443,4.5028,4.6957,4.8358,4.9898,5.1824,5.2643,0.0,5.3325,5.3344,5.2974,5.2117,5.1883,5.1863,5.2039,5.1222,5.0755,5.0755,5.0092,4.9742,4.9742,4.9111,4.8707,4.8526,4.852,4.8439,4.8256,4.8256,4.7887,4.7244,4.7243,4.6853,4.623,4.6287,4.6304,4.6303,4.6308,4.6301,4.6301,4.6301,4.6301,4.6301,0.0,0.0,0.0,0.0,0.0,0.0,0.0,2.5594,2.5597,2.5601,2.5601,2.5598,2.5589,2.5591,0.0,0.0,0.0,0.0,0.0,0.0,0.0,0.0,0.0,0.0,0.0,0.0,0.0,2.6781,2.6938,0.0,0.0,0.0,0.0,0.0,0.0,2.9834,3.0545,0.0,0.0,0.0,0.0,0.0,0.0,0.0,0.0,0.0,0.0,0.0,0.0,0.0,0.0,4.0545,4.3169,4.7227,5.0759,4.9454,0.0,0.0,5.2607,5.3226,5.3436,5.1854,5.0773,4.922,4.5812,0.0,4.2772,4.0168,3.9617,3.9613,3.9624,3.9838,4.0529,0.0,0.0,4.3427,4.5964,4.6451,4.7464,4.9937,0.0,0.0,5.1456,5.1534,5.1183,5.0307,4.9566,4.9469,5.0209,4.9469,4.9021,4.9021,4.8943,4.8904,4.8904,4.8833,4.8405,4.7611,4.7613,4.7246,4.6522,4.6522,4.6499,4.6407,4.6402,4.6362,4.6288,4.6305,4.6304,4.6304,4.6302,4.6301,4.6301,4.6301,4.6301,4.6301,0.0,0.0,0.0,0.0,0.0,0.0,0.0,2.5653,2.5658,2.5652,2.5654,2.5654,2.5654,2.5658,2.5632,0.0,0.0,0.0,0.0,0.0,0.0,0.0,0.0,0.0,0.0,0.0,0.0,2.6118,2.6116,0.0,0.0,0.0,0.0,0.0,0.0,2.8822,2.9064,0.0,0.0,0.0,0.0,0.0,0.0,0.0,0.0,0.0,0.0,0.0,3.5797,0.0,0.0,0.0,3.8721,4.1525,0.0,0.0,4.8796,5.0355,5.1879,5.2638,5.2694,5.1464,4.9766,4.7624,4.4736,0.0,4.0613,3.8527,3.8095,3.8268,3.8778,3.9328,4.0101,0.0,0.0,0.0,4.3562,4.3856,4.4812,4.7405,4.8631,4.941,4.9761,5.0229,5.017,4.9333,4.8495,4.8165,4.8475,4.869,4.8806,4.8806,4.8292,4.8014,4.8014,4.7505,4.7077,4.6774,4.6777,4.6617,4.6295,4.6295,4.6291,4.6301,4.6291,4.6309,4.6301,4.6301,4.6301,4.6301,4.6301,4.6301,4.6301,4.6301,4.6301,4.6301,0.0,0.0,0.0,0.0,0.0,0.0,2.5694,2.5695,2.5699,2.5703,2.5703,2.5703,2.5703,2.5701,2.5671,2.5634,0.0,0.0,0.0,0.0,0.0,0.0,0.0,0.0,0.0,0.0,0.0,2.597,2.6,2.6453,0.0,0.0,2.764,2.8239,0.0,0.0,0.0,0.0,0.0,0.0,0.0,0.0,0.0,0.0,0.0,0.0,0.0,0.0,0.0,0.0,0.0,0.0,0.0,0.0,0.0,0.0,4.588,4.7796,4.9563,5.067,5.1106,5.0231,4.8271,4.5976,0.0,0.0,3.9176,3.7437,3.7097,3.7277,3.7855,3.8644,3.9535,0.0,0.0,4.06,4.2096,4.2296,4.3174,4.5535,4.6899,4.7854,4.838,4.8923,4.9021,4.8458,4.762,4.7113,4.7113,4.7698,4.8036,4.8032,4.744,4.7127,4.7117,4.6535,4.625,4.6307,4.6304,4.6296,4.6301,4.6301,4.6301,4.6301,4.6301,4.6301,4.6301,4.6301,4.6301,4.6301,4.6301,4.6301,4.6301,4.6301,4.6301,4.6301,0.0,0.0,0.0,0.0,0.0,0.0,0.0,2.5703,2.5703,2.5702,2.5703,2.5703,2.5702,2.5703,2.5703,2.5703,0.0,0.0,0.0,0.0,0.0,0.0,0.0,0.0,0.0,0.0,0.0,0.0,0.0,2.7422,2.828,2.828,2.8299,2.8297,0.0,0.0,0.0,0.0,0.0,0.0,0.0,0.0,0.0,0.0,0.0,0.0,0.0,0.0,0.0,0.0,0.0,0.0,0.0,0.0,0.0,0.0,4.1365,4.4653,4.4743,4.6626,4.8335,4.7459,4.6016,4.4372,0.0,4.0869,3.9111,3.7364,3.7045,3.7052,3.6945,3.7676,3.86,3.9477,0.0,0.0,4.2174,4.2296,4.294,4.4717,4.4933,4.5613,4.7347,4.7522,4.7522,4.7503,4.6704,4.6217,4.6217,4.6217,4.6222,4.6224,4.6225,4.6202,4.6203,4.6269,4.6307,4.6307,4.6293,4.6301,4.6301,4.6301,4.6301,4.6301,4.6301,4.6301,4.6301,4.6301,4.6301,4.6301,4.6301,4.6301,4.6301,4.6301,4.6301,4.6301,0.0,0.0,0.0,0.0,0.0,0.0,0.0,2.5703,2.5703,2.5703,2.5703,2.5469,2.4883,2.5332,2.5469,2.4863,0.0,0.0,0.0,0.0,0.0,0.0,0.0,0.0,0.0,0.0,0.0,0.0,0.0,0.0,0.0,0.0,2.7419,2.7419,2.7395,2.704,0.0,0.0,0.0,0.0,0.0,0.0,0.0,0.0,0.0,0.0,0.0,0.0,0.0,0.0,0.0,0.0,0.0,0.0,0.0,0.0,0.0,0.0,4.1549,4.3054,4.4067,4.384,4.2917,4.1638,3.9985,3.867,3.7502,3.6344,3.6123,3.6304,3.6873,3.7176,3.7838,3.9349,3.9849,0.0,0.0,4.1928,4.2737,4.3872,4.5066,4.6236,4.7386,4.6957,4.6602,4.6616,4.6363,4.62,4.6203,4.6204,4.6199,4.6207,4.6207,4.6224,4.6269,4.6282,4.6293,4.6293,4.6304,4.6301,4.6301,4.6301,4.6301,4.6301,4.6301,4.6301,4.6301,4.6301,4.6301,4.6301,4.6301,4.6301,4.6301,4.6301,4.6301,4.6301,0.0,0.0,0.0,0.0,0.0,0.0,0.0,2.5215,2.5098,2.4765,2.5019,2.5,2.4453,2.4883,2.5117,2.4902,0.0,0.0,0.0,0.0,0.0,0.0,0.0,0.0,0.0,0.0,0.0,0.0,0.0,0.0,0.0,0.0,0.0,0.0,2.6517,0.0,0.0,0.0,0.0,0.0,0.0,0.0,3.1498,0.0,0.0,0.0,0.0,0.0,0.0,0.0,0.0,0.0,0.0,0.0,0.0,0.0,3.3301,3.5207,0.0,3.9727,4.0638,4.0685,3.9998,0.0,0.0,3.7167,3.6355,3.5802,3.5703,3.5876,3.6403,3.6715,3.7381,3.887,3.9398,4.0032,4.1272,4.1932,4.2622,4.35,4.4851,4.5925,4.647,4.6333,4.6199,4.6205,4.5904,4.5859,4.6184,4.5598,4.5401,4.5748,4.607,4.6269,4.6301,4.6309,4.6301,4.6301,4.6301,4.6301,4.6301,4.6301,4.6301,4.6281,4.5948,4.5812,0.0,4.5812,4.5617,4.5383,4.6047,4.6105,4.5851,4.6184,4.6301,4.6301,0.0,0.0,0.0,0.0,0.0,0.0,0.0,0.0,0.0,0.0,2.3984,2.4473,2.4413,2.4394,2.4727,0.0,0.0,0.0,0.0,0.0,0.0,0.0,0.0,0.0,0.0,0.0,0.0,0.0,2.57,2.5698,2.5693,0.0,0.0,0.0,0.0,0.0,0.0,0.0,0.0,0.0,0.0,0.0,0.0,0.0,0.0,0.0,0.0,0.0,0.0,0.0,0.0,0.0,0.0,0.0,0.0,0.0,0.0,0.0,0.0,3.6516,3.7751,3.7834,3.7232,3.6646,3.6718,3.6108,0.0,3.5585,3.5604,3.5628,3.5695,3.6361,3.721,3.8138,3.9025,4.0184,4.1866,4.2262,4.2682,4.35,4.4421,4.4913,4.4741,4.5561,4.6071,4.6038,4.5336,4.5267,4.607,4.4643,4.4159,4.4978,4.574,4.6145,4.6203,4.6203,4.6242,4.6301,4.6301,4.6262,4.6203,4.6203,4.6164,4.6066,4.5264,4.4913,4.4913,4.4913,4.4426,4.3861,4.5481,4.5656,4.5108,4.5909,4.6242,4.6301,0.0,0.0,0.0,0.0,0.0,0.0,0.0,0.0,0.0,0.0,0.0,2.5137,2.4473,2.4394,0.0,0.0,0.0,0.0,0.0,0.0,0.0,0.0,0.0,0.0,0.0,0.0,0.0,2.5701,2.5695,2.569,2.5708,2.5708,0.0,0.0,0.0,0.0,0.0,0.0,0.0,0.0,0.0,0.0,0.0,0.0,0.0,0.0,3.0902,3.0863,0.0,0.0,0.0,0.0,0.0,0.0,0.0,0.0,3.0598,3.0772,3.1584,0.0,3.3487,3.4192,3.4187,3.4012,0.0,0.0,0.0,0.0,0.0,3.491,3.5574,3.6361,3.7196,3.8081,3.8952,3.991,4.0975,4.2336,4.3284,4.3494,4.4931,4.5121,4.3184,4.4324,4.4953,4.4335,4.4726,4.5077,4.5262,4.491,4.4791,4.4981,4.4552,4.4628,4.5303,4.5303,4.5636,4.6301,4.6301,4.5948,4.5303,4.5303,4.4933,4.431,4.4095,4.4017,4.4017,4.4017,4.388,4.3744,4.4154,4.4582,4.5011,4.5225,4.5734,4.6301,0.0,0.0,0.0,0.0,0.0,0.0,0.0,0.0,0.0,0.0,0.0,0.0,0.0,0.0,0.0,0.0,0.0,0.0,0.0,0.0,0.0,0.0,0.0,0.0,0.0,0.0,0.0,0.0,0.0,2.609,0.0,0.0,0.0,0.0,0.0,0.0,0.0,0.0,0.0,0.0,2.8655,0.0,0.0,0.0,0.0,0.0,3.0787,3.0788,0.0,3.0284,2.9563,2.8936,0.0,0.0,0.0,0.0,3.0302,3.0614,3.0633,3.1205,3.1918,3.2435,3.2822,3.3115,3.3149,0.0,0.0,0.0,0.0,3.4665,3.5532,3.6052,3.6767,3.8002,3.8628,3.9389,4.0669,4.1658,4.2589,4.3443,4.4055,4.4174,4.3603,4.4029,4.4168,4.373,4.3764,4.397,4.4388,4.3645,4.3391,4.3781,4.2962,4.3119,4.4387,4.4406,4.4641,4.511,4.511,4.4856,4.4406,4.4406,4.4153,4.3685,4.3274,4.3099,4.3099,4.3099,4.2865,4.2592,4.3392,4.3997,4.4406,4.4406,4.5207,4.6242,0.0,0.0,0.0,0.0,0.0,0.0,0.0,0.0,0.0,0.0,0.0,0.0,0.0,0.0,0.0,0.0,0.0,0.0,0.0,0.0,0.0,0.0,0.0,0.0,0.0,0.0,0.0,0.0,0.0,0.0,0.0,0.0,0.0,0.0,0.0,0.0,0.0,0.0,0.0,0.0,2.7952,0.0,0.0,0.0,0.0,0.0,0.0,0.0,0.0,2.9776,2.8934,2.8208,2.8195,0.0,0.0,0.0,0.0,0.0,3.0286,3.1056,3.1796,3.1647,3.2164,3.2757,3.2877,0.0,0.0,0.0,0.0,0.0,3.5532,3.5803,3.6342,3.777,3.8377,3.9319,4.1194,4.1423,4.189,4.3233,4.2977,4.3057,4.4025,4.3757,4.3456,4.3318,4.2739,4.2728,4.3451,4.2104,4.1635,4.2376,4.1557,4.1811,4.3295,4.3431,4.3568,4.3705,4.3705,4.3626,4.3509,4.3509,4.3431,4.3256,4.2513,4.2201,4.2201,4.2201,4.1771,4.1246,4.2729,4.3373,4.3509,4.3509,4.4524,4.5793,0.0,0.0,0.0,0.0,0.0,0.0,0.0,0.0,0.0,0.0,0.0,0.0,0.0,0.0,0.0,0.0,0.0,0.0,0.0,0.0,0.0,0.0,0.0,0.0,0.0,0.0,0.0,0.0,0.0,0.0,2.5614,2.5819,2.5838,0.0,0.0,0.0,0.0,0.0,0.0,0.0,2.7952,0.0,0.0,0.0,0.0,0.0,0.0,0.0,0.0,2.9627,2.9002,2.826,2.8224,0.0,0.0,0.0,0.0,0.0,2.8494,3.0201,3.1775,3.098,3.0886,3.1158,3.1831,0.0,0.0,0.0,0.0,0.0,0.0,3.6265,3.6803,3.7055,3.8962,4.1257,4.3679,4.4072,4.3685,4.2556,4.3592,4.3401,4.0839,4.1816,4.2283,4.1546,4.2066,4.2454,4.259,4.2357,4.2258,4.2395,4.1557,4.1226,4.15,4.222,4.2962,4.3705,4.3705,4.3314,4.259,4.259,4.2201,4.1499,4.1362,4.1304,4.1304,4.1304,4.1226,4.1129,4.1382,4.1948,4.259,4.259,4.3235,4.4075,0.0,0.0,0.0,0.0,0.0,0.0,0.0,0.0,0.0,0.0,0.0,0.0,0.0,0.0,0.0,0.0,0.0,0.0,0.0,0.0,0.0,0.0,0.0,0.0,0.0,0.0,0.0,0.0,0.0,2.6085,2.5595,2.5628,2.541,2.5003,0.0,0.0,0.0,0.0,0.0,0.0,0.0,0.0,0.0,0.0,0.0,0.0,0.0,0.0,0.0,0.0,2.9726,2.9004,2.8962,0.0,0.0,0.0,0.0,0.0,2.8339,2.9436,3.0581,3.0116,3.1016,3.1868,0.0,0.0,0.0,0.0,0.0,0.0,0.0,3.6651,3.7212,3.8144,3.8914,3.9978,4.1603,4.1496,4.1315,4.1486,4.1856,4.1858,4.1269,4.1504,4.1522,4.1131,4.1463,4.1697,4.1694,4.1693,4.1693,4.1693,4.1304,4.0874,4.0405,4.0795,4.1205,4.1596,4.1596,4.1381,4.1009,4.1009,4.103,4.1109,4.1109,4.1109,4.1109,4.1109,4.1109,4.1109,4.1109,4.1635,4.2454,4.2923,4.306,4.3001,0.0,0.0,0.0,0.0,0.0,0.0,0.0,0.0,0.0,0.0,0.0,0.0,0.0,0.0,0.0,0.0,0.0,0.0,0.0,0.0,0.0,0.0,0.0,0.0,0.0,0.0,2.5643,2.5601,2.6275,2.625,2.5626,2.5403,2.4999,0.0,0.0,0.0,0.0,0.0,0.0,0.0,0.0,0.0,0.0,0.0,0.0,0.0,0.0,0.0,0.0,0.0,0.0,0.0,0.0,0.0,0.0,2.8535,2.8591,2.878,2.8164,2.8633,2.9199,2.8722,3.049,0.0,0.0,0.0,0.0,0.0,0.0,0.0,0.0,3.69,3.7475,3.9232,3.9135,3.9201,4.03,3.991,3.9943,4.1085,4.0722,4.0762,4.1719,4.1211,4.0721,4.053,4.0512,4.0511,4.0506,4.0505,4.0504,4.0504,4.0504,4.0191,3.9527,3.9527,3.9527,3.9527,3.9527,3.9527,3.9527,3.9527,3.9996,4.0796,4.0796,4.0913,4.1109,4.1109,4.1109,4.1109,4.1109,4.1518,4.2181,4.2846,4.267,4.2123,0.0,0.0,0.0,0.0,0.0,0.0,0.0,0.0,0.0,0.0,0.0,0.0,0.0,0.0,0.0,0.0,0.0,0.0,0.0,0.0,0.0,0.0,0.0,0.0,0.0,2.5644,2.56,2.5596,2.5651,2.5684,2.5681,2.4861,2.4453,2.4378,0.0,0.0,0.0,0.0,0.0,0.0,0.0,0.0,0.0,0.0,0.0,0.0,0.0,0.0,0.0,0.0,0.0,0.0,0.0,0.0,2.9414,2.8555,2.7773,2.7168,2.7109,2.7734,2.8008,2.6387,2.7882,0.0,3.2515,3.3052,0.0,3.6066,0.0,0.0,0.0,3.69,3.7484,3.9296,4.0221,4.1297,4.2986,4.3155,4.2902,4.2266,4.2156,4.1579,4.0205,4.0026,3.9657,3.884,3.8778,3.8776,3.8775,3.877,3.8786,3.8786,3.8786,3.8747,3.8689,3.8689,3.8689,3.8689,3.8689,3.8689,3.8689,3.8689,3.9137,3.9897,3.9897,4.0346,4.1109,4.1109,4.1109,4.1109,4.1109,4.1147,4.1206,4.1265,4.1245,4.1304,0.0,0.0,0.0,0.0,0.0,0.0,0.0,0.0,0.0,0.0,0.0,0.0,0.0,0.0,0.0,0.0,0.0,0.0,0.0,0.0,0.0,0.0,0.0,2.5445,2.4899,2.539,2.5659,2.5667,2.5627,2.5639,2.5683,2.4802,0.0,0.0,0.0,0.0,0.0,0.0,2.4906,2.5844,2.7604,0.0,0.0,0.0,0.0,0.0,0.0,0.0,0.0,0.0,2.8691,2.8867,0.0,2.9121,2.8828,2.9043,2.8105,2.6992,2.6992,2.7246,2.7461,2.7344,2.7636,0.0,0.0,3.2091,3.3315,3.3716,3.5887,0.0,0.0,3.7793,3.8573,3.8764,3.998,4.1133,4.1855,4.1945,4.1646,4.0845,4.0778,4.0351,3.9191,3.9097,3.8942,3.8626,3.8608,3.8607,3.8605,3.8603,3.8602,3.8602,3.8599,3.8345,3.7801,3.7794,3.752,3.6997,3.7538,3.779,3.779,3.779,3.8259,3.9059,3.9059,3.9235,3.9587,4.0093,4.0288,4.0346,4.0894,4.1109,4.1109,4.1109,4.1109,4.1147,0.0,0.0,0.0,0.0,0.0,0.0,0.0,0.0,0.0,0.0,0.0,0.0,0.0,0.0,0.0,0.0,0.0,0.0,0.0,0.0,0.0,0.0,0.0,2.5428,2.4823,2.539,2.5563,2.5282,2.5515,2.5663,2.5683,0.0,0.0,0.0,0.0,0.0,0.0,0.0,2.4594,2.5026,2.6787,2.7472,0.0,0.0,0.0,0.0,0.0,0.0,0.0,0.0,2.8314,0.0,0.0,0.0,0.0,2.8979,2.8119,2.6967,2.697,2.6971,2.7128,2.7734,0.0,0.0,2.9945,3.1805,3.3322,3.3785,3.618,3.7925,3.7055,0.0,3.8546,3.8012,3.9167,4.0177,4.0238,4.0234,4.0032,3.9487,3.9453,3.9157,3.8277,3.8182,3.7968,3.7419,3.7615,3.7653,3.7377,3.7631,3.7786,3.7785,3.7783,3.7491,3.6908,3.6882,3.6588,3.6007,3.6607,3.6896,3.6891,3.6891,3.7379,3.8181,3.8181,3.8357,3.8669,3.9468,3.9956,4.0249,4.0562,4.0855,4.1109,4.1109,4.1109,4.1147,0.0,0.0,0.0,0.0,0.0,0.0,0.0,0.0,0.0,0.0,0.0,0.0,0.0,0.0,0.0,0.0,0.0,0.0,0.0,0.0,0.0,0.0,0.0,2.5702,2.5683,2.5683,2.5252,2.4417,2.5277,2.5698,2.5683,2.4802,0.0,0.0,0.0,0.0,0.0,0.0,2.3874,2.3234,2.4991,2.5698,2.578,0.0,0.0,0.0,0.0,0.0,0.0,0.0,2.6756,2.8028,0.0,0.0,0.0,2.8204,2.7578,2.6881,2.6912,2.6918,2.6923,2.6992,0.0,0.0,3.1718,3.2664,3.4132,3.7495,3.8154,3.7886,3.7038,3.6956,3.7014,3.7074,3.7883,3.8501,3.8593,3.8594,3.8594,3.8592,3.8592,3.826,3.7361,3.7283,3.6561,3.4844,3.5507,3.5603,3.4741,3.5503,3.5989,3.5985,3.5989,3.5972,3.5991,3.5991,3.5991,3.5991,3.5991,3.6006,3.5992,3.5992,3.6461,3.7282,3.7282,3.7771,3.863,3.9449,4.0288,4.0991,4.0132,4.0327,4.1109,4.1109,4.1109,4.1226,0.0,0.0,0.0,0.0,0.0,0.0,0.0,0.0,0.0,0.0,0.0,0.0,0.0,0.0,0.0,0.0,0.0,0.0,0.0,0.0,0.0,0.0,0.0,0.0,0.0,0.0,2.4394,2.5311,2.5565,2.5703,0.0,0.0,0.0,2.4361,0.0,0.0,0.0,0.0,2.3015,2.2453,2.478,2.5329,2.4941,0.0,0.0,0.0,0.0,0.0,0.0,0.0,0.0,0.0,0.0,0.0,0.0,2.7833,2.7148,2.6248,2.7487,2.7371,0.0,2.7696,0.0,0.0,0.0,3.2179,0.0,0.0,3.5469,3.491,3.5875,3.6574,3.6837,3.6344,3.7003,3.7817,3.8496,3.8066,3.7694,3.7694,3.7693,3.7342,3.6463,3.6386,3.6172,3.5644,3.5293,3.496,3.4705,3.4354,3.4179,3.4176,3.4177,3.4471,3.5078,3.5095,3.5387,3.5994,3.5992,3.6009,3.6007,3.6003,3.6138,3.6392,3.6386,3.6539,3.6832,3.7692,3.8882,4.0151,3.9897,4.0327,4.1109,4.1109,4.1109,4.1147,0.0,0.0,0.0,0.0,0.0,0.0,0.0,0.0,0.0,0.0,0.0,0.0,0.0,0.0,0.0,0.0,0.0,0.0,0.0,0.0,0.0,0.0,0.0,0.0,0.0,2.3789,2.4023,0.0,0.0,0.0,0.0,0.0,0.0,2.4889,0.0,2.3678,0.0,0.0,2.2824,2.2515,2.404,2.4569,2.455,0.0,0.0,0.0,0.0,0.0,0.0,0.0,0.0,0.0,0.0,0.0,0.0,2.6816,2.6617,2.6262,2.7355,2.7769,0.0,2.8555,2.9847,3.1251,3.2193,0.0,0.0,0.0,3.5614,3.4869,3.5591,3.5903,3.5791,3.5032,3.5357,3.5893,3.6445,3.6074,3.5741,3.5742,3.5741,3.5546,3.5019,3.4961,3.4824,3.4512,3.4297,3.4023,3.369,3.3496,3.3398,3.3397,3.3398,3.3828,3.4687,3.4706,3.5135,3.5996,3.5995,3.5994,3.5994,3.601,3.6006,3.6004,3.5996,3.6207,3.6539,3.6719,3.7794,3.9316,3.9316,3.9863,4.0663,4.0973,4.1109,4.1109,0.0,0.0,0.0,0.0,0.0,0.0,0.0,0.0,0.0,0.0,0.0,0.0,0.0,0.0,0.0,0.0,0.0,0.0,0.0,0.0,0.0,0.0,0.0,0.0,0.0,0.0,0.0,0.0,0.0,0.0,0.0,0.0,2.5694,2.5693,0.0,2.5223,2.4348,2.3547,2.318,2.3105,2.3183,2.3691,2.4492,2.5371,0.0,0.0,0.0,0.0,0.0,0.0,0.0,0.0,2.5504,2.5499,2.5499,2.5492,2.6068,2.672,2.6868,2.8116,2.9362,2.9296,3.1121,0.0,3.316,3.4931,3.6776,3.755,3.7202,3.651,3.5728,3.4964,3.4231,3.3513,3.3336,3.332,3.3398,3.334,3.332,3.3398,3.3398,3.3398,3.3398,3.3398,3.3105,3.2363,3.293,3.2949,3.2147,3.2773,3.3164,3.3163,3.3164,3.3633,3.457,3.457,3.5059,3.5996,3.5996,3.5996,3.5996,3.5994,3.6009,3.6005,3.5998,3.6443,3.7128,3.6334,3.698,3.8483,3.8482,3.9009,3.9867,4.0604,4.0875,4.0875,0.0,0.0,0.0,0.0,0.0,0.0,0.0,0.0,0.0,0.0,0.0,0.0,0.0,0.0,0.0,0.0,0.0,0.0,0.0,0.0,0.0,0.0,0.0,0.0,0.0,0.0,0.0,0.0,0.0,0.0,0.0,0.0,0.0,2.5708,0.0,2.5225,2.4387,2.4194,2.3728,2.3163,2.3847,2.4238,2.4492,2.5371,2.5703,0.0,0.0,0.0,0.0,0.0,0.0,0.0,2.5517,2.5492,2.5509,2.5509,2.6068,2.6843,2.7545,2.8521,0.0,2.8468,2.9232,3.068,3.2749,3.3576,3.3772,3.3294,3.4136,3.4733,3.3978,3.3696,3.3532,3.3415,3.2871,3.2676,3.3301,3.2851,3.2695,3.332,3.3398,3.3398,3.3398,3.3398,3.332,3.3144,3.2715,3.2344,3.2108,3.1679,3.1445,3.1444,3.1445,3.2168,3.3652,3.3672,3.4453,3.5996,3.5996,3.5996,3.5996,3.5995,3.5993,3.6009,3.6008,3.6103,3.6275,3.6082,3.6629,3.7584,3.7579,3.8108,3.8892,3.9062,3.9138,3.9138,0.0,0.0,0.0,0.0,0.0,0.0,0.0,0.0,0.0,0.0,0.0,0.0,0.0,0.0,0.0,0.0,0.0,0.0,0.0,0.0,0.0,0.0,0.0,0.0,0.0,0.0,0.0,0.0,0.0,0.0,0.0,0.0,0.0,2.5695,0.0,2.5444,2.4997,2.4588,2.4374,2.4355,2.4394,2.4648,2.5078,2.5527,2.5703,2.5703,2.5703,0.0,0.0,0.0,0.0,0.0,0.0,0.0,2.5505,2.5501,2.6068,2.6899,2.7757,2.8649,0.0,2.9727,0.0,3.0498,3.266,3.313,3.2856,3.1985,3.2883,3.3592,3.2867,3.2362,3.2085,3.2187,3.1464,3.1053,3.1523,3.1582,3.1582,3.1582,3.1953,3.2207,3.2207,3.2207,3.2207,3.2207,3.1816,3.1562,3.1523,3.1133,3.0898,3.0898,3.0898,3.1523,3.2812,3.2832,3.3476,3.4766,3.5176,3.5605,3.5996,3.5995,3.5994,3.5973,3.5562,3.5384,3.5383,3.5384,3.5658,3.6146,3.6964,3.7589,3.8039,3.8443,3.8596,3.8595,0.0,0.0,0.0,0.0,0.0,0.0,0.0,0.0,0.0,0.0,0.0,0.0,0.0,0.0,0.0,0.0,0.0,0.0,0.0,0.0,0.0,0.0,0.0,0.0,0.0,0.0,0.0,0.0,0.0,0.0,0.0,0.0,0.0,2.57,0.0,0.0,2.5644,2.4921,2.5039,2.5644,2.4902,2.5059,2.5703,2.5703,2.5703,2.5703,2.5703,2.5703,2.5703,2.5703,0.0,0.0,0.0,0.0,2.5507,2.5494,2.6068,2.6861,2.7583,2.8414,2.9478,3.1176,3.0982,0.0,3.2314,3.2662,3.2469,3.1734,3.2311,3.2681,3.179,3.1001,3.0478,3.0447,2.978,2.9308,2.9375,3.0137,3.0351,2.9473,3.0273,3.084,3.0684,3.0801,3.084,3.0684,3.0684,3.0684,3.0684,3.0684,3.0742,3.0898,3.0898,3.1328,3.2187,3.2207,3.2598,3.3418,3.4121,3.4844,3.5547,3.5546,3.5624,3.5741,3.5017,3.4606,3.4488,3.4471,3.4471,3.4628,3.6052,3.6638,3.6736,3.7608,3.7937,3.7955,0.0,0.0,0.0,0.0,0.0,0.0,0.0,0.0,0.0,0.0,0.0,0.0,0.0,0.0,0.0,0.0,0.0,0.0,0.0,0.0,0.0,0.0,0.0,0.0,0.0,0.0,0.0,0.0,0.0,0.0,0.0,0.0,0.0,2.57,0.0,0.0,2.5683,2.5586,2.5586,2.5684,2.5566,2.5605,2.5703,2.5703,2.5703,2.5703,2.5703,2.5703,2.5703,2.5703,2.5699,0.0,0.0,0.0,2.5497,2.5491,2.6068,2.6723,2.6839,0.0,2.8591,0.0,3.0114,2.973,0.0,3.0926,3.0907,3.0772,3.14,3.1521,3.0032,2.9653,2.9355,2.8674,2.8464,2.841,2.8457,2.9219,2.9453,2.8574,2.9902,3.0605,2.9844,3.0469,3.0586,2.9824,2.9766,2.9766,2.9766,2.9766,3.0117,3.0879,3.0898,3.1328,3.2187,3.2207,3.2598,3.3398,3.3516,3.3633,3.375,3.375,3.416,3.4863,3.4746,3.4277,3.3573,3.3573,3.3573,3.3592,3.3824,3.3923,3.4021,3.4894,3.5222,3.5339,0.0,0.0,0.0,0.0,0.0,0.0,0.0,0.0,0.0,0.0,0.0,0.0,0.0,0.0,0.0,0.0,0.0,0.0,0.0,0.0,0.0,2.4411,2.3121,2.2261,0.0,0.0,0.0,0.0,0.0,0.0,0.0,2.4218,2.4863,0.0,0.0,0.0,0.0,2.5703,2.5703,2.5703,2.5703,2.5703,2.5703,2.5703,2.5703,2.5703,2.5703,2.5703,2.5703,2.5703,2.5674,2.5641,2.5601,0.0,0.0,0.0,2.5758,2.6126,2.6588,2.6977,2.7696,0.0,2.8857,2.8333,3.0172,3.0211,3.002,3.0501,3.0888,3.0763,2.9615,2.8976,2.8529,2.8253,2.7761,2.7603,2.8178,2.8574,2.8673,2.8298,2.8916,2.9234,2.8843,2.9199,2.9277,2.8906,2.8867,2.8867,2.8867,2.8867,2.9277,3.0137,3.0176,3.0586,3.1465,3.1465,3.1894,3.2734,3.2734,3.2969,3.3398,3.3398,3.3613,3.3945,3.3496,3.3086,3.2734,3.2734,3.2734,3.2773,3.3222,3.3398,3.3457,3.3825,3.3978,3.4034,0.0,0.0,0.0,0.0,0.0,0.0,0.0,0.0,0.0,0.0,0.0,0.0,0.0,0.0,0.0,0.0,0.0,0.0,0.0,0.0,0.0,2.4081,2.2866,2.2004,2.1575,0.0,0.0,0.0,0.0,0.0,2.4394,2.4629,2.5078,0.0,2.5703,2.5703,0.0,0.0,0.0,2.5703,2.5703,2.5703,2.5703,2.5703,2.5703,2.5703,2.5703,2.5703,2.5703,2.5681,2.5643,2.5598,2.5575,2.5544,0.0,0.0,0.0,2.5683,2.6472,0.0,2.7073,2.8588,2.7987,2.754,2.9495,2.9614,2.9478,3.0133,3.0443,3.035,2.953,2.8801,2.8291,2.8198,2.7426,2.7144,2.8077,2.8204,2.8126,2.7898,2.8267,2.8363,2.7915,2.8124,2.8203,2.7988,2.7969,2.7968,2.7969,2.7969,2.8476,2.957,2.9609,3.0019,3.0898,3.0898,3.123,3.1875,3.1875,3.2187,3.2754,3.2754,3.2754,3.2734,3.2363,3.2207,3.2187,3.1953,3.1992,3.2246,3.2617,3.2754,3.2793,3.2987,3.3064,3.3101,0.0,0.0,0.0,0.0,0.0,0.0,0.0,0.0,0.0,0.0,0.0,0.0,0.0,0.0,0.0,2.4423,0.0,0.0,0.0,0.0,0.0,2.3242,2.3081,0.0,2.0692,0.0,0.0,0.0,0.0,0.0,2.4414,2.5254,2.5664,2.5703,2.5703,2.5703,2.5703,0.0,0.0,0.0,2.5703,2.5703,2.5703,2.5703,2.5703,2.5703,2.5703,2.5703,2.5683,2.5632,2.5607,2.5591,2.5529,2.5503,2.5509,0.0,0.0,0.0,0.0,2.6704,0.0,2.7834,2.7991,2.7972,2.8107,2.8745,2.9304,2.9362,3.0017,3.0329,2.9465,2.9265,2.8985,2.8221,2.7414,2.7201,2.8076,2.8199,2.7882,2.7077,2.8439,2.877,2.7133,2.7771,2.7969,2.7129,2.707,2.707,2.707,2.707,2.7851,2.9551,2.9609,3.0019,3.0898,3.0898,3.0918,3.0976,3.0976,3.0996,3.1035,3.1035,3.1035,3.1074,3.1855,3.2207,3.2148,3.1309,3.1445,3.2129,3.1348,3.1035,3.1113,3.1894,3.2167,3.2283,0.0,0.0,0.0,0.0,0.0,0.0,0.0,0.0,0.0,0.0,0.0,0.0,0.0,0.0,2.5444,2.5161,2.4888,0.0,0.0,0.0,0.0,2.2359,2.1787,2.1474,2.1438,0.0,0.0,0.0,0.0,2.332,2.3633,2.3906,2.4336,2.4883,2.5449,2.5703,2.5703,2.5703,0.0,0.0,0.0,2.5703,2.5703,2.5703,2.5703,2.5703,2.5703,2.5703,2.5703,2.5672,2.5648,2.5592,2.5515,2.5508,2.5509,2.5509,2.5509,2.5567,0.0,0.0,0.0,2.6959,2.6787,2.6826,2.8453,2.8649,2.8784,2.9904,3.0385,3.0501,3.0192,2.9685,2.9029,2.8167,2.7327,2.7095,2.8019,2.7621,2.7142,2.6932,2.7452,2.7382,2.6233,2.6424,2.6504,2.6191,2.6172,2.6172,2.6172,2.6172,2.6719,2.7891,2.8476,2.9453,3.0898,3.0898,3.0898,3.0898,3.0855,3.0832,3.0832,3.0832,3.0832,3.0852,3.121,3.1367,3.1348,3.1035,3.1074,3.1328,3.1016,3.0898,3.0937,3.1211,3.1327,3.1366,0.0,0.0,0.0,0.0,0.0,0.0,0.0,0.0,0.0,0.0,0.0,0.0,0.0,0.0,2.5562,2.5572,2.4799,2.4312,2.4358,2.3036,2.2121,2.1874,2.1322,2.1163,0.0,0.0,0.0,0.0,0.0,0.0,0.0,2.3418,2.373,2.4844,2.5137,2.543,0.0,0.0,0.0,2.5703,2.5703,2.5703,2.5703,2.5703,2.5703,2.5703,2.5703,2.5703,2.5703,2.5665,2.5639,2.5571,2.5491,2.5489,2.5509,2.5509,2.5509,0.0,2.5509,0.0,0.0,2.6165,2.5894,2.5934,2.7638,2.7793,2.7989,2.9439,2.9962,3.025,3.0559,3.0133,2.9541,2.8978,2.8189,2.7958,2.8843,2.8205,2.7667,2.7739,2.7506,2.701,2.6174,2.5858,2.5703,2.5703,2.5703,2.5703,2.5703,2.5703,2.623,2.7402,2.8281,2.9434,3.0898,3.0898,3.0898,3.0898,3.0855,3.0828,3.0801,3.0801,3.0801,3.0801,3.0854,3.1054,3.1309,3.1016,3.1074,3.1309,3.1016,3.0898,3.0898,3.0898,3.0898,3.0898,0.0,0.0,0.0,0.0,0.0,0.0,0.0,0.0,0.0,0.0,0.0,0.0,0.0,0.0,0.0,2.5497,2.4778,2.4296,2.4293,2.351,2.2693,2.1873,0.0,0.0,0.0,0.0,0.0,0.0,0.0,0.0,0.0,0.0,2.4082,2.5625,2.4785,2.4883,2.5703,0.0,2.5703,2.5703,2.5703,2.5703,2.5703,2.5703,2.5703,2.5703,2.5703,2.5703,2.5683,2.5619,2.5594,2.5584,2.5441,2.5454,0.0,0.0,0.0,0.0,0.0,0.0,0.0,2.5509,2.5509,2.5509,2.5528,2.6145,2.6957,2.7817,2.8687,2.9556,3.0404,3.0578,3.0592,3.0595,2.9972,2.9772,3.0559,2.9965,2.9427,2.9369,2.8642,2.7831,2.6976,2.6169,2.5703,2.5703,2.5703,2.5703,2.5703,2.5703,2.6484,2.8203,2.9082,2.9941,3.0801,3.0859,3.0859,3.0859,3.0898,3.0856,3.08,3.08,3.0799,3.0798,3.08,3.132,3.209,3.125,3.1406,3.207,3.123,3.0898,3.0898,3.0898,3.0898,3.0898,0.0,0.0,0.0,0.0,0.0,0.0,0.0,0.0,0.0,0.0,0.0,0.0,0.0,0.0,0.0,2.5568,2.4795,2.4307,2.4299,2.2966,2.2331,2.2712,2.2206,0.0,0.0,0.0,0.0,0.0,0.0,0.0,0.0,0.0,0.0,0.0,2.4512,2.4883,2.5703,2.5703,2.5703,2.5703,2.5703,2.5703,2.5703,2.5703,2.5703,2.5703,2.5703,2.5703,2.5703,2.5686,2.5641,2.5585,2.5496,0.0,0.0,0.0,0.0,0.0,2.5509,0.0,0.0,0.0,0.0,0.0,2.6242,2.6549,2.6957,2.7817,2.8687,2.9362,2.9614,3.0172,3.0602,3.0595,2.9905,2.9421,2.9668,2.8952,2.8435,2.8453,2.7753,2.7162,2.6912,2.6169,2.5703,2.5703,2.5703,2.5703,2.5703,2.5703,2.6211,2.7324,2.7598,2.8144,2.9004,2.9648,2.9961,2.9961,3.0542,3.0798,3.0727,3.0727,3.0709,3.0655,3.0762,3.0941,3.1163,3.0976,3.1035,3.123,3.0996,3.0898,3.0898,3.0898,3.0898,3.0898,0.0,0.0,0.0,0.0,0.0,0.0,0.0,0.0,0.0,0.0,0.0,0.0,0.0,0.0,0.0,2.5562,2.4783,2.43,2.4308,2.3064,2.2565,2.3085,2.2656,2.2868,0.0,0.0,0.0,0.0,0.0,0.0,0.0,0.0,0.0,0.0,0.0,0.0,0.0,0.0,2.5703,2.5703,2.5703,2.5703,2.5703,2.5703,2.5703,2.5703,2.5703,2.5703,2.5699,2.5691,2.5641,2.5556,2.551,2.5509,0.0,2.548,0.0,0.0,0.0,0.0,0.0,2.5509,0.0,0.0,2.6087,2.6203,2.6435,2.7271,2.7851,2.8335,2.8685,2.9478,3.0056,3.0056,2.9942,2.984,2.984,2.9435,2.914,2.9172,2.8462,2.7846,2.7479,2.6712,2.6094,2.574,2.5703,2.5703,2.5703,2.5703,2.6094,2.6973,2.6992,2.7422,2.8281,2.8809,2.9062,2.9062,2.9504,2.9895,3.0206,3.0172,3.0321,3.0642,3.0683,3.0757,3.0802,3.0833,3.0877,3.0898,3.0898,3.0898,3.0898,3.0898,3.0898,3.0898,0.0,0.0,0.0,0.0,0.0,0.0,0.0,0.0,0.0,0.0,0.0,0.0,0.0,0.0,0.0,0.0,2.4876,2.4467,2.445,2.3702,2.3284,2.3377,2.3301,2.328,2.3397,0.0,0.0,0.0,0.0,0.0,0.0,0.0,0.0,0.0,0.0,0.0,0.0,0.0,2.5703,2.5703,2.5703,2.5703,2.5703,2.5703,2.5703,2.5703,2.5703,2.57,2.5706,2.5682,2.5603,2.55,2.5499,2.5509,2.5486,2.5427,2.5454,0.0,0.0,0.0,0.0,2.5509,2.5488,0.0,2.5509,2.5509,2.57,2.6414,2.6646,2.6938,2.7718,2.8569,2.9169,2.9169,2.9884,3.0495,3.0593,3.0489,3.0433,3.0531,2.9742,2.8906,2.8129,2.7407,2.6638,2.5767,2.5701,2.5703,2.5703,2.5703,2.6055,2.6836,2.6855,2.7226,2.8008,2.8105,2.8144,2.8144,2.8174,2.8592,2.9344,2.9388,2.9814,3.0554,3.0587,3.0688,3.0796,3.0801,3.085,3.0897,3.0897,3.0897,3.0897,3.0897,3.0898,3.0898,0.0,0.0,0.0,0.0,0.0,0.0,0.0,0.0,0.0,0.0,0.0,0.0,0.0,0.0,0.0,0.0,0.0,2.5438,2.5425,2.461,2.4466,2.5153,2.4512,2.4472,2.5175,2.5195,0.0,0.0,0.0,0.0,0.0,0.0,0.0,0.0,0.0,0.0,0.0,0.0,2.5703,2.5703,2.5703,2.5703,2.5703,2.5703,2.5703,2.5703,2.5703,2.57,2.5682,2.5584,2.5552,2.5572,2.5515,2.5509,2.5486,2.5427,2.5454,2.5486,2.5425,2.5403,2.5431,2.5486,2.5458,0.0,2.5486,2.5509,2.5548,2.57,2.6242,2.6743,2.6919,2.7677,2.8242,2.8242,2.8975,2.9809,3.0493,2.9393,2.8785,2.9481,2.8231,2.726,2.7091,2.6983,2.6587,2.5765,2.5701,2.5703,2.5703,2.5703,2.5781,2.5957,2.5957,2.6034,2.6201,2.6846,2.717,2.7188,2.7866,2.8253,2.84,2.9097,2.9469,2.9617,3.0351,3.0707,3.0731,3.0842,3.0894,3.0897,3.0897,3.0896,3.0895,3.0895,3.0895,3.0896,0.0,0.0,0.0,0.0,0.0,0.0,0.0,0.0,0.0,0.0,0.0,0.0,0.0,0.0,0.0,0.0,0.0,0.0,0.0,0.0,2.523,2.5683,2.5273,2.5254,2.5683,2.5703,0.0,0.0,0.0,0.0,0.0,0.0,0.0,0.0,0.0,0.0,0.0,0.0,2.5703,2.5703,2.5703,2.5703,2.5703,2.5703,2.5703,2.5703,2.5703,2.5702,2.5676,2.5578,2.5562,2.5589,2.5523,2.5503,2.5486,2.5427,2.5454,2.5484,2.5414,2.5393,2.5401,2.544,2.5421,0.0,0.0,2.5482,2.5509,2.5509,2.5816,2.6107,2.6107,2.6785,2.7348,2.7348,2.8085,2.8801,2.9246,2.8937,2.8649,2.8649,2.7944,2.743,2.7392,2.7097,2.657,2.5764,2.5701,2.5703,2.5699,2.5699,2.5677,2.5649,2.5648,2.5643,2.5648,2.6059,2.6246,2.6266,2.6656,2.7072,2.7534,2.8325,2.8931,2.9396,3.0278,3.0661,3.0701,3.0775,3.0842,3.0896,3.0894,3.0893,3.0891,3.0891,3.0893,3.0894,0.0,0.0,0.0,0.0,0.0,0.0,0.0,0.0,0.0,0.0,0.0,0.0,0.0,0.0,0.0,0.0,0.0,0.0,0.0,0.0,2.5701,2.5703,2.5703,2.5703,2.5703,2.5703,2.5703,0.0,0.0,0.0,0.0,0.0,0.0,0.0,0.0,0.0,0.0,0.0,2.5682,2.5703,2.5703,2.5703,2.5703,2.5703,2.5703,2.5703,2.5703,2.5703,2.5683,2.5626,2.5485,2.5361,2.5463,2.5377,2.5273,2.5369,2.5433,2.5476,2.54,2.54,2.5406,2.5393,2.54,2.5391,0.0,0.0,0.0,2.5509,2.5509,2.5509,2.5509,2.6029,2.6472,2.6472,2.7192,2.7699,2.7546,2.826,2.855,2.7834,2.7801,2.7757,2.7533,2.7128,2.6547,2.5763,2.5833,2.5854,2.5707,2.5683,2.5651,2.5601,2.5601,2.5597,2.5588,2.5588,2.5584,2.5574,2.5528,2.5903,2.6668,2.7588,2.8402,2.9199,3.0165,3.0622,3.0686,3.0712,3.0773,3.0868,3.0888,3.0887,3.0886,3.0886,3.089,3.0894,2.3107,2.3561,0.0,0.0,0.0,0.0,0.0,0.0,0.0,0.0,0.0,0.0,0.0,0.0,0.0,0.0,0.0,0.0,2.5703,2.5703,0.0,2.5703,2.5703,2.5703,2.5703,2.5703,2.5703,0.0,0.0,0.0,0.0,0.0,0.0,0.0,2.5708,0.0,0.0,0.0,2.5651,2.5691,2.5691,2.5699,2.5703,2.5696,2.5699,2.5703,2.5696,2.5699,2.5683,2.5626,2.5097,2.4567,2.5289,2.4972,2.4482,2.5195,2.5403,2.5419,2.5397,2.5397,2.5407,2.5406,2.5397,2.5395,2.5393,0.0,2.5429,2.5486,0.0,2.5509,2.5509,0.0,0.0,2.5644,2.6319,2.6609,2.5876,2.6474,2.6955,2.6859,2.685,2.6583,2.5859,2.6419,2.6505,2.5762,2.6367,2.6441,2.5745,2.5645,2.5605,2.5601,2.5601,2.5562,2.5513,2.5513,2.5504,2.5516,2.5507,2.5567,2.5712,2.7283,2.8055,2.8242,2.9895,3.0609,3.0618,3.0745,3.0759,3.0726,3.0859,3.0865,3.0802,3.0802,3.0845,3.0909,2.4769,2.5561,0.0,0.0,0.0,0.0,0.0,0.0,0.0,0.0,0.0,0.0,0.0,2.5703,2.5703,2.5703,2.5703,2.5703,2.5703,2.5703,0.0,2.5703,2.5703,2.5703,2.5703,2.5703,2.5703,2.5703,2.5703,0.0,0.0,0.0,0.0,0.0,2.5612,2.5594,2.5601,2.5601,2.5611,2.5644,2.5644,2.5632,2.5643,2.5686,2.5692,2.5697,2.569,2.5698,2.5703,2.5677,2.5412,2.5161,2.5451,2.5281,2.5004,2.5306,2.5401,2.5393,2.5402,2.5405,2.5394,2.5346,2.537,2.5403,2.5402,2.5395,2.5408,2.5448,0.0,0.0,0.0,0.0,0.0,0.0,2.5723,2.5843,2.5546,2.5797,2.599,2.599,2.599,2.5874,2.5528,2.6742,2.7016,2.5684,2.6391,2.6508,2.5629,2.5552,2.5543,2.5546,2.5546,2.5531,2.5501,2.5501,2.5504,2.5509,2.5509,2.5509,2.5548,2.6708,2.7522,2.807,2.9317,3.0136,3.0614,3.07,3.0721,3.0702,3.0795,3.0823,3.0801,3.0801,3.0822,3.0845,2.6862,0.0,0.0,0.0,0.0,0.0,0.0,0.0,0.0,0.0,0.0,0.0,2.5703,2.5918,2.5957,2.5723,2.5918,2.5957,2.5723,2.5703,2.5703,2.5703,2.5703,2.5703,2.5703,2.5703,2.5703,2.5703,0.0,0.0,0.0,0.0,0.0,0.0,0.0,2.5538,2.5561,2.5561,2.557,2.5563,2.5563,2.5563,2.5587,2.5647,2.5677,2.5679,2.5685,2.5698,2.5703,2.5703,2.5523,2.5344,2.5533,2.5384,2.5173,2.5374,2.5401,2.5406,2.5395,2.5396,2.5358,2.5313,2.5344,2.5387,2.5396,2.541,2.5408,2.5395,2.5397,0.0,0.0,0.0,0.0,0.0,0.0,2.5419,2.5478,2.5462,2.5561,2.5797,2.5836,2.5739,2.5528,2.7055,2.7364,2.5637,2.6554,2.6693,2.5561,2.5504,2.551,2.5492,2.5509,2.5509,2.5509,2.5509,2.5509,2.5509,2.5509,2.5509,2.5528,2.6337,2.7054,2.7718,2.882,2.9655,3.0238,3.0575,3.0696,3.0684,3.0791,3.0823,3.0823,3.0801,3.0797,3.0774,2.9298,2.8639,0.0,0.0,0.0,0.0,0.0,0.0,2.5703,2.5703,2.5703,2.5703,2.5703,2.6445,2.6621,2.5762,2.6465,2.6602,2.5762,2.5703,2.5703,2.5703,2.5703,2.5703,2.5703,2.5703,2.5703,2.5703,0.0,0.0,0.0,0.0,0.0,0.0,0.0,2.5506,2.5497,2.5497,2.5503,2.5505,2.5505,2.5505,2.5511,2.5586,2.5602,2.5608,2.5679,2.5698,2.5703,2.5703,2.5107,2.4498,2.533,2.497,2.4412,2.5258,2.5442,2.5391,2.5408,2.5351,2.5308,2.5305,2.5308,2.5317,2.5389,2.5398,2.539,2.5393,2.5404,2.5397,2.5397,0.0,0.0,0.0,0.0,0.0,0.0,2.5401,2.5717,2.6566,2.6665,2.6356,2.5586,2.7024,2.7309,2.5633,2.7032,2.7236,2.5595,2.5496,2.5492,2.5509,2.5509,2.5509,2.5509,2.5509,2.5509,2.5509,2.5509,2.5509,2.5528,2.6337,2.6723,2.6839,2.8567,2.9279,2.933,3.0298,3.0665,3.0615,3.0826,3.0907,3.0887,3.0823,3.0768,3.0704,0.0,0.0,0.0,0.0,2.7556,2.6678,2.582,2.5703,2.5918,2.6484,2.6562,2.6777,2.7363,2.7676,2.7734,2.7441,2.7168,2.6875,2.6582,2.6016,2.5703,2.5703,2.5703,2.5703,2.5703,2.5703,2.5703,2.5703,0.0,0.0,0.0,0.0,0.0,0.0,0.0,2.5495,2.5509,2.5509,2.5505,2.549,2.549,2.549,2.5499,2.5529,2.5554,2.5602,2.5636,2.5669,2.5703,2.5703,2.5487,2.5285,2.5564,2.5446,2.5245,2.5494,2.5551,2.551,2.5421,2.5387,2.5357,2.531,2.5305,2.531,2.5322,2.5325,2.5353,2.5393,2.5395,2.539,2.5397,0.0,0.0,0.0,0.0,0.0,0.0,2.5895,2.6152,2.5875,2.5886,2.5797,2.5528,2.6495,2.668,2.5585,2.6511,2.6662,2.5568,2.5505,2.5509,2.5509,2.5509,2.5509,2.5509,2.5509,2.5509,2.5509,2.5509,2.5509,2.5509,2.5778,2.6203,2.6723,2.7325,2.7861,2.8418,2.9423,2.9825,2.9878,3.0613,3.0866,3.0843,3.0865,3.0792,3.07,2.8295,0.0,2.7123,2.7734,2.7129,2.6348,2.5781,2.5957,2.6367,2.6934,2.7266,2.7676,2.8242,2.8574,2.8633,2.832,2.8066,2.7656,2.7031,2.6758,2.6484,2.6172,2.6152,2.6152,2.6152,2.5859,2.5703,2.5703,0.0,2.57,0.0,0.0,0.0,0.0,0.0,2.5509,2.5509,2.5509,2.5509,2.5509,2.5509,2.5509,2.5496,2.5506,2.5528,2.5578,2.5595,2.5638,2.5702,2.5703,2.5703,2.57,2.5692,2.5682,2.5669,2.5601,2.5609,2.5575,2.5497,2.5441,2.5421,2.5376,2.5355,2.5337,2.5337,2.5332,2.5356,2.5393,2.5407,2.5403,2.5397,0.0,0.0,0.0,0.0,0.0,0.0,2.588,2.6022,2.5468,2.5717,2.5804,2.5489,2.6208,2.6363,2.5528,2.6227,2.6346,2.5516,2.5458,2.5482,2.5509,2.5509,2.5509,2.5509,2.5509,2.5509,2.5509,2.5509,2.5509,2.5509,2.5509,2.5778,2.6298,2.6588,2.6994,2.7577,2.8863,2.9406,2.9496,3.0487,3.0842,3.0843,3.0836,3.0742,3.063,0.0,2.7496,2.7012,2.7051,2.6309,2.5703,2.5762,2.6465,2.7012,2.7051,2.7812,2.8379,2.8418,2.918,2.9336,2.8496,2.9141,2.8906,2.7246,2.7851,2.793,2.7109,2.7012,2.6992,2.6992,2.6152,2.5703,2.5703,0.0,0.0,0.0,0.0,0.0,0.0,2.5509,0.0,2.5509,2.5509,2.5509,2.5509,2.5509,2.5492,2.5492,2.5509,2.5499,2.5508,2.5562,2.5643,2.571,2.5702,2.5699,2.5708,2.5707,2.5651,2.5604,2.5606,2.56,2.5608,2.5596,2.5553,2.5495,2.5504,2.5454,2.541,2.541,2.5395,2.539,2.5391,2.5408,2.5393,2.5391,2.5406,0.0,0.0,0.0,0.0,0.0,2.5397,2.5408,2.5408,2.614,2.6318,2.5487,2.6142,2.6298,2.5468,2.62,2.6326,2.5459,2.544,2.5489,2.5509,2.5509,2.5509,2.5509,2.5509,2.5509,2.5509,2.5509,2.5509,2.5509,2.5509,2.5509,2.5548,2.6317,2.6635,2.676,2.8539,2.9292,2.9427,3.037,3.0792,3.0862,3.0746,3.061,3.0484,2.6463,2.6699,2.7207,2.7851,2.6719,2.5918,2.6562,2.6855,2.7226,2.7871,2.873,2.9512,3.0156,3.043,3.0488,3.0254,2.9844,2.9414,2.8965,2.8535,2.8203,2.7988,2.7344,2.6992,2.6992,2.6152,2.5703,2.5703,2.5699,0.0,2.5601,0.0,0.0,0.0,0.0,2.5509,2.5509,2.5509,2.5509,2.5509,2.5509,2.5509,2.5496,2.5503,2.5504,2.5494,2.5513,2.5601,2.5686,2.5634,2.567,2.5701,2.5692,2.5683,2.5663,2.5677,2.5671,2.5654,2.5602,2.5593,2.5565,2.5501,2.5454,2.541,2.541,2.5406,2.5404,2.5395,2.5408,2.5399,2.5395,2.5405,2.5389,0.0,0.0,0.0,0.0,2.5397,2.5404,2.5407,2.5602,2.565,2.5427,2.5608,2.5646,2.543,2.62,2.6326,2.5459,2.6013,2.61,2.5528,2.5509,2.5509,2.5509,2.5509,2.5509,2.5509,2.5509,2.5509,2.5509,2.5509,2.5509,2.5509,2.5722,2.5787,2.5815,2.6986,2.785,2.8536,2.9478,3.0174,3.0671,3.0646,3.0575,3.0487,2.6445,2.666,2.7402,2.8652,2.8066,2.7441,2.7559,2.7246,2.7305,2.8184,2.9062,2.9785,3.0273,3.0664,3.0898,3.0898,3.0449,3.0019,2.9629,2.9492,2.9101,2.832,2.8203,2.7773,2.7012,2.6523,2.6074,2.5703,2.5701,0.0,2.5601,0.0,0.0,0.0,0.0,2.5509,2.5509,2.5509,2.5509,2.5509,2.5509,2.5505,0.0,2.5499,2.5505,2.549,2.551,2.5543,2.5608,2.5602,2.5629,2.567,2.5656,2.5679,2.5688,2.5651,2.5675,2.5696,2.5641,2.5648,2.5626,2.5554,2.5494,2.5443,2.5446,2.543,2.5406,2.5436,2.543,2.54,2.5408,2.5397,2.5377,0.0,0.0,0.0,2.5356,2.5365,2.537,2.5358,2.5356,2.5361,2.5353,2.5388,2.539,2.5355,2.6166,2.6296,2.5432,2.6191,2.6284,2.5476,2.5456,2.5456,2.5456,2.5486,2.5486,2.5456,2.5486,2.5509,2.5509,2.5509,2.5509,2.5509,2.5509,2.5484,2.5516,2.6385,2.7068,2.765,2.8952,2.9662,3.0021,3.042,3.0513,3.0441,2.7461,2.7344,2.7851,2.9492,2.9766,2.9512,2.8769,2.8008,2.7773,2.8535,2.9297,2.9726,2.9609,3.0371,3.0859,3.0742,3.082,3.0586,2.9824,3.0371,3.0059,2.8535,2.8984,2.8555,2.7031,2.6894,2.6465,2.5703,2.5703,0.0,0.0,0.0,0.0,0.0,0.0,0.0,2.5509,2.5509,2.5509,2.5509,2.5509,2.5494,2.5497,2.5492,2.5494,2.5497,2.5492,2.5579,2.5683,2.5726,2.5824,2.591,2.5788,2.5792,2.581,2.5649,2.564,2.5679,2.5681,2.5676,2.5651,2.5609,2.5545,2.5493,2.5505,2.5456,2.5429,2.5486,2.5443,2.5418,2.5416,2.5406,2.5393,0.0,2.5317,2.5303,2.5308,2.5305,2.5305,2.5305,2.5305,0.0,2.5305,2.5353,2.5358,2.5308,2.6217,2.6369,2.5454,2.6278,2.6352,2.5434,2.5397,2.5397,2.5397,2.5454,2.5454,2.5397,2.5456,2.5484,2.5482,2.5507,2.5507,2.5486,2.5507,2.5509,2.5546,2.626,2.6621,2.6957,2.8694,2.9299,2.93,3.0175,3.0455,3.0404,2.9023,2.9141,2.9473,3.0488,3.0664,3.0625,3.0469,3.0312,3.0273,3.043,3.0586,3.0391,2.9687,3.0371,3.0605,2.9883,3.0488,3.084,3.0684,3.0137,2.9687,2.9394,2.8144,2.7305,2.7012,2.6309,2.5859,2.5703,2.5698,0.0,0.0,0.0,0.0,0.0,0.0,0.0,2.5509,2.5509,2.5509,2.5509,2.5509,2.5493,2.5501,2.5503,2.5493,2.5499,2.5503,2.5964,2.6578,2.6512,2.7021,2.7535,2.6811,2.6608,2.6469,2.5806,2.5567,2.5553,2.5592,2.5577,2.5528,2.5523,2.5517,2.5507,2.5494,2.5486,2.5486,2.5509,2.5489,2.5478,2.5483,2.5481,2.5434,2.5317,2.5356,2.5361,2.5317,2.5305,2.5305,2.5305,2.5305,2.5305,2.5305,2.5313,2.5313,2.5305,2.6764,2.7015,2.5473,2.6839,2.6968,2.5453,2.5395,2.5395,2.5395,2.5419,2.5419,2.5395,2.5417,2.5417,2.5421,2.5474,2.546,2.5427,2.5482,2.5509,2.5507,2.5584,2.6054,2.6894,2.8581,2.9221,2.9293,3.0125,3.0402,3.0404,3.0098,2.9902,2.9863,3.0742,3.1269,3.1562,3.1562,3.1562,3.125,3.0332,3.0234,3.0078,2.9648,3.0371,3.0723,3.0312,3.0664,3.0703,3.0254,2.9824,2.9199,2.8281,2.7871,2.7246,2.6348,2.6367,2.6152,2.5703,2.5701,0.0,0.0,0.0,0.0,0.0,0.0,2.5509,2.5509,2.5509,2.5509,2.5509,2.5509,2.5753,2.6078,2.5652,2.5753,2.6078,2.5652,2.6035,2.6679,2.6235,2.6954,2.782,2.6525,2.644,2.6642,2.5789,2.5542,2.5546,2.5558,2.5541,2.5539,2.5503,2.5493,2.5501,2.5499,2.5509,2.5509,2.5509,2.5495,2.5499,2.5494,2.5502,2.547,2.5367,2.5401,2.5425,2.5359,2.5346,2.5346,2.5346,2.532,2.5305,2.5305,2.5305,2.5305,2.5305,2.6905,2.7146,2.5447,2.6964,2.713,2.545,2.5393,2.5393,2.5393,2.5404,2.5404,2.5393,2.5395,2.54,2.5391,2.543,2.5434,2.5406,2.5427,2.5454,2.5452,2.5412,2.5648,2.6183,2.7868,2.8531,2.8678,2.9946,3.0404,3.0404,3.0762,3.0508,3.0371,3.1055,3.1894,3.2402,3.2226,3.2207,3.1719,3.0332,2.998,2.9805,2.9629,3.0371,3.082,3.0644,3.0625,3.0332,2.9648,2.9258,2.8437,2.7051,2.748,2.7109,2.5723,2.6367,2.6387,2.5703,2.5703,2.5798,0.0,0.0,0.0,0.0,2.5671,2.5664,2.5509,2.5509,2.5509,2.5509,2.5683,2.6126,2.6646,2.6205,2.63,2.6627,2.5971,2.6165,2.6588,2.5778,2.6613,2.7739,2.6225,2.6226,2.6609,2.5759,2.5536,2.5563,2.5514,2.5538,2.5561,2.5513,2.5501,2.5506,2.5503,2.5509,2.5509,2.5509,2.5497,2.5491,2.5478,2.5632,2.5688,2.542,2.5587,2.5668,2.5414,2.5382,2.5382,2.5382,2.5336,2.5305,2.5305,2.5305,2.5382,2.5558,2.6851,2.6948,2.5382,2.6774,2.6922,2.5425,2.5387,2.5387,2.5387,2.5384,2.5384,2.5387,2.5393,2.5399,2.5373,2.5384,2.5406,2.5404,2.5406,2.5395,2.5393,2.5393,2.5393,2.5567,2.7252,2.7893,2.8104,2.9772,3.0404,3.0404,3.0879,3.1465,3.1973,3.2051,3.2754,3.3047,3.2305,3.2207,3.2148,3.1973,3.1269,3.0488,2.9687,3.0371,3.0586,2.9785,2.9726,2.9687,2.9609,2.8125,2.7168,2.7012,2.6328,2.5879,2.5703,2.5781,2.5781,2.5703,2.5703,2.6066,2.6768,0.0,0.0,2.554,2.6263,2.6184,2.5509,2.5509,2.5509,2.5567,2.6298,2.6627,2.6781,2.7486,2.7329,2.6685,2.6607,2.6646,2.6588,2.5778,2.6613,2.7836,2.688,2.6633,2.654,2.5743,2.5499,2.5511,2.5503,2.5507,2.5511,2.5503,2.5501,2.5499,2.5492,2.5509,2.5509,2.5509,2.5503,2.548,2.5424,2.6095,2.6386,2.5468,2.6022,2.6298,2.5433,2.5301,2.5301,2.5301,2.5293,2.5305,2.5305,2.5305,2.5635,2.6426,2.6637,2.631,2.5344,2.6195,2.6294,2.5349,2.531,2.531,2.531,2.5313,2.5313,2.531,2.5365,2.5365,2.5315,2.5367,2.5399,2.5401,2.5404,2.5393,2.5391,2.541,2.5398,2.5567,2.7252,2.7893,2.8104,2.9772,3.0404,3.0404,3.0898,3.1172,3.1426,3.1426,3.1699,3.1797,3.1465,3.1426,3.1426,3.1426,3.1113,3.0762,3.043,3.0215,2.998,2.9629,2.9121,2.8594,2.8066,2.7383,2.6777,2.623,2.5898,2.5703,2.5703,2.5703,2.5703,2.5703,2.6211,2.6616,2.6893,2.6547,2.6328,2.6261,2.7095,2.729,2.6964,2.6437,2.6223,2.6203,2.6048,2.6281,2.6685,2.6553,2.6573,2.6646,2.6145,2.5971,2.5932,2.5606,2.6613,2.7759,2.6418,2.6317,2.6549,2.5739,2.5509,2.5509,2.5509,2.5509,2.5509,2.5509,2.5509,2.5509,2.5509,2.5509,2.5509,2.5509,2.5506,2.564,2.6109,2.6525,2.6823,2.6904,2.6821,2.6612,2.62,2.5685,2.5357,2.5357,2.5324,2.5305,2.5305,2.5305,2.544,2.5788,2.6291,2.6445,2.6099,2.6406,2.6195,2.5324,2.5305,2.5305,2.5305,2.5305,2.5305,2.5305,2.532,2.5339,2.5308,2.5329,2.5368,2.5398,2.5407,2.5397,2.5408,2.5405,2.5683,2.6232,2.7422,2.82,2.8758,2.9964,3.0404,3.0404,3.0898,3.1113,3.1289,3.1289,3.1289,3.1289,3.1289,3.1055,3.0898,3.0898,3.0898,3.0898,3.0898,3.0117,2.9609,2.9609,2.8574,2.7656,2.7031,2.6758,2.6348,2.5723,2.5703,2.5703,2.5703,2.5957,2.5957,2.5703,2.6836,2.7341,2.7282,2.7769,2.7653,2.7114,2.7737,2.7855,2.7563,2.6706,2.6472,2.6646,2.6087,2.6358,2.7017,2.6459,2.6437,2.6627,2.6068,2.5702,2.5548,2.5778,2.6478,2.706,2.5876,2.6048,2.6549,2.5739,2.5857,2.613,2.5625,2.5664,2.5797,2.5567,2.5509,2.5509,2.5509,2.5484,2.5478,2.5466,2.547,2.5716,2.6517,2.6918,2.7315,2.7872,2.7681,2.7371,2.7099,2.6298,2.5758,2.5758,2.5485,2.5305,2.5305,2.5305,2.5404,2.5654,2.6,2.6214,2.6214,2.6214,2.6058,2.5692,2.5421,2.5421,2.5673,2.5421,2.5305,2.5305,2.5305,2.5305,2.5305,2.5305,2.5339,2.5363,2.5363,2.5377,2.5419,2.5663,2.6095,2.6708,2.7824,2.8607,2.9204,3.008,3.0404,3.0404,3.0898,3.1582,3.2187,3.2187,3.2187,3.2187,3.2187,3.1445,3.0898,3.0898,3.0898,3.0898,3.0898,3.0117,2.9609,2.9609,2.8027,2.7012,2.6992,2.6191,2.5703,2.5703,2.5703,2.5703,2.5703,2.6543,2.6562,2.5703,2.7441,2.8259,2.822,2.9815,2.9644,2.7972,2.7991,2.7522,2.6665,2.5855,2.5971,2.6704,2.6685,2.7211,2.7972,2.7972,2.7445,2.6704,2.6685,2.6165,2.5625,2.6414,2.6165,2.5528,2.5509,2.6048,2.6549,2.5739,2.6671,2.7604,2.5956,2.6087,2.6491,2.5702,2.5509,2.5509,2.5509,2.5454,2.541,2.5407,2.5398,2.5659,2.6455,2.7318,2.7895,2.7895,2.8552,2.8783,2.7992,2.7142,2.6582,2.6582,2.5827,2.5305,2.5305,2.5305,2.5654,2.6522,2.5808,2.5324,2.5324,2.5324,2.5712,2.656,2.575,2.5712,2.6579,2.5731,2.5305,2.5305,2.5305,2.5305,2.5305,2.5305,2.5305,2.5308,2.5308,2.5346,2.5454,2.6268,2.6595,2.6766,2.8423,2.9088,2.9204,3.008,3.0404,3.0404,3.0898,3.1113,3.1309,3.1309,3.1309,3.1309,3.1309,3.1074,3.0898,3.0898,3.0898,3.0898,3.0898,3.0117,2.9609,2.9609,2.8555,2.7637,2.7031,2.6738,2.6328,2.5723,2.5703,2.5703,2.5703,2.5977,2.6269,2.6582,2.7734,2.8548,2.9049,3.0099,2.9991,2.8917,2.9517,2.9282,2.8412,2.7563,2.735,2.7484,2.6341,2.6377,2.7056,2.6497,2.6128,2.5874,2.5874,2.5722,2.5548,2.5797,2.57,2.5509,2.5509,2.5683,2.5836,2.5586,2.5876,2.6188,2.5644,2.5683,2.5816,2.5567,2.5509,2.5509,2.5509,2.5454,2.5408,2.5405,2.5835,2.6477,2.7337,2.8162,2.8912,2.9503,2.9313,2.8819,2.8008,2.7159,2.6387,2.5788,2.5981,2.5942,2.5363,2.5846,2.6058,2.5731,2.5462,2.5558,2.6156,2.6195,2.631,2.6599,2.6329,2.6329,2.6599,2.5731,2.5305,2.5305,2.5305,2.5305,2.5305,2.5305,2.5305,2.5305,2.5305,2.5313,2.5341,2.5601,2.6411,2.7538,2.8068,2.8986,3.0022,3.0308,3.0404,3.0404,3.0898,3.0898,3.0898,3.0898,3.0898,3.0898,3.0898,3.0898,3.0898,3.0898,3.0898,3.0898,3.0898,3.041,2.9961,2.9629,2.8809,2.8066,2.7519,2.748,2.7246,2.6699,2.668,2.668,2.668,2.668,2.6777,2.6951,2.7845,2.8642,2.9414,3.0218,3.0305,2.9788,2.9672,2.9497,2.9227,2.8027,2.7699,2.7875,2.6495,2.6242,2.6607,2.5816,2.5509,2.5509,2.5509,2.5509,2.5548,2.5855,2.5758,2.5548,2.5855,2.5739,2.5509,2.5509,2.6186,2.6785,2.6137,2.6431,2.6764,2.6109,2.5942,2.5851,2.5547,2.5438,2.5395,2.537,2.6027,2.6867,2.7741,2.8569,2.9393,3.025,2.9945,2.9297,2.847,2.7623,2.689,2.6349,2.6464,2.6503,2.6291,2.6774,2.6736,2.5846,2.6067,2.6328,2.654,2.6591,2.6755,2.7082,2.7082,2.7082,2.7082,2.6214,2.5615,2.5305,2.5305,2.5305,2.5305,2.5305,2.5305,2.5305,2.5305,2.5305,2.5324,2.5654,2.6426,2.7469,2.8104,2.8989,2.9945,3.0288,3.0404,3.0404,3.0898,3.0898,3.0898,3.0898,3.0898,3.0898,3.0898,3.0898,3.0898,3.0898,3.0898,3.0898,3.0898,3.0898,3.0566,2.9766,2.8945,2.8457,2.8398,2.8379,2.8359,2.8281,2.8281,2.8281,2.8281,2.8222,2.7809,2.6994,2.7858,2.8708,2.9494,3.0242,3.0605,3.052,2.8898,2.8552,2.9091,2.748,2.7211,2.7836,2.6977,2.6646,2.6607,2.5816,2.5509,2.5509,2.5509,2.5509,2.5606,2.6356,2.6126,2.5625,2.6375,2.6145,2.5586,2.5586,2.7252,2.8777,2.7149,2.7933,2.8812,2.7124,2.6696,2.6481,2.5672,2.5487,2.5472,2.5397,2.6137,2.7024,2.7835,2.8643,2.947,3.0269,3.0346,3.0003,2.9143,2.8374,2.7873,2.7816,2.7198,2.7063,2.7813,2.7948,2.7618,2.675,2.7374,2.7451,2.662,2.6691,2.7135,2.7967,2.7989,2.795,2.7893,2.7044,2.6156,2.5305,2.5305,2.5305,2.5305,2.5305,2.5305,2.5305,2.5305,2.5305,2.5363,2.6176,2.6579,2.6851,2.8412,2.9088,2.9297,3.0099,3.0404,3.0404,3.0898,3.0898,3.0898,3.0898,3.0898,3.0898,3.0898,3.0898,3.0898,3.0898,3.0898,3.0898,3.0898,3.0898,3.082,3.0605,3.0391,2.9979,2.9266,2.9226,2.8906,2.8178,2.8158,2.8158,2.8158,2.7554,2.7453,2.7895,2.8706,2.9527,3.0323,3.0511,3.0601,3.0578,3.0172,2.9362,2.8281,2.7873,2.7426,2.6938,2.6107,2.6145,2.6607,2.5816,2.5509,2.5509,2.5509,2.5509,2.5528,2.572,2.5664,2.5528,2.572,2.6068,2.6414,2.6414,2.6841,2.7226,2.6814,2.7499,2.8045,2.6964,2.6698,2.6659,2.6442,2.6386,2.6364,2.6306,2.748,2.8566,2.878,2.9525,3.0154,3.0365,2.983,2.9124,2.8297,2.8027,2.7643,2.6986,2.7854,2.8324,2.7874,2.8431,2.845,2.758,2.7689,2.7702,2.7508,2.8089,2.8555,2.8815,2.8824,2.853,2.7912,2.7044,2.6156,2.5305,2.5305,2.5305,2.5305,2.5305,2.5305,2.5305,2.5305,2.5305,2.5324,2.5519,2.6387,2.7623,2.8027,2.8967,3.0118,3.0327,3.0404,3.0404,3.0898,3.0898,3.0898,3.0898,3.0898,3.0898,3.0898,3.0898,3.0898,3.0898,3.0898,3.0898,3.0898,3.0898,3.0898,3.0856,3.0878,3.0662,3.0138,3.0097,2.985,2.9302,2.9281,2.9281,2.9281,2.846,2.808,2.8154,2.8969,2.9575,3.0017,3.041,3.0385,3.0,2.9594,2.89,2.7972,2.7563,2.7134,2.6665,2.6223,2.6087,2.6107,2.5664,2.5509,2.5509,2.5509,2.5509,2.5509,2.5509,2.5509,2.5509,2.5509,2.5797,2.6223,2.6588,2.7267,2.7886,2.7892,2.8519,2.8975,2.8101,2.7589,2.7284,2.7264,2.725,2.7231,2.7207,2.8209,2.9107,2.9107,2.9813,3.0404,3.0404,2.9679,2.8953,2.8511,2.8124,2.7868,2.7756,2.8558,2.9068,2.8955,2.937,2.9297,2.8412,2.8689,2.8737,2.8372,2.912,2.9392,2.9064,2.943,2.9258,2.8467,2.7217,2.6165,2.5305,2.5295,2.5295,2.5305,2.5305,2.5305,2.5305,2.5305,2.5305,2.5305,2.5305,2.5865,2.6794,2.7585,2.8467,2.9343,3.0014,3.0257,3.0251,3.0898,3.0898,3.0898,3.0898,3.0898,3.0898,3.0898,3.0898,3.0898,3.0898,3.0898,3.0898,3.0898,3.0878,3.0856,3.0797,3.0832,3.0833,3.077,3.0768,3.0733,3.0688,3.0685,3.0685,3.0685,2.9824,2.902,2.8281,2.8971,2.9362,2.9517,3.025,3.0133,2.9265,2.8533,2.8049,2.7757,2.7015,2.6627,2.653,2.6646,2.6223,2.5509,2.5625,2.5606,2.5509,2.5509,2.5509,2.5509,2.5509,2.5509,2.5509,2.5509,2.5586,2.5816,2.6491,2.7849,2.9106,2.91,2.9747,3.0264,2.9645,2.8834,2.8171,2.8114,2.8107,2.8109,2.8101,2.8742,2.9297,2.9297,2.9907,3.0404,3.0404,2.9679,2.9069,2.8934,2.8448,2.8299,2.8845,2.9134,2.9548,3.0212,3.0273,2.9988,2.9241,2.98,2.9901,2.9222,2.9828,2.9892,2.9194,2.9912,2.9917,2.9113,2.7421,2.6222,2.5493,2.5355,2.5297,2.53,2.53,2.5303,2.5305,2.5305,2.5305,2.5305,2.5305,2.5382,2.5654,2.7274,2.7882,2.8027,2.941,2.9907,2.9868,3.0898,3.0898,3.0898,3.0898,3.0898,3.0898,3.0898,3.0898,3.0898,3.0898,3.0898,3.0878,3.0828,3.0826,3.0796,3.0724,3.0726,3.0691,3.0631,3.0626,3.0634,3.0628,3.0623,3.0623,3.0623,2.9752,2.9242,2.9111,2.9233,2.9672,3.0404,3.054,3.0133,2.9285,2.9169,2.8277,2.6899,2.6762,2.6317,2.5758,2.6433,2.6223,2.5567,2.624,2.6087,2.5509,2.5509,2.5509,2.5509,2.5509,2.5509,2.5509,2.5509,2.5971,2.6549,2.6665,2.7404,2.8204,2.8199,2.8839,2.9634,3.0175,2.9656,2.9001,2.8999,2.8996,2.8994,2.9005,2.9635,3.0192,3.0192,3.0308,3.0404,3.0404,2.9679,2.8857,2.8181,2.856,2.8694,2.8071,2.9243,3.0136,3.0205,3.0224,3.0167,3.0026,3.0133,3.0148,3.0019,3.0133,3.0142,3.0011,3.0209,2.9909,2.9113,2.7376,2.6477,2.6397,2.5597,2.5252,2.5294,2.5294,2.5307,2.5305,2.5305,2.5305,2.5305,2.5305,2.5731,2.6503,2.7508,2.7796,2.7762,2.8724,2.9018,2.8909,3.0898,3.0898,3.0898,3.0898,3.0898,3.0898,3.0898,3.0898,3.0898,3.0898,3.0877,3.0831,3.0802,3.0768,3.0721,3.0649,3.0643,3.0635,3.0593,3.0591,3.0597,3.0602,3.0598,3.0598,3.0598,3.0211,2.9998,2.9998,2.9998,3.0211,3.0598,3.0598,3.0133,2.9304,2.9304,2.8335,2.6723,2.7192,2.6901,2.6184,2.6549,2.6472,2.6145,2.6087,2.5816,2.5509,2.5509,2.5509,2.5509,2.5509,2.5509,2.5509,2.5509,2.5758,2.6048,2.6048,2.6981,2.8107,2.8571,2.8986,2.9494,3.0305,3.0199,2.9894,2.9846,2.9847,2.985,2.9853,3.0143,3.0404,3.0404,3.0404,3.0404,3.0404,2.9664,2.9118,2.9175,2.9105,2.9055,2.9091,2.9807,3.027,3.0213,3.02,3.0204,3.0209,3.0195,3.0195,3.0206,3.0195,3.0208,3.0208,3.0276,2.9893,2.9042,2.8247,2.7403,2.6532,2.6102,2.5688,2.5309,2.5309,2.5302,2.5305,2.5305,2.5577,2.5962,2.55,2.6036,2.7144,2.7101,2.7259,2.753,2.7861,2.8213,2.8456,3.0898,3.0898,3.0898,3.0898,3.0898,3.0898,3.0898,3.0898,3.0898,3.0898,3.0833,3.08,3.0796,3.0746,3.0677,3.0607,3.06,3.0609,3.0605,3.0608,3.0597,3.0602,3.0598,3.0598,3.0598,3.0598,3.0598,3.0598,3.0598,3.0598,3.0598,3.0598,3.0039,2.9014,2.9207,2.8238,2.6491,2.7544,2.7503,2.6723,2.6919,2.688,2.6627,2.601,2.5664,2.5509,2.5509,2.5509,2.5509,2.5509,2.5509,2.5509,2.5509,2.5509,2.5509,2.5509,2.6401,2.7602,2.8451,2.8835,2.9192,2.9994,3.0194,3.0234,3.0376,3.0403,3.0397,3.041,3.0404,3.0404,3.0404,3.0404,3.0404,3.0404,2.9848,2.9542,2.9962,2.9618,2.9465,2.9873,3.0138,3.0266,3.0195,3.0209,3.0194,3.0192,3.0208,3.0208,3.0208,3.0153,3.0131,3.0131,3.0223,2.996,2.9289,2.9082,2.8242,2.6786,2.6568,2.6068,2.5282,2.5282,2.5297,2.5305,2.5305,2.5661,2.6216,2.5728,2.6092,2.6949,2.6715,2.6692,2.6775,2.6865,2.7388,2.7903,3.0898,3.0898,3.0898,3.0898,3.0898,3.0898,3.0898,3.0898,3.0898,3.0898,3.0833,3.0796,3.0802,3.074,3.0678,3.0618,3.0591,3.0591,3.06,3.0605,3.0605,3.0598,3.0598,3.0598,3.0598,3.0598,3.0598,3.0598,3.0598,3.0598,3.0598,3.0598,2.9691,2.8126,2.8937,2.7929,2.5683,2.7312,2.7503,2.6762,2.7583,2.7426,2.6685,2.6627,2.6145,2.5509,2.5509,2.5509,2.5509,2.5509,2.5509,2.5509,2.5509,2.5509,2.5509,2.5509,2.5586,2.5857,2.6665,2.7484,2.8294,2.9084,2.9307,2.9487,3.0223,3.0407,3.0407,3.0404,3.0404,3.0404,3.0404,3.0404,3.0404,3.0404,3.0343,3.0046,2.9289,2.9774,2.9934,2.9171,2.9754,3.0215,3.0208,3.0192,3.0192,3.0208,3.0208,3.0208,3.0208,3.0023,2.9913,2.9913,3.0117,3.019,3.0118,2.9301,2.8466,2.7608,2.6787,2.5982,2.5214,2.5214,2.5241,2.5305,2.5305,2.5274,2.5257,2.5944,2.5774,2.5241,2.6743,2.6329,2.499,2.5712,2.6425,2.6893,3.0857,3.0836,3.0834,3.0845,3.0798,3.0796,3.0823,3.0798,3.0773,3.0773,3.072,3.069,3.0735,3.0681,3.0403,2.9832,3.0292,3.0365,2.9826,3.0308,3.0598,3.0598,3.0598,3.0598,3.0598,3.0598,3.0598,3.0598,3.0598,3.0598,3.0598,3.0598,2.9962,2.8823,2.9149,2.8161,2.6319,2.7505,2.7817,2.7484,2.7288,2.7327,2.7387,2.636,2.5778,2.5509,2.5509,2.5509,2.5509,2.5509,2.5509,2.5509,2.5509,2.5509,2.5509,2.5509,2.5509,2.5567,2.5874,2.6564,2.74,2.8196,2.8796,2.9277,2.9536,3.0003,3.0404,3.0404,3.0404,3.0404,3.0404,3.0404,3.0404,3.0404,3.037,3.0223,2.9885,3.0062,3.0112,2.9774,3.0015,3.0208,3.0208,3.0208,3.0208,3.0208,3.0208,3.0146,3.0023,2.9811,2.9712,2.9712,2.9909,3.0072,3.0202,2.9862,2.903,2.7707,2.7351,2.6521,2.5252,2.5121,2.5152,2.5298,2.5121,2.5382,2.5883,2.5565,2.5785,2.6298,2.588,2.5567,2.5302,2.509,2.5514,2.6038,3.0816,3.0794,3.081,3.0791,3.0758,3.0751,3.0798,3.0753,3.0727,3.0721,3.0699,3.0678,3.0728,3.0671,3.0399,2.9796,3.0044,3.007,2.9732,3.002,3.0192,3.0192,3.0443,3.0462,3.0192,3.0462,3.0598,3.0598,3.0598,3.0598,3.0598,3.0598,3.0133,2.9304,2.9594,2.8584,2.6781,2.7911,2.8242,2.7914,2.7054,2.7236,2.7855,2.615,2.5491,2.5491,2.5491,2.5501,2.5509,2.5509,2.5509,2.5509,2.5509,2.5476,2.5442,2.5442,2.5442,2.5498,2.5777,2.6253,2.6898,2.7709,2.835,2.8913,2.9404,2.9756,3.008,3.0346,3.0404,3.0404,3.0404,3.0404,3.0404,3.0404,3.037,3.0316,3.0307,3.0251,3.0224,3.0191,3.0206,3.0208,3.0208,3.0142,3.0113,3.0113,3.0049,2.9925,2.9721,2.9644,2.9575,2.9513,2.9698,2.9876,3.0019,2.987,2.9071,2.7628,2.7357,2.6508,2.5147,2.5025,2.5031,2.5124,2.4962,2.5277,2.5833,2.5382,2.5664,2.6264,2.5363,2.5138,2.5262,2.4704,2.502,2.5573,3.082,3.0799,3.0797,3.0784,3.0781,3.0796,3.0781,3.0772,3.0776,3.08,3.0798,3.0772,3.0796,3.0737,3.0689,3.0697,2.9901,2.9751,3.0547,2.9788,2.9304,2.9285,3.0114,3.0172,2.9323,3.0153,3.0598,3.0598,3.0598,3.0598,3.0598,3.0598,3.0133,2.9343,3.0192,2.9126,2.6801,2.8548,2.8782,2.7914,2.7054,2.7272,2.791,2.6172,2.5515,2.5495,2.5495,2.5508,2.5509,2.5509,2.5509,2.5509,2.5509,2.5408,2.5297,2.5317,2.5317,2.5502,2.6376,2.6656,2.6916,2.7697,2.7903,2.8343,3.0006,2.9737,2.9355,3.0212,3.0401,3.0404,3.0401,3.0401,3.0404,3.0404,3.0404,3.0376,3.031,3.0295,3.0276,3.0214,3.0206,3.0208,3.0208,3.0019,2.9893,2.9893,2.9707,2.9518,2.9309,2.9494,2.949,2.9285,2.948,2.9584,2.9584,2.9137,2.8427,2.7483,2.6611,2.5717,2.4804,2.4877,2.4854,2.4793,2.4866,2.4815,2.476,2.5555,2.5334,2.4574,2.5369,2.5206,2.45,2.45,2.5001,2.5573,3.0696,3.0808,3.0604,2.9992,2.9849,2.982,2.9871,2.9338,2.9347,3.0565,2.9659,2.9371,3.0608,3.0169,2.982,2.9856,3.0147,3.0399,3.0591,2.9775,2.9029,2.8416,2.8649,2.8937,2.9285,2.9556,3.0,3.0598,3.0598,3.0598,3.0598,2.9959,2.9556,2.9265,2.8294,2.7419,2.6723,2.7247,2.7677,2.7972,2.7718,2.7818,2.7964,2.6794,2.599,2.5492,2.5501,2.5501,2.5509,2.5509,2.5509,2.5509,2.5509,2.5408,2.5411,2.6032,2.6187,2.6305,2.7088,2.7723,2.8124,2.7944,2.8356,2.8923,2.9379,2.9756,3.0053,3.0151,3.0302,3.0358,3.0228,3.0305,3.0404,3.0404,3.0404,3.0382,3.0373,3.0327,3.0286,3.0273,3.0105,2.9996,2.9996,2.9817,2.9689,2.9689,2.9508,2.9365,2.9304,2.9222,2.8896,2.827,2.8447,2.8287,2.7709,2.8835,2.8686,2.7286,2.6989,2.6117,2.4795,2.4723,2.4723,2.4783,2.4662,2.4649,2.4715,2.4864,2.4747,2.4518,2.476,2.4704,2.45,2.45,2.4648,2.4816,2.9674,3.0056,3.0005,2.9134,2.9517,2.9858,2.9552,2.9314,2.9422,3.0131,2.9614,2.9434,3.0153,3.0061,2.9956,2.9966,3.0422,3.039,2.966,2.9433,2.896,2.8078,2.8041,2.8288,2.881,2.9155,2.9607,3.0128,3.0128,2.9954,2.9603,2.9063,2.8825,2.8784,2.8051,2.7344,2.6743,2.7441,2.7636,2.7522,2.7855,2.8033,2.8041,2.7476,2.6941,2.6477,2.6143,2.6006,2.5932,2.5606,2.5509,2.5486,2.5442,2.535,2.5413,2.625,2.6449,2.6666,2.7777,2.8436,2.8781,2.8731,2.8858,2.9047,2.9359,2.956,2.9744,2.9964,3.0114,3.0168,3.0037,3.0114,3.0191,3.0191,3.0191,3.0191,3.0191,3.0126,3.0056,3.0056,2.9894,2.9773,2.9773,2.9603,2.945,2.936,2.9254,2.9174,2.9174,2.876,2.8295,2.7829,2.7914,2.7747,2.7263,2.8653,2.8432,2.6616,2.6563,2.5853,2.4593,2.4555,2.4572,2.4632,2.4534,2.4559,2.4604,2.4524,2.45,2.45,2.45,2.45,2.45,2.45,2.45,2.45,2.8204,2.8898,2.9222,2.8353,2.9574,3.0384,2.9522,2.9988,3.0189,2.9483,3.0007,3.0216,2.9574,3.0216,3.0694,3.0707,3.0719,2.9999,2.832,2.897,2.9028,2.8141,2.8112,2.8141,2.8225,2.9006,2.9408,2.9407,2.9407,2.8999,2.8218,2.8142,2.8181,2.8353,2.8838,2.8238,2.6917,2.8509,2.8277,2.6899,2.7853,2.8227,2.8218,2.8216,2.8158,2.7987,2.7113,2.6759,2.6588,2.5778,2.5548,2.5576,2.5359,2.53,2.5461,2.6196,2.6409,2.6774,2.8436,2.8878,2.9049,2.976,2.9306,2.8871,2.962,2.9223,2.8907,2.9537,2.9795,2.9875,2.9783,2.9833,2.9898,2.9898,2.9898,2.9898,2.9898,2.9792,2.9709,2.9705,2.963,2.9584,2.958,2.9395,2.9195,2.8998,2.8999,2.8999,2.8999,2.8319,2.7848,2.7701,2.7756,2.7719,2.7591,2.8466,2.7843,2.5799,2.5782,2.5277,2.4294,2.4362,2.4403,2.4403,2.4474,2.45,2.45,2.45,2.45,2.45,2.45,2.45,2.45,2.45,2.45,2.45,2.8085,2.8898,2.9222,2.8353,2.9087,2.9494,2.8612,2.8051,2.7917,2.8418,2.8051,2.8191,2.9379,2.9671,3.0059,3.0715,3.0788,3.0328,2.9273,2.9374,2.9072,2.8142,2.8154,2.8497,2.9172,2.9329,2.9394,2.9407,2.9407,2.929,2.9094,2.8415,2.8801,2.9983,2.81,2.7424,2.7737,2.8126,2.8068,2.7853,2.942,2.9636,2.9045,2.9038,2.8659,2.7983,2.704,2.6712,2.6588,2.5778,2.5913,2.6307,2.5532,2.5726,2.6367,2.7093,2.7276,2.7566,2.9087,2.95,2.9507,2.9541,2.9385,2.9186,2.9,2.9306,2.927,2.8033,2.8904,2.9668,2.8864,2.9372,2.9898,2.9898,2.9898,2.9898,2.9898,2.9826,2.9752,2.9709,2.9556,2.9424,2.937,2.9174,2.9044,2.9005,2.8999,2.8999,2.8999,2.8822,2.8161,2.6901,2.7475,2.7187,2.5925,2.739,2.7585,2.648,2.6475,2.5719,2.4294,2.4362,2.4403,2.4403,2.4474,2.45,2.45,2.45,2.45,2.45,2.45,2.45,2.45,2.45,2.45,2.45,2.6928,2.7704,2.8165,2.7715,2.867,2.9216,2.8329,2.8177,2.8159,2.8192,2.8171,2.8327,2.8834,2.9613,3.0294,3.0761,3.08,3.025,2.8951,2.9654,2.9531,2.8208,2.8985,2.9656,3.0103,3.0089,2.9866,2.9453,2.9453,2.9239,2.883,2.8333,2.8577,2.9352,2.8382,2.7967,2.8049,2.8898,2.8765,2.8146,2.9904,3.0087,2.935,2.9756,2.9663,2.9175,2.8264,2.7402,2.6646,2.6203,2.6049,2.5936,2.5418,2.5529,2.6067,2.7217,2.7531,2.785,2.9372,2.9756,2.957,2.9054,2.884,2.8713,2.8477,2.8733,2.8767,2.782,2.8384,2.9007,2.8895,2.9303,2.9654,2.9654,2.9654,2.9654,2.9654,2.9603,2.9546,2.9474,2.9338,2.923,2.9171,2.9067,2.8999,2.8999,2.8999,2.8999,2.8999,2.8644,2.8038,2.72,2.7585,2.7389,2.6549,2.7829,2.8071,2.7274,2.6877,2.6069,2.4903,2.4556,2.4421,2.4452,2.4487,2.45,2.45,2.45,2.45,2.45,2.45,2.45,2.45,2.45,2.45,2.45,2.5888,2.6625,2.7265,2.7393,2.8704,2.9424,2.8567,2.8905,2.9024,2.829,2.8697,2.8892,2.8463,2.971,3.0644,3.0781,3.0664,2.9964,2.8522,2.9905,3.01,2.8483,2.9944,3.08,3.08,3.08,3.0371,2.9496,2.9496,2.9126,2.8423,2.8374,2.8403,2.8576,2.9092,2.8924,2.8326,2.9765,2.9547,2.8369,2.9964,3.0172,2.9575,3.0153,3.0462,3.0462,2.9439,2.8133,2.688,2.6726,2.6259,2.5647,2.5294,2.5251,2.559,2.6893,2.7282,2.7638,2.9236,2.9596,2.9363,2.8735,2.8456,2.8301,2.8138,2.8096,2.8059,2.7929,2.8114,2.8505,2.9067,2.9309,2.9457,2.9588,2.9495,2.9495,2.9773,2.9522,2.9333,2.9409,2.9215,2.9068,2.9011,2.8999,2.8999,2.8999,2.8999,2.8999,2.8999,2.8369,2.7939,2.7792,2.7932,2.7956,2.7822,2.8684,2.8809,2.8122,2.7184,2.6336,2.5569,2.4782,2.4447,2.45,2.45,2.45,2.45,2.45,2.45,2.45,2.45,2.45,2.45,2.45,2.45,2.4495,2.6684,2.7521,2.8339,2.9042,2.9978,3.0326,2.9457,2.8774,2.8323,2.8212,2.7645,2.7782,2.9165,2.9535,2.9983,3.0722,3.0118,2.9574,2.934,3.0255,3.0352,2.9379,3.0274,3.08,3.08,3.08,3.0371,2.9496,2.9496,2.9438,2.9319,2.9309,2.9684,3.0324,2.9671,2.9324,2.9225,2.9398,2.9342,2.9202,3.0207,3.052,3.0346,2.973,2.9942,3.0385,2.8765,2.7985,2.7617,2.6872,2.6953,2.711,2.5597,2.5627,2.6241,2.635,2.6387,2.6729,2.835,2.8762,2.8857,2.9242,2.9329,2.9098,2.8283,2.8096,2.7891,2.7204,2.8212,2.903,2.8393,2.8895,2.9625,3.0326,2.9848,2.9885,3.1273,3.0264,2.9591,3.0172,2.9507,2.9011,2.8999,2.8999,2.8999,2.8999,2.8999,2.8999,2.8999,2.8895,2.8515,2.7829,2.8522,2.8581,2.7895,2.882,2.9225,2.9095,2.7601,2.6432,2.5569,2.4832,2.4491,2.45,2.45,2.45,2.45,2.45,2.45,2.45,2.45,2.45,2.45,2.45,2.45,2.4482,2.6832,2.732,2.7982,2.9265,2.9854,2.9987,2.9558,2.8781,2.8078,2.7531,2.675,2.6516,2.7296,2.821,2.9321,3.0683,3.0449,3.0022,2.9535,3.0313,3.041,2.9535,3.0332,3.08,3.08,3.08,3.0605,3.0235,3.0235,3.0235,3.0235,3.019,3.0351,3.0681,3.0303,3.012,3.0075,3.0034,3.0031,3.0066,3.0452,3.0598,3.0559,3.0172,3.0269,3.0501,2.973,2.906,2.8505,2.8124,2.7514,2.6861,2.6584,2.6409,2.6369,2.6807,2.7236,2.7657,2.791,2.8615,2.9103,2.8441,2.8549,2.8726,2.831,2.8531,2.8579,2.7743,2.8152,2.8839,2.9396,2.9805,3.0326,3.1143,3.0976,3.0995,3.1701,3.079,2.9991,2.9765,2.9293,2.8999,2.8999,2.8999,2.8999,2.8999,2.8999,2.8999,2.8999,2.904,2.888,2.8479,2.8911,2.8962,2.8574,2.9063,2.9302,2.9283,2.8122,2.7134,2.6274,2.5062,2.45,2.45,2.45,2.45,2.45,2.45,2.45,2.45,2.45,2.45,2.45,2.45,2.45,2.4478]}]]